[[{"header":{"parameterUnit":"m.s-1","parameterCategory":1,"la1":30.6,"la2":28.766,"lo1":-90.7593,"lo2":-88.6598,"dy":0.0162,"dx":0.0183,"nx":116,"ny":114,"refTime":"2024-04-29T12:00:00:Z","depth":0,"parameterNumber":2,"parameterNumberName":"U-component_of_WINDS"},"data":[0.0,0.0,0.0,0.0,0.0,0.0,0.0,0.0,0.0,0.0,0.0,0.0,0.0,0.0,0.0,0.0,0.0,0.0,0.0,0.0,0.0,0.0,0.0,0.0,0.0,0.0,0.0,0.0,0.0,0.0,0.0,0.0,0.0,0.0,0.0,0.0,0.0,0.0,0.0,0.0,0.0,0.0,0.0,0.0,0.0,0.0,0.0,0.0,0.0,0.0,0.0,0.0,0.0,0.0,0.0,0.0,0.0,0.0,0.0,0.0,0.0,0.0,0.0,0.0,0.0,0.0,0.0,0.0,0.0,0.0,0.0,0.0,0.0,0.0,0.0,0.0,0.0,0.0,0.0,0.0,0.0,0.0,0.0,0.0,0.0,0.0,0.0,0.0,0.0,0.0,0.0,0.0,0.0,0.0,0.0,0.0,0.0,0.0,0.0,0.0,0.0,0.0,0.0,0.0,0.0,0.0,0.0,0.0,0.0,0.0,0.0,0.0,0.0,0.0,0.0,0.0,0.0,0.0,0.0,0.0,0.0,0.0,0.0,0.0,0.0,0.0,0.0,0.0,0.0,0.0,0.0,0.0,0.0,0.0,0.0,0.0,0.0,0.0,0.0,0.0,0.0,0.0,0.0,0.0,0.0,0.0,0.0,0.0,0.0,0.0,0.0,0.0,0.0,0.0,0.0,0.0,0.0,0.0,0.0,0.0,0.0,0.0,0.0,0.0,0.0,0.0,0.0,0.0,0.0,0.0,0.0,0.0,0.0,0.0,0.0,0.0,0.0,0.0,0.0,0.0,0.0,0.0,0.0,0.0,0.0,0.0,0.0,0.0,0.0,0.0,0.0,0.0,0.0,0.0,0.0,0.0,0.0,0.0,0.0,0.0,0.0,0.0,0.0,0.0,0.0,0.0,0.0,0.0,0.0,0.0,0.0,0.0,0.0,0.0,0.0,0.0,0.0,0.0,0.0,0.0,0.0,0.0,0.0,0.0,0.0,0.0,0.0,0.0,0.0,0.0,0.0,0.0,0.0,0.0,0.0,0.0,0.0,0.0,0.0,0.0,0.0,0.0,0.0,0.0,0.0,0.0,0.0,0.0,0.0,0.0,0.0,0.0,0.0,0.0,0.0,0.0,0.0,0.0,0.0,0.0,0.0,0.0,0.0,0.0,0.0,0.0,0.0,0.0,0.0,0.0,0.0,0.0,0.0,0.0,0.0,0.0,0.0,0.0,0.0,0.0,0.0,0.0,0.0,0.0,0.0,0.0,0.0,0.0,0.0,0.0,0.0,0.0,0.0,0.0,0.0,0.0,0.0,0.0,0.0,0.0,0.0,0.0,0.0,0.0,0.0,0.0,0.0,0.0,0.0,0.0,0.0,0.0,0.0,0.0,0.0,0.0,0.0,0.0,0.0,0.0,0.0,0.0,0.0,0.0,0.0,0.0,0.0,0.0,0.0,0.0,0.0,0.0,0.0,0.0,0.0,0.0,0.0,0.0,0.0,0.0,0.0,0.0,0.0,0.0,0.0,0.0,0.0,0.0,0.0,0.0,0.0,0.0,0.0,0.0,0.0,0.0,0.0,0.0,0.0,0.0,0.0,0.0,0.0,0.0,0.0,0.0,0.0,0.0,0.0,0.0,0.0,0.0,0.0,0.0,0.0,0.0,0.0,0.0,0.0,0.0,0.0,0.0,0.0,0.0,0.0,0.0,0.0,0.0,0.0,0.0,0.0,0.0,0.0,0.0,0.0,0.0,0.0,0.0,0.0,0.0,0.0,0.0,0.0,0.0,0.0,0.0,0.0,0.0,0.0,0.0,0.0,0.0,0.0,0.0,0.0,0.0,0.0,0.0,0.0,0.0,0.0,0.0,0.0,0.0,0.0,0.0,0.0,0.0,0.0,0.0,0.0,0.0,0.0,0.0,0.0,0.0,0.0,0.0,0.0,0.0,0.0,0.0,0.0,0.0,0.0,0.0,0.0,0.0,0.0,0.0,0.0,0.0,0.0,0.0,0.0,0.0,0.0,0.0,0.0,0.0,0.0,0.0,0.0,0.0,0.0,0.0,0.0,0.0,0.0,0.0,0.0,0.0,0.0,0.0,0.0,0.0,0.0,0.0,0.0,0.0,0.0,0.0,0.0,0.0,0.0,0.0,0.0,0.0,0.0,0.0,0.0,0.0,0.0,0.0,0.0,0.0,0.0,0.0,0.0,0.0,0.0,0.0,0.0,0.0,0.0,0.0,0.0,0.0,0.0,0.0,0.0,0.0,0.0,0.0,0.0,0.0,0.0,0.0,0.0,0.0,0.0,0.0,0.0,0.0,0.0,0.0,0.0,0.0,0.0,0.0,0.0,0.0,0.0,0.0,0.0,0.0,0.0,0.0,0.0,0.0,0.0,0.0,0.0,0.0,0.0,0.0,0.0,0.0,0.0,0.0,0.0,0.0,0.0,0.0,0.0,0.0,0.0,0.0,0.0,0.0,0.0,0.0,0.0,0.0,0.0,0.0,0.0,0.0,0.0,0.0,0.0,0.0,0.0,0.0,0.0,0.0,0.0,0.0,0.0,0.0,0.0,0.0,0.0,0.0,0.0,0.0,0.0,0.0,0.0,0.0,0.0,0.0,0.0,0.0,0.0,0.0,0.0,0.0,0.0,0.0,0.0,0.0,0.0,0.0,0.0,0.0,0.0,0.0,0.0,0.0,0.0,0.0,0.0,0.0,0.0,0.0,0.0,0.0,0.0,0.0,0.0,0.0,0.0,0.0,0.0,0.0,0.0,0.0,0.0,0.0,0.0,0.0,0.0,0.0,0.0,0.0,0.0,0.0,0.0,0.0,0.0,0.0,0.0,0.0,0.0,0.0,0.0,0.0,0.0,0.0,0.0,0.0,0.0,0.0,0.0,0.0,0.0,0.0,0.0,0.0,0.0,0.0,0.0,0.0,0.0,0.0,0.0,0.0,0.0,0.0,0.0,0.0,0.0,0.0,0.0,0.0,0.0,0.0,0.0,0.0,0.0,0.0,0.0,0.0,0.0,0.0,0.0,0.0,0.0,0.0,0.0,0.0,0.0,0.0,0.0,0.0,0.0,0.0,0.0,0.0,0.0,0.0,0.0,0.0,0.0,0.0,0.0,0.0,0.0,0.0,0.0,0.0,0.0,0.0,0.0,0.0,0.0,0.0,0.0,0.0,0.0,0.0,0.0,0.0,0.0,0.0,0.0,0.0,0.0,0.0,0.0,0.0,0.0,0.0,0.0,0.0,0.0,0.0,0.0,0.0,0.0,0.0,0.0,0.0,0.0,0.0,0.0,0.0,0.0,0.0,0.0,0.0,0.0,0.0,0.0,0.0,0.0,0.0,0.0,0.0,0.0,0.0,0.0,0.0,0.0,0.0,0.0,0.0,0.0,0.0,0.0,0.0,0.0,0.0,0.0,0.0,0.0,0.0,0.0,0.0,0.0,0.0,0.0,0.0,0.0,0.0,0.0,0.0,0.0,0.0,0.0,0.0,0.0,0.0,0.0,0.0,0.0,0.0,0.0,0.0,0.0,0.0,0.0,0.0,0.0,0.0,0.0,0.0,0.0,0.0,0.0,0.0,0.0,0.0,0.0,0.0,0.0,0.0,0.0,0.0,0.0,0.0,0.0,0.0,0.0,0.0,0.0,0.0,0.0,0.0,0.0,0.0,0.0,0.0,0.0,0.0,0.0,0.0,0.0,0.0,0.0,0.0,0.0,0.0,0.0,0.0,0.0,0.0,0.0,0.0,0.0,0.0,0.0,0.0,0.0,0.0,0.0,0.0,0.0,0.0,0.0,0.0,0.0,0.0,0.0,0.0,0.0,0.0,0.0,0.0,0.0,0.0,0.0,0.0,0.0,0.0,0.0,0.0,0.0,0.0,0.0,0.0,0.0,0.0,0.0,0.0,0.0,0.0,0.0,0.0,0.0,0.0,0.0,0.0,0.0,0.0,0.0,0.0,0.0,0.0,0.0,0.0,0.0,0.0,0.0,0.0,0.0,0.0,0.0,0.0,0.0,0.0,0.0,0.0,0.0,0.0,0.0,0.0,0.0,0.0,0.0,0.0,0.0,0.0,0.0,0.0,0.0,0.0,0.0,0.0,0.0,0.0,0.0,0.0,0.0,0.0,0.0,0.0,0.0,0.0,0.0,0.0,0.0,0.0,0.0,0.0,0.0,0.0,0.0,0.0,0.0,0.0,0.0,0.0,0.0,0.0,0.0,0.0,0.0,0.0,0.0,0.0,0.0,0.0,0.0,0.0,0.0,0.0,0.0,0.0,0.0,0.0,0.0,0.0,0.0,0.0,0.0,0.0,0.0,0.0,0.0,0.0,0.0,0.0,0.0,0.0,0.0,0.0,0.0,0.0,0.0,0.0,0.0,0.0,0.0,0.0,0.0,0.0,0.0,0.0,0.0,0.0,0.0,0.0,0.0,0.0,0.0,0.0,0.0,0.0,0.0,0.0,0.0,0.0,0.0,0.0,0.0,0.0,0.0,0.0,0.0,0.0,0.0,0.0,0.0,0.0,0.0,0.0,0.0,0.0,0.0,0.0,0.0,0.0,0.0,0.0,0.0,0.0,0.0,0.0,0.0,0.0,0.0,0.0,0.0,0.0,0.0,0.0,0.0,0.0,0.0,0.0,0.0,0.0,0.0,0.0,0.0,0.0,0.0,0.0,0.0,0.0,0.0,0.0,0.0,0.0,0.0,0.0,0.0,0.0,0.0,0.0,0.0,0.0,0.0,0.0,0.0,0.0,0.0,0.0,0.0,0.0,0.0,0.0,0.0,0.0,0.0,0.0,0.0,0.0,0.0,0.0,0.0,0.0,0.0,0.0,0.0,0.0,0.0,0.0,0.0,0.0,0.0,0.0,0.0,0.0,0.0,0.0,0.0,0.0,0.0,0.0,0.0,0.0,0.0,0.0,0.0,0.0,0.0,0.0,0.0,0.0,0.0,0.0,0.0,0.0,0.0,0.0,0.0,0.0,0.0,0.0,0.0,0.0,0.0,0.0,0.0,0.0,0.0,0.0,0.0,0.0,0.0,0.0,0.0,0.0,0.0,0.0,0.0,0.0,0.0,0.0,0.0,0.0,0.0,0.0,0.0,0.0,0.0,0.0,0.0,0.0,0.0,0.0,0.0,0.0,0.0,0.0,0.0,0.0,0.0,0.0,0.0,0.0,0.0,0.0,0.0,0.0,0.0,0.0,0.0,0.0,0.0,0.0,0.0,0.0,0.0,0.0,0.0,0.0,0.0,0.0,0.0,0.0,0.0,0.0,0.0,0.0,0.0,0.0,0.0,0.0,0.0,0.0,0.0,0.0,0.0,0.0,0.0,0.0,0.0,0.0,0.0,0.0,0.0,0.0,0.0,0.0,0.0,0.0,0.0,0.0,0.0,0.0,0.0,0.0,0.0,0.0,0.0,0.0,0.0,0.0,0.0,0.0,0.0,0.0,0.0,0.0,0.0,0.0,0.0,0.0,0.0,0.0,0.0,0.0,0.0,0.0,0.0,0.0,0.0,0.0,0.0,0.0,0.0,0.0,0.0,0.0,0.0,0.0,0.0,0.0,0.0,0.0,0.0,0.0,0.0,0.0,0.0,0.0,0.0,0.0,0.0,0.0,0.0,0.0,0.0,0.0,0.0,0.0,0.0,0.0,0.0,0.0,0.0,0.0,0.0,0.0,0.0,0.0,0.0,0.0,0.0,0.0,0.0,0.0,0.0,0.0,0.0,0.0,0.0,0.0,0.0,0.0,0.0,0.0,0.0,0.0,0.0,0.0,0.0,0.0,0.0,0.0,0.0,0.0,0.0,0.0,0.0,0.0,0.0,0.0,0.0,0.0,0.0,0.0,0.0,0.0,0.0,0.0,0.0,0.0,0.0,0.0,0.0,0.0,0.0,0.0,0.0,0.0,0.0,0.0,0.0,0.0,0.0,0.0,0.0,0.0,0.0,0.0,0.0,0.0,0.0,0.0,0.0,0.0,0.0,0.0,0.0,0.0,0.0,0.0,0.0,0.0,0.0,0.0,0.0,0.0,0.0,0.0,0.0,0.0,0.0,0.0,0.0,0.0,0.0,0.0,0.0,0.0,-2.1013,0.0,0.0,0.0,0.0,0.0,0.0,0.0,0.0,0.0,0.0,0.0,0.0,0.0,0.0,0.0,0.0,0.0,0.0,0.0,0.0,0.0,0.0,0.0,0.0,-1.4647,-1.5032,-1.5199,-1.5513,-1.563,-1.548,0.0,0.0,0.0,0.0,0.0,-1.6181,-1.6285,-1.6233,-1.603,-1.6481,-1.6886,-1.7202,-1.6302,-1.5825,-1.5688,0.0,0.0,0.0,0.0,0.0,0.0,0.0,0.0,0.0,0.0,0.0,0.0,0.0,0.0,0.0,0.0,0.0,0.0,0.0,0.0,0.0,0.0,0.0,0.0,0.0,0.0,0.0,0.0,0.0,0.0,0.0,0.0,0.0,0.0,0.0,0.0,0.0,0.0,0.0,0.0,0.0,0.0,0.0,0.0,0.0,0.0,0.0,0.0,0.0,0.0,0.0,0.0,0.0,0.0,0.0,0.0,0.0,0.0,0.0,0.0,0.0,0.0,0.0,0.0,0.0,0.0,0.0,0.0,0.0,0.0,0.0,-2.1917,0.0,0.0,0.0,0.0,0.0,0.0,0.0,0.0,0.0,0.0,0.0,0.0,0.0,0.0,0.0,0.0,0.0,0.0,0.0,0.0,0.0,-1.4305,-1.4976,-1.5582,-1.6059,-1.6275,-1.6582,-1.667,-1.6387,-1.6441,-1.6624,-1.6944,-1.6754,-1.6729,-1.6933,-1.7167,-1.7189,-1.7016,-1.7746,-1.819,-1.8341,-1.8046,-1.7814,-1.7557,-1.6913,0.0,0.0,0.0,0.0,0.0,0.0,0.0,0.0,0.0,0.0,0.0,0.0,0.0,0.0,0.0,0.0,0.0,0.0,0.0,0.0,0.0,0.0,0.0,0.0,0.0,0.0,0.0,0.0,0.0,0.0,0.0,0.0,0.0,0.0,0.0,0.0,0.0,0.0,0.0,0.0,0.0,0.0,0.0,0.0,0.0,0.0,0.0,0.0,0.0,0.0,0.0,0.0,0.0,0.0,0.0,0.0,0.0,0.0,0.0,0.0,0.0,0.0,0.0,-2.2669,-2.2846,-2.2846,-2.2846,-2.2947,-2.3168,-2.2935,-2.282,-2.2743,-2.2402,0.0,0.0,0.0,0.0,0.0,0.0,0.0,0.0,0.0,0.0,0.0,0.0,0.0,0.0,0.0,0.0,0.0,0.0,0.0,-1.5692,-1.6369,-1.6781,-1.6895,-1.667,-1.6944,-1.7115,-1.7064,-1.7401,-1.7701,-1.7988,-1.8243,-1.8458,-1.8664,-1.8968,-1.9093,-1.902,-1.9244,-1.9358,-1.9314,-1.9217,-1.9139,-1.9045,-1.7707,-1.7115,-1.7094,0.0,0.0,0.0,0.0,0.0,0.0,0.0,0.0,0.0,0.0,0.0,0.0,0.0,0.0,0.0,0.0,0.0,0.0,0.0,0.0,0.0,0.0,0.0,0.0,0.0,0.0,0.0,0.0,0.0,0.0,0.0,0.0,0.0,0.0,0.0,0.0,0.0,0.0,0.0,0.0,0.0,-1.8583,-1.8795,0.0,0.0,0.0,0.0,0.0,0.0,0.0,0.0,0.0,0.0,0.0,0.0,0.0,-2.2155,-2.2497,-2.2803,-2.296,-2.2973,-2.3259,-2.3395,-2.3395,-2.3395,-2.3407,-2.3448,-2.3407,0.0,-2.304,-2.299,0.0,0.0,0.0,0.0,0.0,0.0,0.0,0.0,0.0,0.0,0.0,0.0,0.0,0.0,0.0,0.0,0.0,0.0,0.0,0.0,0.0,-1.7849,-1.8202,-1.8626,-1.8809,-1.8807,-1.8614,-1.877,-1.8817,-1.8713,-1.8863,-1.8976,-1.9059,-1.9417,-1.9747,-2.0015,-2.005,-2.012,-2.0239,-2.0048,-1.996,-1.9925,-1.9089,-1.8366,-1.7787,-1.7372,0.0,0.0,0.0,0.0,0.0,0.0,0.0,0.0,0.0,0.0,0.0,0.0,0.0,0.0,0.0,0.0,0.0,0.0,0.0,0.0,0.0,0.0,0.0,0.0,0.0,0.0,0.0,0.0,0.0,0.0,0.0,0.0,0.0,0.0,0.0,0.0,0.0,0.0,0.0,-1.9625,-2.0249,-2.0458,-2.0323,-2.0331,0.0,0.0,0.0,0.0,0.0,0.0,0.0,0.0,0.0,-2.2422,-2.2569,-2.2747,-2.291,-2.3187,-2.3324,-2.3324,-2.343,-2.3505,-2.3505,-2.3505,-2.3505,-2.3505,-2.3505,-2.343,-2.3313,-2.3168,-2.3028,-2.2902,0.0,0.0,0.0,0.0,-2.2473,-2.2527,0.0,0.0,0.0,0.0,0.0,0.0,0.0,0.0,0.0,0.0,0.0,0.0,-1.8491,-1.8879,-1.9383,-2.0128,-2.0191,-2.0087,-1.9854,-1.9925,-1.98,-1.9402,-1.9475,-1.9493,-1.9384,-1.9782,-2.0204,-2.0645,-2.0596,-2.0646,-2.0794,-2.0611,-2.0495,-2.0495,-2.0158,-1.9489,-1.8558,-1.8054,-1.7666,0.0,0.0,0.0,0.0,0.0,0.0,0.0,0.0,0.0,0.0,0.0,0.0,0.0,0.0,0.0,0.0,0.0,0.0,0.0,0.0,0.0,0.0,0.0,0.0,0.0,0.0,0.0,0.0,0.0,0.0,0.0,0.0,0.0,0.0,0.0,0.0,0.0,0.0,-2.0937,-2.1601,-2.1766,-2.1721,-2.1691,0.0,0.0,0.0,0.0,0.0,0.0,-2.2794,-2.2807,-2.2833,-2.291,-2.3102,-2.3205,-2.3205,-2.359,-2.3808,-2.3808,-2.4005,-2.4094,-2.4094,-2.4094,-2.4094,-2.4094,-2.4094,-2.4094,-2.4046,-2.3448,-2.3205,-2.318,-2.2897,-2.2807,-2.2807,-2.2807,-2.2807,-2.2833,0.0,0.0,0.0,0.0,0.0,0.0,0.0,0.0,0.0,0.0,0.0,-1.8867,-1.9555,-1.9919,-2.0128,-2.0191,-2.0191,-2.0191,-2.0174,-2.0529,-2.0562,-2.0156,-2.0496,-2.0545,-2.0156,-2.0545,-2.0844,-2.1071,-2.1071,-2.0974,-2.0794,-2.0794,-2.0778,-2.0778,-2.0495,-1.9997,-1.935,-1.9512,-1.8945,-1.7968,0.0,0.0,0.0,0.0,0.0,0.0,0.0,0.0,0.0,0.0,0.0,0.0,0.0,0.0,0.0,0.0,0.0,0.0,0.0,0.0,0.0,0.0,0.0,0.0,0.0,0.0,0.0,0.0,0.0,0.0,0.0,0.0,0.0,0.0,0.0,0.0,0.0,0.0,0.0,-2.1825,-2.2295,0.0,0.0,0.0,0.0,-2.2138,-2.248,-2.2807,-2.3082,-2.3082,-2.3205,-2.3441,-2.3464,-2.3482,-2.3482,-2.4254,-2.4641,-2.4659,-2.5354,-2.5693,-2.5693,-2.5693,-2.5693,-2.5693,-2.5693,-2.5693,-2.5569,-2.4082,-2.3482,-2.3441,-2.3193,-2.3082,-2.3082,-2.3082,-2.3082,-2.3132,0.0,0.0,0.0,-1.6603,-1.6826,-1.7191,-1.7608,-1.7768,-1.8071,-1.8695,-1.8881,-1.9227,-1.9949,-2.0158,-2.0431,-2.0861,-2.0958,-2.0861,-2.0597,-2.0712,-2.0629,-2.0208,-2.0344,-2.0462,-2.0596,-2.0728,-2.0942,-2.123,-2.123,-2.1183,-2.1119,-2.1119,-2.1392,-2.1793,-2.123,-2.0982,-2.0877,-1.9824,-1.9132,-1.8755,-1.8528,-1.8274,0.0,0.0,0.0,0.0,0.0,0.0,0.0,0.0,0.0,0.0,0.0,0.0,0.0,0.0,0.0,0.0,0.0,0.0,0.0,0.0,0.0,0.0,0.0,0.0,0.0,0.0,0.0,0.0,0.0,0.0,0.0,0.0,0.0,0.0,0.0,0.0,0.0,-2.1796,-2.2001,0.0,-2.1794,-2.2759,-2.315,-2.2527,-2.3427,-2.3807,-2.3383,-2.3348,-2.3644,-2.4254,-2.4284,-2.4504,-2.4968,-2.5265,-2.5408,-2.5408,-2.5676,-2.58,-2.58,-2.58,-2.58,-2.58,-2.58,-2.58,-2.5765,-2.5212,-2.47,-2.4219,-2.3608,-2.3679,-2.4122,-2.4122,-2.4436,-2.4857,0.0,-1.7548,0.0,-1.7465,-1.7605,-1.7874,-1.8273,-1.8419,-1.8706,-1.9229,-1.9406,-1.9752,-2.0362,-2.0582,-2.0845,-2.1277,-2.134,-2.1246,-2.099,-2.0974,-2.0844,-2.0581,-2.0564,-2.0697,-2.0958,-2.0974,-2.1199,-2.1665,-2.1665,-2.1811,-2.2037,-2.2037,-2.2297,-2.275,-2.2264,-2.2115,-2.2141,-2.0609,-1.9675,-1.9258,-1.8993,-1.8736,-1.8478,0.0,0.0,0.0,0.0,0.0,0.0,0.0,0.0,0.0,0.0,0.0,0.0,0.0,0.0,0.0,0.0,0.0,0.0,0.0,0.0,0.0,0.0,0.0,0.0,0.0,0.0,0.0,0.0,0.0,0.0,0.0,0.0,0.0,0.0,0.0,-2.2041,-2.2323,-2.2281,-2.2341,-2.2609,-2.329,-2.3606,-2.3387,-2.4192,-2.4587,-2.429,-2.4522,-2.4926,-2.5461,-2.5747,-2.6109,-2.659,-2.6889,-2.7014,-2.7032,-2.7281,-2.7388,-2.7388,-2.7388,-2.7264,-2.7014,-2.7014,-2.6858,-2.659,-2.6318,-2.5925,-2.539,-2.4593,-2.4593,-2.5069,-2.5069,-2.5229,-2.539,-1.8288,-1.8576,-1.8673,-1.8673,-1.886,-1.9012,-1.9012,-1.9059,-1.925,-1.9654,-2.0052,-2.0448,-2.0845,-2.1198,-2.1386,-2.1402,-2.134,-2.1293,-2.1293,-2.1293,-2.1293,-2.1293,-2.1293,-2.1293,-2.1293,-2.1325,-2.1681,-2.2394,-2.241,-2.2799,-2.3496,-2.3496,-2.3512,-2.3528,-2.3512,-2.3374,-2.3064,-2.1914,-2.0663,-1.9472,-1.9617,-1.9213,-1.8498,0.0,0.0,0.0,0.0,0.0,0.0,0.0,0.0,0.0,0.0,0.0,0.0,0.0,0.0,0.0,0.0,0.0,0.0,0.0,0.0,0.0,0.0,0.0,0.0,0.0,0.0,0.0,0.0,0.0,0.0,0.0,0.0,0.0,-2.2004,-2.2089,-2.2558,-2.3316,-2.324,-2.344,-2.4221,-2.385,-2.3886,-2.47,-2.4801,-2.5122,-2.5854,-2.6603,-2.7063,-2.708,-2.7821,-2.8249,-2.8267,-2.9034,-2.944,-2.944,-3.0172,-3.0496,-3.0496,-3.0496,-3.0118,-2.944,-2.944,-2.898,-2.8213,-2.7424,-2.7116,-2.7027,-2.6139,-2.5818,-2.5854,-2.5854,-2.5408,-2.4694,-1.7447,-1.7948,-1.8257,-1.8257,-1.8712,-1.9078,-1.9078,-1.9082,-1.925,-1.9654,-1.98,-2.012,-2.0762,-2.0942,-2.1119,-2.1309,-2.1356,-2.1356,-2.1293,-2.1293,-2.1293,-2.1293,-2.1293,-2.1293,-2.1293,-2.1827,-2.2199,-2.2394,-2.2945,-2.3301,-2.3496,-2.3496,-2.3755,-2.4209,-2.3706,-2.372,-2.4021,-2.2537,-2.1506,-2.076,-1.9598,-1.8874,-1.8498,0.0,0.0,0.0,0.0,0.0,0.0,0.0,0.0,0.0,0.0,0.0,0.0,0.0,0.0,0.0,0.0,0.0,0.0,0.0,0.0,0.0,0.0,0.0,0.0,0.0,0.0,0.0,0.0,0.0,0.0,0.0,-2.3554,-2.3563,-2.3038,-2.3699,-2.409,-2.3718,-2.3649,-2.3692,-2.3917,-2.4515,-2.5213,-2.6021,-2.6801,-2.7322,-2.7536,-2.775,-2.8142,-2.8727,-2.8959,-2.9319,-2.9854,-3.0086,-3.0208,-3.0208,-3.0389,-3.0496,-3.0496,-3.0496,-3.0404,-3.0208,-3.0208,-3.0068,-2.9854,-2.9637,-2.9547,-2.9298,-2.6782,-2.6157,-2.6657,-2.6657,-2.6907,-2.7215,-1.7331,-1.7774,-1.8139,-1.8355,-1.8765,-1.9078,-1.9101,-1.9101,-1.9291,-1.9839,-1.9927,-2.0225,-2.0974,-2.1087,-2.1182,-2.134,-2.1356,-2.134,-2.1293,-2.1293,-2.1293,-2.1293,-2.1293,-2.1439,-2.1746,-2.2183,-2.2685,-2.3268,-2.4031,-2.4549,-2.4857,-2.5132,-2.5308,-2.5389,-2.5019,-2.4834,-2.4758,-2.3524,-2.2552,-2.1709,-2.0451,-1.9526,-1.8851,-1.8716,-1.8678,-1.8659,-1.8537,-1.8498,-1.8517,-1.862,0.0,0.0,0.0,0.0,0.0,0.0,0.0,0.0,0.0,0.0,0.0,0.0,0.0,0.0,0.0,0.0,0.0,0.0,0.0,0.0,0.0,0.0,0.0,0.0,-2.4428,-2.4575,-2.4735,-2.4471,-2.4285,-2.4292,-2.4126,-2.4439,-2.554,-2.5896,-2.6534,-2.7699,-2.8358,-2.8838,-2.9141,-2.948,-2.9886,-3.035,-3.0689,-3.1064,-3.1492,-3.151,-3.151,-3.151,-3.151,-3.151,-3.151,-3.151,-3.1314,-3.1011,-3.1011,-3.0814,-3.0496,-3.0496,-3.0496,0.0,0.0,0.0,0.0,0.0,-2.7299,-2.7643,-1.7482,-1.7808,-1.8088,-1.863,-1.887,-1.9017,-1.9078,-1.9101,-1.935,-2.0104,-2.0244,-2.0582,-2.1324,-2.1386,-2.1386,-2.1386,-2.134,-2.1293,-2.1293,-2.1293,-2.1293,-2.1293,-2.1374,-2.173,-2.2377,-2.2556,-2.3284,-2.4612,-2.5373,-2.6102,-2.683,-2.7429,-2.7381,-2.6814,-2.6733,-2.6231,-2.5413,-2.4631,-2.3637,-2.2552,-2.1771,-2.0645,-1.9395,-1.9101,-1.8955,-1.886,-1.8678,-1.8556,-1.8537,-1.8817,0.0,0.0,0.0,0.0,0.0,0.0,0.0,0.0,0.0,0.0,0.0,0.0,0.0,0.0,0.0,0.0,0.0,0.0,0.0,0.0,0.0,0.0,0.0,0.0,-2.524,-2.5686,-2.6314,-2.4902,-2.4203,-2.5253,-2.4983,-2.5698,-2.8097,-2.7692,-2.7924,-2.9547,-2.9654,-2.9976,-3.0725,0.0,0.0,0.0,0.0,-3.29,-3.29,-3.29,-3.29,-3.29,-3.29,-3.29,-3.29,-3.29,-3.2507,-3.1831,-3.1831,-3.1421,-3.0779,-3.0779,-3.0725,-3.0564,-2.9833,-2.953,-2.9351,-2.7924,-2.7335,-2.7157,-1.6637,-1.7118,-1.7592,-1.8068,-1.8606,-1.9012,-1.9031,-1.9059,-1.935,-2.0104,-2.0208,-2.0497,-2.1246,-2.1324,-2.1324,-2.1324,-2.1325,-2.1293,-2.1293,-2.1293,-2.1293,-2.1293,-2.1876,-2.2248,-2.2394,-2.3495,-2.4515,-2.5387,-2.6134,-2.683,-2.751,-2.764,-2.764,-2.7494,-2.6944,-2.66,-2.6351,-2.4912,-2.4159,-2.3811,-2.2378,-2.0895,-1.9555,-1.9548,-1.9273,-1.8917,-1.9153,-1.8908,-1.8537,-1.8817,-1.8874,-1.8798,-1.862,0.0,0.0,0.0,0.0,0.0,0.0,0.0,0.0,0.0,0.0,0.0,0.0,0.0,0.0,0.0,0.0,0.0,0.0,0.0,0.0,-2.5253,-2.5666,-2.5735,-2.5299,-2.6159,-2.7026,-2.7518,-2.7512,-2.7891,-2.9052,-2.903,-2.9583,-3.1135,-3.126,-3.1599,-3.24,-3.2579,-3.2668,-3.2668,-3.2829,-3.29,-3.29,-3.29,-3.29,-3.29,0.0,0.0,-3.29,-3.29,-3.2811,-3.2668,-3.2668,-3.2579,-3.2436,-3.2436,-3.2045,-3.1385,-3.06,-3.0297,-3.0246,-2.994,-2.9458,-2.8905,-1.6414,-1.69,-1.7482,-1.8234,-1.862,-1.8846,-1.8889,-1.8984,-1.9232,-1.9785,-1.9909,-2.0154,-2.0697,-2.0926,-2.1055,-2.1055,-2.1198,-2.1293,-2.1293,-2.1293,-2.1293,-2.1293,-2.1665,-2.2199,-2.2929,-2.3642,-2.4711,-2.615,-2.6863,-2.7559,-2.8255,-2.8628,-2.8595,-2.8223,-2.751,-2.7008,-2.662,-2.5441,-2.4726,-2.4291,-2.3158,-2.1932,-2.0685,-2.0117,-1.9729,-1.9493,-1.9417,-1.9209,-1.9003,-1.9384,-1.942,-1.931,-1.9406,-1.9591,-1.9719,0.0,0.0,0.0,0.0,0.0,0.0,0.0,0.0,0.0,0.0,0.0,0.0,0.0,0.0,-2.3782,-2.4563,0.0,-2.5023,-2.5698,-2.604,-2.6402,-2.6832,-2.7499,-2.795,-2.8011,-2.8464,-2.9248,-3.044,-3.0547,-3.1028,-3.2222,-3.2311,-3.2489,-3.2882,-3.29,-3.29,-3.29,-3.29,-3.29,-3.29,-3.29,-3.29,-3.29,-3.29,-3.29,-3.29,-3.29,-3.29,-3.29,-3.29,-3.29,-3.29,-3.29,-3.2668,-3.2257,-3.1849,-3.1207,-3.0496,-3.0496,-3.0279,-2.9958,-1.6414,-1.6799,-1.7372,-1.8352,-1.8542,-1.862,-1.876,-1.8922,-1.913,-1.9457,-1.9621,-1.9836,-2.0156,-2.0479,-2.0712,-2.0794,-2.1103,-2.1293,0.0,-2.1293,-2.1293,-2.1293,-2.1439,-2.2135,-2.3463,-2.3625,-2.4679,-2.6701,-2.7235,-2.7883,-2.8595,-2.92,-2.9167,-2.8547,-2.7834,-2.7203,-2.6652,-2.5904,-2.5179,-2.4452,-2.3736,-2.2853,-2.181,-2.0622,-2.0118,-1.9995,-1.9705,-1.9505,-1.9468,-1.9889,-1.9925,-1.9818,-2.0152,-2.0191,-2.0174,-2.0412,-2.0596,0.0,0.0,0.0,0.0,0.0,0.0,0.0,0.0,-2.2086,-2.2637,-2.2687,-2.3125,-2.3717,-2.4376,-2.4873,-2.5418,-2.6085,-2.6551,-2.7281,-2.8594,-2.8837,-2.8799,-2.8576,-2.9325,-3.0404,-3.1796,-3.192,-3.2204,-3.2846,-3.29,-3.29,-3.29,-3.29,-3.29,-3.29,-3.3061,-3.3132,-3.3132,-3.3275,-3.3346,-3.3346,-3.3346,-3.3346,-3.3346,-3.3346,-3.3346,-3.3346,-3.3203,-3.3132,-3.3114,-3.2953,-3.29,-3.29,-3.29,-3.2114,-3.0975,-3.0975,-3.0868,-3.0743,-1.6414,-1.6531,-1.6871,-1.776,-1.8002,-1.822,-1.8653,-1.8879,-1.913,-1.9457,-1.9621,-1.9836,-2.0156,-2.0243,-2.0412,-2.0778,-2.1103,-2.1293,-2.1293,-2.1293,-2.1293,-2.1293,-2.194,-2.2653,-2.348,-2.4079,-2.5165,-2.6701,-2.6782,-2.7154,-2.7834,-2.7915,-2.7899,-2.7802,-2.7106,-2.6766,-2.6652,-2.5904,-2.5179,-2.4434,-2.3579,-2.2768,-2.1946,-2.0878,-2.0204,-1.9874,-2.0115,-1.9851,-1.945,-1.9732,-1.9927,-2.0013,-1.977,-2.0277,-2.0938,-2.0806,-2.1295,-2.1778,-2.1108,-2.0936,-2.0987,-2.1295,-2.1892,-2.2361,0.0,-2.2848,-2.3452,-2.3671,-2.3669,-2.4,-2.5286,-2.5162,-2.5217,-2.6274,-2.7324,-2.8069,-2.8247,-3.0018,-3.1314,-3.1266,-3.137,-3.1793,-3.2686,-3.2775,-3.2793,-3.2882,-3.29,-3.29,-3.29,-3.29,-3.29,-3.29,-3.358,-3.3972,-3.3972,-3.4633,-3.4937,-3.4937,-3.4937,-3.4937,-3.4937,-3.4937,-3.4937,-3.4918,-3.4258,-3.3972,-3.3919,-3.3203,-3.29,-3.29,-3.29,-3.2793,-3.2632,-3.2632,-3.2186,-3.1564,-1.6044,-1.6088,-1.6306,-1.6921,-1.7331,-1.7598,-1.7794,-1.8155,-1.8475,-1.8616,-1.894,-1.9254,-1.949,-1.9747,-2.0152,-2.0761,-2.0925,-2.1087,-2.1294,-2.1293,-2.1293,-2.1293,-2.1601,-2.2102,-2.2848,-2.3544,-2.4612,-2.6069,-2.649,-2.7041,-2.7705,-2.7705,-2.7705,-2.7672,-2.6992,-2.6701,-2.662,-2.5376,-2.4659,-2.4273,-2.2971,-2.2193,-2.1706,-2.0828,-2.0325,-2.01,-2.0252,-2.0393,0.0,0.0,-2.0518,-2.0912,-2.0879,-2.1174,-2.1492,-2.1412,-2.1631,-2.1889,-2.1698,-2.1684,-2.1761,-2.1908,-2.2167,-2.228,-2.1859,-2.2005,-2.2329,-2.2661,-2.3007,-2.3513,-2.4383,-2.506,-2.5818,0.0,-2.7891,-2.8912,-2.9814,-3.0958,-3.1867,-3.2347,-3.24,-3.2525,-3.2864,-3.29,-3.29,-3.29,-3.29,-3.3096,-3.3562,-3.3598,-3.3794,-3.4222,-3.4561,-3.4723,-3.4723,-3.5044,-3.5186,-3.5186,-3.5186,-3.5186,-3.5186,-3.5186,-3.5186,-3.5169,-3.4865,-3.4723,-3.4705,-3.4383,-3.424,-3.4204,-3.3776,-3.3598,-3.3526,-3.3078,-3.2686,-3.24,-1.5792,-1.5792,-1.5903,-1.6241,-1.6586,-1.6905,-1.7157,-1.7557,-1.7848,-1.7988,-1.8364,-1.8707,-1.8974,-1.9395,-1.9871,-2.0444,-2.0579,-2.0778,-2.1135,-2.1167,-2.1198,-2.1309,-2.1293,-2.1665,-2.2377,-2.2929,-2.3804,-2.5033,-2.5551,-2.615,-2.6814,-2.6814,-2.6927,-2.7106,-2.6393,-2.6085,-2.6005,-2.4574,-2.3875,-2.3585,-2.2318,-2.1605,-2.1214,-2.0663,-2.0375,-2.0304,-2.0304,-2.0736,0.0,0.0,-2.1206,-2.1789,-2.1797,-2.1837,-2.1889,-2.1889,-2.1889,-2.1923,-2.206,-2.21,-2.2102,-2.2102,-2.2102,-2.1956,-2.1423,-2.1293,-2.1436,-2.194,-2.2461,-2.3126,-2.4101,-2.518,-2.637,-2.7664,-2.8697,-2.9821,-3.1145,-3.1726,-3.2257,-3.2829,-3.29,-3.29,-3.29,-3.29,-3.2989,-3.3221,-3.3239,-3.3562,-3.4365,-3.4384,-3.4634,-3.5169,-3.5435,-3.5543,-3.5543,-3.5757,-3.5864,-3.5864,-3.5864,-3.5864,-3.5864,-3.5864,-3.5864,-3.5846,-3.5632,-3.5543,-3.5525,-3.5276,-3.5186,-3.5151,-3.4615,-3.4384,-3.4329,-3.374,-3.3275,-3.29,-1.5792,-1.5792,-1.5792,-1.5814,-1.5836,-1.6154,-1.7052,-1.7276,-1.7476,-1.7948,-1.806,-1.835,-1.8955,-1.9306,-1.9566,-1.9711,-2.0032,-2.0395,-2.0794,-2.0811,-2.0958,-2.1294,-2.1293,-2.1665,-2.2377,-2.241,-2.2815,-2.3561,-2.3577,-2.3933,-2.4614,-2.4614,-2.4968,-2.5629,-2.4887,-2.4581,-2.4515,-2.361,-2.2832,-2.2141,-2.1749,-2.1184,-2.0525,-2.0356,-2.0304,-2.0304,-2.0304,0.0,0.0,-2.1273,-2.1845,-2.2477,-2.1971,-2.1925,0.0,-2.2094,-2.2094,-2.2094,-2.2094,-2.173,-2.1325,-2.1325,-2.1325,-2.1325,-2.1309,-2.1293,-2.1519,-2.2232,-2.2394,-2.3096,-2.5343,-2.5773,-2.6582,-2.8955,-2.9946,-3.0746,-3.1566,-3.2382,-3.2864,-3.29,-3.29,-3.29,0.0,-3.29,-3.3221,-3.4008,-3.4062,-3.4401,-3.5115,-3.5186,-3.5169,-3.5186,-3.5971,-3.6363,-3.6363,-3.7149,-3.7541,-3.7541,-3.7541,-3.7541,-3.7541,-3.7541,-3.7541,-3.7488,-3.6702,-3.6363,-3.6292,-3.5525,-3.5186,-3.5186,-3.5169,-3.5186,-3.5151,-3.5133,-3.4169,-3.29,-1.5792,-1.5792,-1.5792,-1.5792,-1.5792,-1.5903,-1.6219,-1.6552,-1.6837,-1.6985,-1.7612,0.0,0.0,0.0,0.0,0.0,-1.9747,-2.0015,-2.0378,-2.0412,-2.0563,-2.0958,-2.0974,-2.1183,-2.1665,-2.2151,-2.2523,-2.2783,-2.3253,-2.3609,-2.3836,-2.3836,-2.3966,-2.4209,-2.395,-2.375,-2.3578,-2.2713,-2.2111,-2.1719,-2.1021,-2.0591,-2.0373,-2.0321,-2.0304,-2.0366,0.0,0.0,-2.1966,-2.1966,-2.2173,-2.2368,-2.2192,-2.1861,-2.1592,-2.168,-2.1488,-2.1274,-2.1406,-2.1376,-2.1293,-2.1293,-2.1293,-2.1293,-2.1293,-2.1681,-2.2231,-2.2917,-2.37,-2.4613,-2.5783,-2.6511,-2.7544,-2.9431,-3.0168,-3.0975,-3.2311,-3.2721,-3.29,-3.29,-3.29,0.0,0.0,0.0,0.0,-3.4079,-3.4544,-3.5186,-3.5953,-3.6006,-3.6238,-3.6774,-3.7059,-3.7202,-3.7202,-3.747,-3.7595,-3.7595,-3.7595,-3.7595,-3.7595,-3.7595,-3.7595,-3.7577,-3.7309,-3.7202,-3.7184,-3.6899,-3.6774,-3.6738,-3.6203,-3.6006,-3.5935,-3.54,-3.4779,-3.4178,0.0,-1.5792,-1.5792,-1.5792,-1.5792,0.0,0.0,0.0,0.0,0.0,0.0,0.0,0.0,0.0,0.0,0.0,0.0,-1.9584,-1.9929,0.0,-2.0189,-2.0579,-2.0596,-2.0745,-2.1119,-2.1601,-2.1891,-2.2005,-2.2475,-2.2864,-2.3107,-2.3107,-2.3253,-2.348,-2.3152,-2.292,-2.2751,-2.1808,-2.1337,-2.1151,-2.0543,-2.0304,-2.0304,-2.0304,-2.0304,0.0,0.0,0.0,-2.2305,-2.2305,-2.2455,-2.2582,-2.2145,-2.16,-2.1148,-2.1304,-2.1142,-2.0974,-2.123,-2.1325,-2.134,-2.1509,-2.169,-2.1855,-2.1949,-2.2538,-2.3242,-2.3824,-2.4546,-2.5297,-2.6008,-2.6626,-2.761,-2.9329,-2.9836,-3.0607,-3.2309,-3.257,-3.267,-3.277,-3.2868,-3.3007,0.0,0.0,0.0,-3.4491,-3.5204,-3.5989,-3.6774,-3.6827,-3.7077,-3.7577,-3.7595,-3.7595,-3.7595,-3.7595,-3.7595,-3.7595,-3.7595,-3.7595,-3.7595,-3.7595,-3.7595,-3.7595,-3.7595,-3.7595,-3.7595,-3.7595,-3.7595,-3.7559,-3.7041,-3.6827,-3.6756,-3.6256,-3.5776,-3.5332,0.0,0.0,-1.5792,0.0,0.0,0.0,0.0,0.0,0.0,0.0,0.0,0.0,0.0,0.0,0.0,0.0,0.0,0.0,-1.9457,0.0,0.0,-2.0139,-2.0156,-2.0361,-2.0761,-2.0761,-2.0925,-2.1246,-2.1246,-2.1617,-2.2329,-2.2312,-2.2685,-2.3333,-2.2435,-2.2012,-2.193,-2.0927,-2.0494,-2.046,-2.034,-2.0304,-2.0304,-2.0304,0.0,0.0,0.0,0.0,-2.224,-2.2317,-2.2717,-2.3002,-2.1807,-2.1128,-2.0827,-2.1039,-2.1103,-2.1199,-2.1587,-2.1528,-2.1467,-2.1917,-2.2438,-2.2892,-2.3157,-2.3787,-2.4427,-2.4811,-2.4924,-2.5189,-2.6025,-2.6211,-2.6854,-2.8781,-2.9126,-2.9798,-3.1669,-3.2056,-3.2248,0.0,0.0,0.0,0.0,0.0,0.0,-3.5275,0.0,-3.6774,-3.7559,-3.7595,-3.7595,-3.7595,-3.7595,-3.7595,-3.7595,-3.7595,-3.7595,-3.7595,-3.7595,-3.7595,-3.7595,-3.7595,-3.7595,-3.7595,-3.7595,-3.7595,-3.7595,-3.7594,-3.7577,-3.7577,-3.7577,-3.7577,-3.7594,-3.7613,-3.7113,-3.6328,0.0,0.0,0.0,0.0,0.0,0.0,0.0,0.0,0.0,0.0,0.0,0.0,0.0,0.0,0.0,0.0,0.0,0.0,0.0,0.0,0.0,0.0,0.0,0.0,0.0,0.0,0.0,0.0,-2.0629,-2.0906,-2.1408,-2.1129,-2.1241,-2.1681,-2.1159,-2.0794,-2.0622,-2.0522,-2.0308,-1.9997,0.0,-2.0304,-2.0304,0.0,0.0,0.0,0.0,0.0,-2.136,-2.2628,-2.2486,-2.1692,-2.0971,-2.0668,-2.0645,-2.1006,-2.1103,-2.1199,-2.1587,-2.1903,-2.2183,-2.2452,-2.2916,-2.334,-2.3407,-2.3963,-2.4538,-2.484,-2.5191,-2.5542,-2.5961,-2.6332,-2.7113,-2.8762,-2.9437,0.0,-3.2158,-3.2454,0.0,-3.2786,0.0,-3.3221,-3.4026,-3.4775,0.0,0.0,-3.6827,-3.7381,-3.7595,-3.7595,-3.7595,-3.7595,-3.7595,-3.7595,-3.7595,-3.7595,-3.7595,-3.7595,-3.7595,-3.7595,-3.7595,-3.7595,-3.7595,-3.7595,-3.7595,-3.7595,-3.7594,-3.7447,-3.7372,-3.7372,-3.7372,-3.7372,-3.7391,-3.754,-3.7378,-3.7054,0.0,0.0,0.0,0.0,0.0,0.0,0.0,0.0,0.0,0.0,0.0,0.0,0.0,0.0,0.0,0.0,0.0,0.0,0.0,0.0,0.0,0.0,0.0,0.0,0.0,0.0,0.0,0.0,0.0,0.0,-2.0564,-2.0345,-2.0362,-2.0564,-2.0291,-2.0048,-1.9892,-1.9977,0.0,0.0,0.0,0.0,0.0,0.0,0.0,0.0,0.0,0.0,-2.1024,-2.239,-2.1981,-2.0815,-2.0584,-2.051,-2.0578,-2.0974,-2.1103,-2.1247,-2.1949,-2.2263,-2.2541,-2.3192,-2.3737,-2.4143,-2.4262,-2.4821,-2.5332,-2.5384,-2.5586,-2.5787,-2.5824,-2.6028,-2.6708,-2.8191,-2.8873,0.0,-3.167,-3.2144,-3.2403,0.0,-3.2852,0.0,-3.4455,-3.4955,-3.5685,0.0,-3.7345,-3.7595,-3.7595,-3.7595,-3.7595,-3.7595,-3.7595,-3.7595,-3.7595,-3.7595,-3.7558,-3.7466,-3.7466,-3.7411,-3.7336,-3.7336,-3.7336,-3.7336,0.0,-3.7336,-3.7317,-3.7203,-3.7163,-3.7163,-3.7163,-3.7163,-3.7182,-3.7297,-3.7278,-3.7182,0.0,0.0,0.0,0.0,0.0,0.0,0.0,0.0,0.0,0.0,-1.6154,-1.6436,0.0,0.0,0.0,0.0,0.0,0.0,0.0,0.0,0.0,0.0,0.0,0.0,0.0,0.0,0.0,0.0,0.0,0.0,0.0,0.0,0.0,0.0,0.0,0.0,0.0,0.0,0.0,0.0,0.0,0.0,0.0,0.0,0.0,0.0,0.0,0.0,-2.0929,-2.1816,-2.1298,-2.0321,-2.0494,-2.0544,-2.0628,-2.1006,-2.1135,-2.136,-2.2408,-2.2622,-2.2834,-2.4,-2.4646,-2.5056,-2.5295,-2.5829,-2.6226,-2.5992,-2.5954,-2.5881,-2.5637,-2.5635,-2.6094,-2.7469,-2.8043,-2.8962,-3.0806,-3.1568,-3.2091,-3.2556,-3.2753,-3.3474,-3.5044,-3.5186,-3.5846,-3.7451,-3.7577,-3.7595,-3.7595,-3.7595,-3.7595,-3.7595,-3.7595,-3.7595,-3.7595,-3.7595,-3.7503,-3.7297,-3.7297,-3.7201,-3.7007,-3.7007,-3.7007,-3.7007,-3.7007,-3.7007,-3.7007,-3.6968,-3.6968,-3.6968,-3.6968,-3.6968,-3.6968,-3.6987,-3.7007,-3.7007,0.0,0.0,0.0,0.0,0.0,0.0,0.0,0.0,0.0,0.0,-1.5881,-1.6066,0.0,0.0,0.0,0.0,0.0,0.0,0.0,0.0,0.0,0.0,0.0,0.0,0.0,0.0,0.0,0.0,0.0,0.0,0.0,0.0,0.0,0.0,0.0,0.0,0.0,0.0,0.0,0.0,0.0,0.0,0.0,0.0,0.0,0.0,0.0,0.0,0.0,0.0,-2.0719,-2.0356,-2.0645,-2.0745,-2.0827,-2.1167,-2.1278,-2.1487,-2.244,-2.2998,-2.3548,-2.4525,-2.5141,-2.548,-2.5533,-2.5649,-2.5731,-2.5675,-2.5656,-2.5672,-2.5616,-2.5787,-2.6307,-2.7443,-2.8372,-2.9412,-3.075,-3.1584,-3.2214,0.0,-3.2639,-3.3308,-3.5044,-3.5186,0.0,0.0,-3.7521,-3.7595,-3.7595,-3.7595,-3.7595,-3.7595,-3.7595,-3.7595,-3.7595,-3.7595,-3.7503,-3.7297,-3.7297,-3.7201,-3.7007,-3.7007,-3.7007,-3.7007,-3.7007,0.0,-3.6987,-3.6826,-3.6745,-3.6745,-3.6745,-3.6745,-3.6766,-3.6948,-3.7007,-3.7007,0.0,0.0,0.0,0.0,0.0,0.0,0.0,-1.5792,-1.5792,-1.5792,-1.5792,-1.5881,-1.611,-1.6349,-1.6586,0.0,0.0,0.0,0.0,0.0,0.0,0.0,0.0,0.0,0.0,0.0,0.0,0.0,0.0,0.0,0.0,0.0,0.0,0.0,0.0,0.0,0.0,0.0,0.0,0.0,0.0,0.0,0.0,0.0,0.0,0.0,0.0,0.0,0.0,0.0,-2.0862,-2.0339,-2.0578,-2.0645,-2.0695,-2.0958,-2.1359,-2.1874,-2.2617,-2.3412,-2.4193,-2.4922,-2.5357,-2.5597,-2.5597,-2.5597,-2.5597,-2.5597,-2.5597,-2.5597,-2.5597,-2.5694,-2.6089,-2.6996,-2.8122,-2.9234,-3.0294,-3.1391,-3.2197,-3.2421,-3.2807,-3.3565,-3.4818,-3.5296,-3.5985,-3.7055,-3.7334,-3.7447,-3.7447,-3.754,-3.7595,-3.7595,-3.7595,-3.7595,-3.7595,-3.7503,-3.7353,-3.7143,-3.7044,-3.6869,-3.665,-3.665,-3.665,-3.665,-3.665,-3.665,-3.6612,-3.6527,-3.6502,-3.6502,-3.6502,-3.6502,-3.6485,-3.6609,-3.665,-3.665,0.0,0.0,0.0,0.0,0.0,0.0,-1.5792,-1.5792,-1.5792,-1.5792,-1.5792,-1.5792,-1.5792,-1.6132,-1.6349,0.0,0.0,0.0,0.0,0.0,0.0,0.0,0.0,0.0,0.0,0.0,0.0,-1.8498,0.0,0.0,0.0,0.0,0.0,0.0,0.0,0.0,0.0,0.0,0.0,0.0,0.0,0.0,0.0,0.0,0.0,0.0,0.0,0.0,-1.9834,-2.1143,-2.1099,-2.0505,-2.0371,-2.041,-2.0544,-2.0745,-2.1385,-2.2152,-2.2744,-2.3644,-2.4569,-2.5157,-2.5448,-2.5597,-2.5597,-2.5597,-2.5597,-2.5597,-2.5597,-2.5597,-2.5597,-2.5597,-2.5794,-2.6438,-2.7571,-2.8665,-2.9561,-3.0807,-3.1739,-3.2109,-3.2842,0.0,-3.4618,-3.5372,0.0,-3.6876,-3.7124,-3.7278,-3.7353,-3.7503,-3.7595,-3.7595,-3.7595,-3.7595,-3.7595,-3.7607,-3.7487,-3.7253,-3.7266,-3.7092,-3.6784,-3.6784,-3.6784,-3.6784,-3.6784,-3.6784,-3.6784,-3.6784,-3.6784,-3.6784,-3.6611,-3.6559,-3.6542,-3.6353,-3.6301,-3.6301,0.0,0.0,0.0,0.0,0.0,0.0,-1.5792,-1.5792,-1.5792,-1.5792,-1.5792,-1.5792,-1.5792,-1.5836,-1.5859,0.0,0.0,0.0,0.0,0.0,0.0,0.0,0.0,0.0,0.0,0.0,0.0,-1.8498,-1.8498,0.0,0.0,0.0,0.0,0.0,0.0,-1.8498,0.0,0.0,0.0,0.0,0.0,0.0,0.0,0.0,0.0,0.0,0.0,-2.0405,-2.0356,-2.0776,-2.1039,-2.1052,-2.016,-2.0154,-2.0544,-2.0745,-2.1284,-2.1979,-2.2708,-2.3551,-2.4399,-2.5118,-2.5448,-2.5597,-2.5597,-2.5597,-2.5597,-2.5597,-2.5597,-2.5597,-2.5597,-2.5597,-2.5691,-2.6018,-2.6737,-2.758,-2.8576,-2.946,-3.0434,-3.1534,0.0,0.0,-3.4563,-3.5372,-3.6048,-3.6673,-3.6908,-3.7201,-3.754,-3.7577,-3.7595,-3.7595,-3.7595,-3.7595,-3.7595,-3.8307,-3.8436,-3.8023,-3.8722,-3.8824,-3.8387,-3.8387,-3.8387,-3.8387,-3.8387,-3.8387,0.0,-3.8387,-3.8387,-3.8301,-3.7668,-3.7392,-3.7305,-3.6559,-3.6301,-3.6301,0.0,0.0,0.0,0.0,0.0,0.0,-1.5738,-1.577,-1.5792,-1.5792,-1.5792,-1.5792,-1.5792,-1.5792,-1.5792,-1.5792,-1.5957,0.0,0.0,0.0,0.0,0.0,0.0,0.0,0.0,0.0,-1.8498,-1.8498,-1.8498,0.0,0.0,0.0,0.0,0.0,0.0,-1.8498,-1.8498,0.0,0.0,0.0,0.0,0.0,0.0,0.0,0.0,0.0,0.0,0.0,-2.0122,-2.0223,-2.0578,-2.0855,-2.005,-2.0067,-2.0469,-2.0957,-2.1653,-2.2413,-2.297,-2.3903,-2.4754,-2.504,-2.5178,-2.5275,-2.5391,-2.541,-2.541,-2.541,-2.5521,-2.5597,-2.5597,-2.5597,-2.5635,-2.5749,-2.6508,0.0,-2.7649,-2.892,-3.0044,-3.0677,-3.2234,-3.3519,0.0,0.0,-3.6258,-3.6667,-3.6886,-3.7085,-3.7222,-3.7466,-3.754,-3.7428,-3.8021,-3.8252,-3.8139,-3.8784,-3.9012,-3.881,-3.8872,-3.8794,-3.8594,-3.8594,-3.8594,-3.8594,-3.8594,-3.8594,0.0,-3.8594,-3.8594,-3.8582,-3.8289,-3.8168,-3.8134,-3.7784,-3.7387,-3.6986,0.0,0.0,0.0,0.0,0.0,-1.5637,-1.5637,-1.5681,-1.5703,-1.5703,-1.5748,-1.577,-1.577,-1.5792,-1.5792,-1.5792,-1.5792,0.0,0.0,0.0,0.0,0.0,0.0,0.0,0.0,0.0,-1.8498,-1.8498,-1.8498,-1.8498,0.0,0.0,-1.8498,-1.8498,0.0,0.0,0.0,0.0,0.0,0.0,0.0,0.0,0.0,0.0,0.0,0.0,0.0,0.0,0.0,0.0,0.0,-2.0937,-2.0094,0.0,0.0,-2.107,-2.1873,-2.263,-2.3156,-2.4075,-2.4886,-2.4886,-2.4946,-2.5025,-2.5178,-2.5217,-2.5217,-2.5217,-2.5371,-2.5521,-2.5521,-2.5559,-2.5597,0.0,0.0,-2.6738,-2.6951,-2.8265,-2.9382,-2.9875,0.0,-3.3414,0.0,-3.5235,-3.6216,-3.6339,-3.6708,-3.6888,-3.6814,-3.73,-3.7558,-3.7537,-3.822,-3.863,-3.8722,-3.9314,-3.9592,-3.9528,-3.9415,-3.9272,-3.9106,-3.9221,-3.9221,-3.9106,-3.9221,-3.9221,0.0,-3.9106,-3.902,-3.8875,-3.8647,-3.8561,-3.855,-3.8345,-3.7912,-3.7427,0.0,0.0,0.0,0.0,0.0,-1.5491,-1.5491,-1.5491,-1.5491,-1.5491,-1.5614,-1.5693,-1.5693,-1.5748,-1.5792,-1.5792,-1.5792,0.0,0.0,0.0,0.0,0.0,0.0,0.0,-1.7808,-1.8254,-1.8498,-1.8498,-1.8498,-1.8498,-1.8498,-1.8498,-1.8498,-1.8498,0.0,0.0,0.0,0.0,0.0,0.0,0.0,0.0,-1.8478,0.0,0.0,0.0,0.0,0.0,0.0,0.0,0.0,0.0,0.0,-1.9858,-1.9995,0.0,-2.1781,-2.2459,-2.3117,-2.3955,-2.4609,-2.4609,-2.4806,-2.5005,-2.5005,-2.5005,-2.5005,-2.5005,-2.5162,-2.5294,-2.5294,-2.5483,-2.5597,-2.5597,-2.5597,0.0,-2.6587,-2.7284,-2.8123,0.0,0.0,-3.2641,-3.2998,-3.4709,-3.5727,-3.5526,-3.6241,0.0,-3.6433,-3.7101,-3.7665,-3.8073,-3.8111,-3.8462,-3.9196,-3.9982,-4.0294,-4.0108,-4.0844,-4.0866,-4.0296,-4.0686,-4.0662,-4.0296,-4.071,-4.0638,0.0,-4.0271,-4.0011,-3.951,-3.8807,-3.8497,-3.8397,-3.7694,-3.7402,-3.7402,0.0,0.0,0.0,0.0,0.0,0.0,-1.5345,-1.5424,-1.5491,-1.5491,-1.5536,-1.5558,-1.5558,-1.558,-1.558,-1.558,-1.5726,0.0,0.0,0.0,0.0,0.0,0.0,0.0,-1.7372,-1.7801,-1.8022,-1.8022,-1.8347,-1.8498,-1.8498,-1.8498,-1.8498,-1.8498,-1.8498,-1.8498,0.0,0.0,0.0,0.0,0.0,-1.8083,-1.8083,0.0,0.0,0.0,0.0,0.0,0.0,0.0,0.0,0.0,0.0,0.0,0.0,-2.1269,-2.185,-2.23,-2.3631,-2.4174,-2.4426,-2.4569,-2.4549,-2.4564,-2.469,-2.4731,-2.4731,-2.4731,-2.5025,-2.5294,-2.5294,-2.5448,-2.5597,-2.5597,-2.5597,0.0,0.0,0.0,0.0,-2.9169,-3.1402,-3.3289,0.0,0.0,-3.5345,-3.5305,-3.5666,-3.6019,-3.6338,-3.6678,-3.7212,-3.7882,-3.8515,-3.9026,-3.9415,-3.9879,-4.0107,-4.0027,-4.0076,-4.002,-3.9833,-3.9944,-3.9944,-3.9833,-3.9961,-3.9935,-3.9833,-3.9833,-3.9714,-3.9577,-3.9343,-3.9259,-3.9225,-3.8982,-3.8581,-3.8112,0.0,0.0,0.0,0.0,0.0,0.0,-1.521,-1.53,-1.5356,-1.5356,-1.5379,-1.5413,-1.5413,-1.5468,-1.5491,-1.5491,-1.5603,0.0,0.0,0.0,0.0,0.0,0.0,0.0,-1.6926,-1.7352,-1.7557,-1.7503,-1.7922,-1.8135,-1.8195,-1.8327,-1.8439,-1.8498,-1.8498,-1.8498,0.0,0.0,0.0,0.0,-1.7942,-1.7902,-1.7882,0.0,0.0,0.0,0.0,0.0,0.0,0.0,0.0,0.0,0.0,0.0,0.0,0.0,-2.151,-2.1934,-2.3789,-2.4302,-2.4323,-2.4467,-2.4385,-2.4323,-2.4467,-2.4487,-2.4487,-2.4487,-2.4771,-2.5064,-2.5162,-2.5352,-2.5521,-2.5597,-2.5597,-2.5875,0.0,0.0,0.0,-3.0113,0.0,0.0,0.0,-3.492,-3.4944,-3.4802,-3.5168,-3.5602,-3.6039,-3.6467,-3.7094,-3.802,-3.8629,-3.9127,-3.953,-3.9741,-3.9851,-3.9851,-3.9671,-3.9532,-3.9391,-3.9532,-3.9532,-3.9391,-3.9532,-3.9506,0.0,-3.9365,-3.9269,-3.9152,-3.9152,-3.9152,-3.9152,-3.9152,-3.8871,-3.8438,0.0,0.0,0.0,0.0,0.0,0.0,0.0,-1.5108,-1.5108,-1.5108,-1.521,-1.5289,-1.5289,-1.539,-1.5468,-1.5468,-1.5468,0.0,0.0,0.0,0.0,0.0,0.0,-1.6457,-1.6436,-1.6905,-1.7081,-1.6951,-1.7297,-1.7537,-1.7659,-1.7996,-1.8268,-1.8459,-1.8498,-1.8498,-1.8459,-1.8228,-1.8043,-1.7882,-1.7862,-1.7862,0.0,0.0,0.0,0.0,0.0,0.0,0.0,0.0,0.0,0.0,0.0,0.0,0.0,0.0,0.0,0.0,0.0,-2.4219,-2.4219,-2.4261,-2.4261,-2.4261,-2.4281,-2.4302,0.0,-2.4302,-2.4467,-2.467,-2.4946,-2.5162,-2.5371,-2.5578,-2.5646,0.0,0.0,-2.7446,0.0,0.0,-3.206,0.0,-3.3971,-3.4448,-3.4497,-3.4126,-3.473,-3.53,-3.5712,-3.6377,-3.7298,-3.8462,-3.8479,-3.8838,-3.9542,-3.9532,-3.9506,-3.9506,-3.9506,-3.9312,-3.8969,-3.9322,-3.9312,0.0,-3.9365,-3.9312,-3.8942,-3.8942,-3.8738,-3.8391,-3.8391,-3.8391,-3.8391,-3.8391,-3.8391,-3.8391,0.0,0.0,0.0,0.0,0.0,0.0,0.0,0.0,0.0,0.0,-1.5131,-1.5165,-1.5165,-1.5176,-1.5198,0.0,0.0,0.0,0.0,0.0,0.0,0.0,-1.5824,-1.5947,-1.5881,-1.6293,-1.6441,-1.6309,-1.6854,-1.7118,-1.718,-1.7679,-1.7922,-1.7982,-1.8347,-1.842,-1.8228,-1.7835,-1.7652,-1.7591,-1.7427,-1.7365,0.0,0.0,0.0,0.0,-1.7537,-1.7828,0.0,0.0,0.0,0.0,0.0,0.0,0.0,0.0,-2.0905,-2.1285,-2.3073,0.0,-2.3603,-2.3861,-2.3925,-2.3988,0.0,-2.4302,-2.4302,-2.4302,-2.4467,-2.467,-2.4946,-2.5162,-2.5371,-2.5578,-2.6069,-2.6685,-2.7381,-2.9011,0.0,-3.185,-3.2498,-3.3161,-3.402,-3.4201,-3.4201,-3.4101,-3.4259,-3.4879,-3.6094,-3.6322,-3.7026,-3.8389,-3.8422,-3.8652,-3.9142,-3.8832,-3.8683,-3.8683,-3.8683,-3.8628,-3.856,-3.8628,-3.8628,-3.856,-3.8655,-3.8628,-3.856,-3.856,-3.8476,-3.8391,-3.8391,-3.8391,-3.8391,-3.8391,-3.8391,-3.8391,0.0,0.0,0.0,0.0,0.0,0.0,0.0,0.0,0.0,0.0,-1.5108,-1.5108,-1.5108,-1.5108,-1.5108,0.0,0.0,0.0,0.0,0.0,0.0,-1.5413,-1.5558,-1.5659,-1.5614,-1.5812,-1.5866,-1.5734,-1.6216,-1.6505,-1.66,-1.7076,-1.738,-1.7537,-1.774,-1.776,-1.7639,-1.738,-1.731,-1.7352,-1.724,0.0,0.0,0.0,0.0,0.0,-1.7393,-1.7591,0.0,-1.8616,-1.8948,-1.9173,0.0,0.0,0.0,0.0,-2.1076,-2.1319,-2.2486,-2.3038,-2.3385,-2.3732,-2.3797,-2.3903,-2.4219,-2.4302,-2.4302,-2.4302,-2.4385,-2.4528,-2.4786,-2.5005,-2.5236,-2.5429,-2.6157,0.0,0.0,0.0,-3.1163,-3.1915,-3.2643,-3.3356,0.0,-3.4101,-3.4101,-3.4101,-3.4101,-3.4748,-3.6222,-3.6303,-3.695,-3.8359,-3.8391,-3.8504,-3.8711,-3.8504,-3.8391,-3.8391,-3.8391,-3.8391,-3.8391,-3.8391,-3.8391,-3.8391,-3.8391,-3.8391,-3.8391,-3.8391,-3.8391,-3.8391,-3.8391,-3.8391,-3.8391,-3.8391,-3.8391,-3.8391,0.0,0.0,0.0,0.0,0.0,0.0,0.0,0.0,0.0,0.0,0.0,0.0,0.0,0.0,0.0,0.0,0.0,0.0,0.0,0.0,-1.5267,-1.5267,-1.5413,-1.5491,-1.5468,-1.5468,-1.5401,-1.5267,-1.557,-1.5812,-1.5996,-1.6398,-1.6795,-1.7123,-1.7047,-1.6993,-1.6993,-1.7013,-1.7089,-1.7199,-1.7199,0.0,0.0,0.0,0.0,0.0,0.0,0.0,0.0,-1.8221,-1.8846,-1.9511,-1.9647,0.0,0.0,0.0,0.0,0.0,-2.1969,-2.2655,-2.3282,-2.3646,-2.3717,-2.3824,-2.4198,0.0,0.0,-2.4281,-2.4302,-2.4364,-2.4569,-2.4786,0.0,0.0,0.0,0.0,-2.8919,-3.0247,-3.1341,-3.2093,-3.2805,0.0,-3.4036,-3.4101,-3.4101,-3.4101,-3.4101,-3.4748,-3.6222,-3.6303,-3.695,-3.8359,-3.8391,-3.8391,-3.8391,-3.8391,-3.8391,-3.8391,-3.8391,-3.8391,-3.8391,-3.8391,-3.8391,-3.8391,0.0,0.0,-3.8391,-3.8391,-3.8391,-3.8391,-3.8391,-3.8391,-3.8391,-3.8391,-3.8391,-3.8391,0.0,0.0,0.0,0.0,0.0,0.0,0.0,0.0,0.0,0.0,0.0,0.0,0.0,0.0,0.0,0.0,0.0,0.0,0.0,-1.5108,-1.5131,-1.5131,-1.5379,-1.5446,-1.5335,-1.5335,-1.5255,-1.5131,-1.5312,-1.539,-1.5435,-1.5964,-1.6437,-1.6862,-1.6959,-1.6993,-1.7013,-1.7123,-1.7178,-1.7199,-1.7199,0.0,0.0,0.0,0.0,0.0,0.0,0.0,0.0,-1.7581,-1.8261,-1.8922,-1.8382,0.0,0.0,0.0,0.0,0.0,-2.1712,-2.2319,-2.2889,-2.3282,-2.3385,-2.3538,-2.4156,-2.4094,-2.3967,0.0,0.0,0.0,0.0,-2.463,-2.4934,0.0,0.0,-2.8699,0.0,0.0,-3.2109,-3.2838,0.0,-3.3987,-3.4084,-3.4101,-3.4101,-3.4101,-3.4101,-3.4748,-3.6222,-3.6303,-3.695,-3.8359,-3.8391,-3.8391,-3.8391,-3.8391,-3.8391,-3.8391,-3.8391,-3.8391,-3.8391,-3.8391,-3.8391,-3.8391,0.0,-3.8391,-3.8391,-3.8391,-3.8391,-3.8391,-3.8391,-3.8391,-3.8391,-3.8391,-3.8391,-3.8391,0.0,0.0,0.0,0.0,0.0,0.0,0.0,0.0,0.0,0.0,0.0,0.0,0.0,0.0,0.0,0.0,0.0,0.0,-1.5108,-1.5108,-1.5108,-1.5108,-1.5221,-1.5266,-1.5187,-1.5187,-1.5165,-1.5108,-1.5165,-1.5233,-1.5312,-1.5635,-1.5854,-1.5986,-1.6064,-1.6151,-1.6247,-1.6303,-1.6466,-1.6663,0.0,0.0,0.0,0.0,0.0,0.0,0.0,0.0,0.0,0.0,-1.7847,-1.8494,-1.8612,0.0,0.0,0.0,0.0,0.0,-2.151,-2.2016,-2.2581,-2.2979,-2.3326,-2.3711,-2.4198,-2.4177,-2.4114,0.0,0.0,0.0,0.0,0.0,-2.5655,-2.7068,0.0,-2.8998,-3.0648,-3.1519,-3.2271,0.0,0.0,-3.4101,-3.4101,-3.4101,-3.4101,-3.4101,-3.4101,-3.457,-3.5639,-3.6076,-3.6772,-3.7776,-3.8197,-3.8391,-3.8391,-3.8391,-3.8391,-3.8391,-3.8391,-3.8391,-3.8391,-3.8391,-3.8391,-3.8391,0.0,-3.8391,-3.8391,-3.8391,-3.8391,-3.8391,-3.8391,-3.8391,-3.8391,-3.8391,-3.8391,-3.8391,0.0,0.0,0.0,0.0,0.0,0.0,0.0,0.0,0.0,0.0,0.0,0.0,0.0,0.0,0.0,0.0,0.0,-1.5108,-1.5108,-1.5108,-1.5108,-1.5108,-1.5108,-1.5108,-1.5108,-1.5108,-1.5108,-1.5108,-1.5108,-1.5153,-1.5267,-1.5356,-1.5345,-1.5267,-1.5345,-1.5525,-1.5758,-1.5822,-1.6076,-1.6426,0.0,0.0,0.0,0.0,0.0,0.0,0.0,0.0,0.0,0.0,0.0,0.0,0.0,0.0,0.0,-2.0885,-2.117,-2.1302,-2.1302,-2.1756,-2.2328,-2.2672,-2.3224,-2.3797,-2.4198,-2.424,-2.4198,0.0,0.0,0.0,0.0,-2.5385,0.0,-2.7999,-2.851,-2.9246,-3.0762,-3.1573,-3.2345,-3.3144,-3.3677,-3.4025,-3.4101,-3.4101,-3.4101,-3.4101,-3.4101,-3.4408,-3.5163,-3.5736,-3.6367,-3.7036,-3.7776,-3.8149,-3.8149,-3.8311,-3.8391,-3.8391,-3.8391,-3.8391,-3.8391,-3.8391,-3.8391,-3.8391,-3.8391,-3.8391,-3.8391,-3.8391,-3.8391,-3.8391,-3.8391,-3.8391,-3.8391,-3.8391,-3.8391,-3.8391,0.0,0.0,0.0,0.0,0.0,0.0,0.0,0.0,0.0,0.0,0.0,0.0,0.0,0.0,0.0,0.0,-1.5108,-1.5108,-1.5108,-1.5108,-1.5108,-1.5108,-1.5108,-1.5108,-1.5108,-1.5108,-1.5108,-1.5108,-1.5108,-1.5108,-1.5108,-1.5131,-1.5131,-1.5131,-1.5434,-1.578,-1.6178,-1.6488,-1.6829,-1.7136,-1.7136,0.0,0.0,0.0,0.0,0.0,0.0,0.0,0.0,0.0,0.0,0.0,0.0,0.0,-2.0566,-2.0057,-2.045,-2.1033,-2.1033,-2.1506,-2.2077,-2.2282,-2.2844,-2.3516,-2.4156,-2.4051,-2.3909,-2.424,0.0,0.0,0.0,-2.6349,-2.7388,-2.7703,-2.8857,-3.004,-3.1033,0.0,-3.2568,-3.355,-3.3704,-3.3822,-3.4075,-3.4101,-3.4101,-3.4101,-3.4101,-3.4408,-3.5163,-3.526,-3.5606,-3.6351,-3.702,-3.7376,-3.7376,-3.8068,-3.8391,-3.8391,-3.8391,-3.8391,-3.8391,-3.8391,-3.8391,-3.8391,-3.8391,-3.8391,-3.8391,-3.8391,-3.8391,-3.8391,-3.8391,-3.8391,-3.8391,-3.8391,-3.8391,-3.8391,0.0,0.0,0.0,0.0,0.0,0.0,0.0,0.0,0.0,0.0,0.0,-1.5108,-1.5108,0.0,0.0,0.0,-1.5108,-1.5108,-1.5108,-1.5108,-1.5108,-1.5108,-1.5108,-1.5108,-1.5108,-1.5108,-1.5108,-1.5108,-1.5108,-1.5108,-1.5108,-1.5108,-1.5221,-1.5412,-1.5546,-1.5824,-1.6222,-1.634,-1.6457,-1.6543,-1.6315,-1.6272,0.0,0.0,0.0,0.0,0.0,0.0,0.0,0.0,-1.8545,-1.8937,-1.9107,-1.9603,-2.0177,-2.0321,-2.0591,-2.0799,-2.0799,-2.1399,-2.202,-2.2086,-2.2709,0.0,0.0,-2.3903,-2.4009,-2.4756,-2.4912,0.0,0.0,0.0,-2.7767,-2.8841,-2.9441,-3.0273,-3.1621,-3.2025,-3.2503,-3.3345,-3.345,-3.3503,-3.3607,-3.3745,-3.3848,-3.3848,-3.4,-3.4214,-3.4489,-3.4952,-3.5341,-3.5606,-3.6319,-3.6886,-3.7295,-3.757,-3.7954,-3.8391,-3.8391,-3.8391,-3.8391,-3.8391,-3.8391,-3.8391,-3.8391,-3.8391,-3.8391,-3.8391,-3.8391,-3.8391,-3.8391,-3.8391,-3.8391,-3.8391,-3.8391,-3.8391,0.0,0.0,0.0,0.0,0.0,0.0,0.0,0.0,-1.5108,0.0,0.0,0.0,0.0,-1.5108,0.0,0.0,-1.5108,-1.5108,-1.5108,-1.5108,-1.5108,-1.5108,-1.5108,-1.5108,-1.5108,-1.5108,-1.5108,-1.5108,-1.5108,-1.5108,-1.5108,-1.5221,-1.5367,-1.5591,-1.5591,-1.5879,-1.6362,-1.6438,-1.66,-1.6789,-1.6673,-1.6814,0.0,0.0,0.0,0.0,0.0,0.0,0.0,0.0,-1.9028,-1.9264,-1.9682,-1.993,-2.0177,-2.0594,-2.0799,-2.0898,-2.0823,-2.1302,-2.1864,-2.2053,0.0,0.0,-2.3653,-2.3797,-2.4085,-2.5078,-2.565,-2.6272,-2.7211,0.0,0.0,0.0,-3.0018,-3.0699,-3.18,-3.2139,-3.2494,-3.3087,-3.3176,-3.3203,-3.3309,-3.3477,-3.3607,-3.3694,-3.3873,-3.4,-3.4101,-3.457,-3.4845,-3.4845,-3.5558,-3.6173,-3.6643,-3.7096,-3.7538,-3.8068,-3.8294,-3.8391,-3.8391,-3.8391,-3.8391,-3.8391,-3.8391,-3.8391,-3.8391,-3.8391,-3.8391,-3.8391,-3.8391,-3.8391,-3.8391,-3.8391,-3.8391,-3.8363,0.0,0.0,0.0,0.0,0.0,0.0,0.0,0.0,-1.5108,-1.5108,-1.5108,0.0,0.0,0.0,0.0,0.0,-1.5108,-1.5108,-1.5108,-1.5108,-1.5108,-1.5108,-1.5108,-1.5108,-1.5108,-1.5108,-1.5108,-1.5108,-1.5108,-1.5108,-1.5108,-1.5434,-1.5591,-1.5613,-1.5613,-1.6032,-1.6718,-1.6943,-1.744,-1.8153,-1.8666,-1.8888,-1.8911,0.0,0.0,0.0,0.0,0.0,0.0,0.0,-1.9316,-1.9812,-1.9812,-2.0229,-2.0699,-2.0699,-2.1033,-2.135,-2.1057,-2.1204,-2.1554,-2.2128,-2.2156,0.0,-2.3523,-2.3797,-2.41,-2.5109,-2.6441,-2.7411,-2.7411,-2.8504,0.0,-2.9427,-3.0535,-3.1409,-3.1424,-3.1967,-3.2523,-3.287,-3.2897,-3.3005,-3.3282,-3.3309,-3.3398,-3.3684,-3.3694,-3.3822,-3.4101,-3.4101,-3.4101,-3.4101,-3.4797,-3.5195,-3.5211,-3.6594,-3.7279,-3.7295,-3.8051,-3.8391,-3.8391,-3.8391,-3.8391,-3.8391,-3.8391,-3.8391,-3.8391,-3.8391,-3.8391,-3.8391,-3.8391,-3.8408,-3.8391,-3.8391,-3.8391,-3.8335,0.0,0.0,0.0,0.0,0.0,0.0,0.0,0.0,-1.5108,-1.5108,-1.5108,0.0,0.0,0.0,0.0,0.0,0.0,0.0,-1.5108,-1.5108,-1.5108,-1.5108,-1.5108,-1.5108,-1.5108,-1.5108,-1.5221,-1.5457,-1.5457,-1.5457,-1.5457,-1.5546,-1.5758,-1.6047,-1.6422,-1.6998,-1.7678,-1.786,-1.8203,-1.863,-1.8268,-1.8448,-1.8865,0.0,0.0,0.0,0.0,0.0,0.0,0.0,0.0,0.0,-2.0425,-2.0543,-2.0699,-2.0699,-2.0799,-2.0898,-2.0799,-2.1482,-2.2095,-2.1756,-2.2466,-2.3304,0.0,-2.4006,0.0,0.0,-2.7488,-2.8258,-2.8735,-2.9125,0.0,-3.0643,-3.1136,-3.1551,-3.2028,-3.2259,-3.2425,-3.2551,-3.2551,-3.2578,-3.266,-3.2866,-3.3123,-3.3398,-3.3607,-3.3822,-3.4101,-3.3924,-3.3822,-3.3822,-3.4031,-3.4384,-3.4924,-3.5528,-3.6076,-3.661,-3.7307,-3.7906,-3.8391,-3.8391,-3.8391,-3.8391,-3.8391,-3.8391,-3.8391,-3.8391,-3.8391,-3.8363,-3.8132,-3.8046,-3.8017,-3.777,-3.7698,-3.7682,0.0,0.0,0.0,0.0,0.0,0.0,-1.5108,-1.5108,-1.5108,-1.5108,-1.5108,-1.5108,0.0,0.0,0.0,0.0,0.0,0.0,-1.5108,-1.5108,-1.5108,-1.5108,-1.5108,-1.5108,-1.5108,-1.5108,-1.5255,-1.5591,-1.5457,-1.5507,-1.574,-1.6012,-1.6313,-1.6623,-1.7113,-1.7641,-1.8183,-1.8336,-1.8648,-1.9018,-1.8962,-1.9124,-1.9339,0.0,0.0,0.0,0.0,0.0,0.0,0.0,0.0,0.0,-2.0699,-2.0699,-2.0699,-2.0699,-2.0823,-2.0947,-2.0848,-2.1434,-2.2049,-2.2016,-2.2603,-2.3423,-2.4261,0.0,0.0,0.0,-2.7934,-2.8611,-2.9289,-2.9602,0.0,-3.1239,-3.1613,-3.1921,-3.2336,-3.2398,-3.2398,-3.2398,-3.2398,-3.2398,-3.2398,-3.2578,-3.2812,-3.3123,-3.3309,-3.3503,-3.3771,-3.3633,-3.3555,-3.3555,-3.3555,-3.3746,-3.4192,-3.4632,-3.5133,-3.5706,-3.6383,-3.7148,-3.7987,-3.8262,-3.8391,-3.8391,-3.8391,-3.8391,-3.8391,-3.8391,-3.8391,-3.8363,-3.8046,-3.7915,-3.7857,-3.7535,-3.7417,-3.7387,0.0,0.0,-1.5108,-1.5108,0.0,0.0,-1.5108,-1.5108,-1.5108,-1.5108,-1.5108,-1.5108,0.0,0.0,0.0,-1.5108,0.0,0.0,-1.5108,-1.5108,-1.5108,-1.5108,-1.5108,-1.5108,-1.5108,-1.5108,-1.5255,-1.5629,-1.5392,-1.5487,-1.5972,-1.6724,-1.7155,-1.7265,-1.7642,-1.8051,-1.8456,-1.8623,-1.8933,-1.9405,-2.0291,-2.041,-2.0105,-2.0549,0.0,0.0,0.0,0.0,0.0,0.0,0.0,0.0,-2.0699,-2.0699,-2.0699,-2.0699,-2.0997,-2.1277,-2.1033,-2.1229,-2.1684,-2.2595,-2.2646,-2.3144,-2.5614,-2.632,-2.6672,-2.7349,0.0,-2.8704,-2.9381,-3.0033,-3.072,-3.1366,-3.1982,-3.2398,-3.2398,-3.2398,-3.2398,-3.2398,-3.2398,-3.2398,-3.2398,-3.2398,-3.2551,-3.287,-3.2897,-3.3032,-3.3282,-3.3282,-3.324,-3.324,-3.324,-3.324,-3.324,-3.3893,-3.4371,-3.4686,-3.5358,-3.6123,-3.7062,-3.791,-3.8343,-3.8391,-3.8391,-3.8391,-3.8391,-3.8363,-3.8335,-3.825,-3.7902,-3.7725,-3.7637,-3.7312,-3.7163,-3.7133,0.0,0.0,-1.5108,-1.5108,0.0,0.0,-1.5108,-1.5108,-1.5108,-1.5108,-1.5108,-1.5108,-1.5108,-1.5108,0.0,-1.5108,-1.5108,0.0,-1.5108,-1.5108,-1.5108,-1.5108,-1.5108,-1.5108,-1.5108,-1.5108,-1.5338,-1.5834,-1.6346,-1.6486,-1.6315,-1.7205,-1.764,-1.769,-1.7857,-1.8512,-1.9475,-1.9308,-1.9673,-2.0355,-2.0219,-2.0321,-2.0574,-2.0649,-2.0699,0.0,0.0,0.0,0.0,0.0,0.0,0.0,-2.0699,-2.0699,-2.0699,-2.0699,-2.0774,-2.0848,-2.0774,-2.142,-2.2095,-2.2053,-2.2991,-2.4325,-2.572,-2.6558,-2.7233,-2.8018,-2.8719,-2.9371,-3.0063,-3.0735,-3.1397,-3.2074,-3.2305,-3.2398,-3.2398,-3.2398,-3.2398,-3.2398,-3.2398,-3.2398,-3.2398,-3.2398,-3.2551,-3.287,-3.2897,-3.3032,-3.3282,-3.3096,-3.2978,-3.2978,-3.2978,-3.2978,-3.2978,-3.3345,-3.3541,-3.3636,-3.4302,-3.4741,-3.4997,-3.6731,-3.7857,-3.8391,-3.8391,-3.8391,-3.8363,-3.8103,-3.7754,-3.7326,-3.6769,-3.6321,-3.5897,-3.5546,-3.5449,-3.5417,0.0,0.0,0.0,0.0,0.0,0.0,0.0,0.0,-1.5108,-1.5108,-1.5108,-1.5108,-1.5108,-1.5108,0.0,0.0,-1.5108,-1.5108,-1.5108,-1.5108,-1.5108,-1.5108,-1.5108,-1.5108,-1.5108,-1.536,-1.5624,-1.5911,-1.6943,-1.7279,-1.6899,-1.7763,-1.8091,-1.7952,-1.8446,-1.9016,-1.9598,-1.9453,-1.9772,-2.0346,-2.0346,-2.0346,-2.0397,-2.0624,-2.0699,-2.0699,-2.0699,0.0,0.0,0.0,0.0,0.0,0.0,0.0,-2.0699,-2.0699,-2.0699,-2.0699,-2.0699,-2.1106,-2.1612,-2.1874,-2.3297,-2.4779,-2.5354,-2.6294,-2.72,-2.776,-2.8696,-2.9587,-3.0279,-3.0951,-3.1613,-3.2275,-3.2398,-3.2398,-3.2398,-3.2398,-3.2398,-3.2398,-3.2398,-3.2398,-3.2398,-3.2398,-3.2453,-3.2648,-3.2648,-3.273,-3.285,-3.273,-3.2648,-3.2648,-3.2648,-3.2648,-3.2648,-3.2796,-3.2947,-3.3112,-3.3457,-3.3853,-3.4363,-3.6079,-3.7239,-3.7878,-3.7758,-3.7857,-3.8103,-3.7637,-3.7191,-3.6814,-3.6368,-3.5864,-3.5367,-3.5008,-3.4909,-3.4909,0.0,0.0,0.0,0.0,0.0,0.0,0.0,0.0,0.0,-1.5108,-1.5108,-1.5108,-1.5108,-1.5108,-1.5108,0.0,0.0,0.0,-1.5108,-1.5108,-1.5108,-1.5108,-1.5188,-1.5246,-1.5246,-1.5762,-1.6096,-1.6249,-1.7361,-1.7819,-1.7665,-1.8313,-1.8542,-1.8452,-1.9052,-1.942,-1.9629,-1.9539,-1.9734,-2.0156,-2.0536,-2.046,-2.0156,-2.0549,-2.0699,-2.0699,-2.0699,-2.0699,-2.0699,-2.0699,0.0,0.0,0.0,0.0,-2.0699,-2.0699,-2.0699,-2.0699,-2.0699,-2.0749,-2.1033,-2.1884,-2.3431,-2.4766,-2.4878,-2.5929,-2.6979,-2.7261,-2.8505,-2.97,-3.0294,-3.1043,-3.1736,-3.2305,-3.2398,-3.2398,-3.2398,-3.2398,-3.2398,-3.2398,-3.2398,-3.2398,-3.2398,-3.2398,-3.2398,-3.2398,-3.2398,-3.2398,-3.2398,-3.2398,-3.2398,-3.2398,-3.2398,-3.2398,-3.2398,-3.2398,-3.2551,-3.2816,-3.2816,-3.3259,-3.4081,-3.5313,-3.628,-3.6974,-3.6766,-3.7067,-3.7621,-3.692,-3.6538,-3.6368,-3.5976,-3.5512,-3.5008,-3.4725,-3.4624,-3.4624,0.0,0.0,0.0,0.0,0.0,0.0,0.0,0.0,0.0,0.0,-1.5108,-1.5108,-1.5108,-1.5108,-1.5108,-1.5108,-1.5108,-1.5108,-1.5108,0.0,0.0,-1.5108,-1.5556,-1.5797,-1.5797,-1.6254,-1.6913,-1.7725,-1.7559,-1.7862,-1.8611,-1.8717,-1.9125,-1.9708,-1.9146,-1.9499,-2.0498,-2.0093,-2.0195,-2.0624,-2.0674,-2.0649,-2.0624,-2.0687,-2.0699,-2.0699,-2.0699,-2.0699,-2.0699,-2.0699,-2.0699,0.0,0.0,0.0,-2.0699,-2.0699,-2.0699,-2.0699,-2.0699,-2.0997,-2.1434,-2.1978,-2.3132,-2.4262,0.0,0.0,-2.6993,0.0,-2.8822,-3.0175,-3.0345,-3.1428,-3.229,-3.2382,-3.2398,-3.2398,-3.2398,-3.2398,-3.2398,-3.2398,-3.2398,-3.2398,-3.2398,-3.2398,-3.2398,-3.2398,-3.2398,-3.2398,-3.2398,-3.2398,-3.2398,-3.2398,-3.2398,-3.2398,-3.2398,-3.2398,-3.2425,-3.2453,-3.2453,-3.2679,-3.3107,-3.3591,-3.4552,-3.5845,-3.579,-3.6148,-3.6707,-3.5914,-3.5578,-3.5482,-3.4695,-3.4051,-3.3577,-3.3521,-3.3521,-3.3521,0.0,0.0,0.0,0.0,0.0,0.0,0.0,0.0,0.0,0.0,0.0,-1.5108,-1.5108,-1.5108,-1.5234,-1.5533,-1.5556,-1.5647,-1.5911,-1.5933,-1.5933,-1.5933,-1.6176,-1.629,-1.6289,-1.6795,-1.7254,-1.7643,-1.7736,-1.8257,-1.9131,-1.8905,-1.8999,-1.9317,-1.9422,-1.9773,-2.0296,-2.0105,-2.0271,-2.0699,-2.0699,-2.0699,-2.0699,-2.0699,-2.0699,-2.0699,-2.0699,-2.0699,-2.0699,-2.0699,-2.0699,-2.0699,-2.0699,0.0,0.0,0.0,-2.0699,-2.0699,-2.0699,-2.1033,-2.1434,-2.166,-2.2617,-2.3577,-2.3833,-2.4913,-2.5906,-2.6122,-2.7405,-2.8803,-2.9864,-3.1125,-3.2092,-3.237,-3.2176,-3.2007,-3.2007,-3.2007,-3.2007,-3.2007,-3.2007,-3.212,-3.2355,-3.2398,-3.2398,-3.2398,-3.2398,-3.2398,-3.2398,-3.2398,-3.2398,-3.2398,-3.2398,-3.2398,-3.2398,-3.2398,-3.2398,-3.2398,-3.2398,-3.248,-3.2621,-3.2761,-3.3437,-3.4492,-3.4714,-3.5016,-3.5321,-3.499,-3.4758,-3.4629,-3.424,-3.3756,-3.329,-3.329,-3.329,-3.329,0.0,0.0,0.0,0.0,0.0,0.0,0.0,0.0,0.0,0.0,0.0,-1.5405,-1.5475,0.0,0.0,0.0,-1.6084,-1.622,-1.6575,-1.6598,-1.6598,-1.6598,-1.6724,-1.6793,-1.6793,-1.7312,-1.7682,-1.7906,-1.817,-1.8721,-1.9539,-1.9251,-1.9093,-1.9119,-1.9721,-2.0067,-2.0182,-2.0182,-2.0372,-2.0699,-2.0699,-2.0699,-2.0699,-2.0699,-2.0699,-2.0699,-2.0699,-2.0699,-2.0699,-2.0699,-2.0699,-2.0699,-2.0699,-2.0699,0.0,0.0,0.0,-2.0699,-2.0699,-2.0972,-2.1229,-2.1229,-2.2091,-2.295,0.0,0.0,-2.5048,0.0,-2.6246,-2.7493,-2.8756,-3.0119,-3.127,-3.1918,-3.168,-3.1495,-3.1796,-3.1768,-3.1724,-3.1866,-3.1866,-3.2007,-3.237,-3.2398,-3.2398,-3.2398,-3.2398,-3.2398,-3.2398,-3.2398,-3.2398,-3.2398,-3.2398,-3.2398,-3.2398,-3.2398,-3.2398,-3.2398,-3.2398,-3.2342,-3.2231,-3.2231,-3.242,-3.2795,-3.3363,-3.3862,-3.4269,-3.4016,-3.3969,-3.4085,-3.3948,-3.3632,-3.329,-3.329,-3.329,-3.329,0.0,0.0,0.0,0.0,0.0,0.0,0.0,0.0,0.0,0.0,0.0,-1.6255,-1.6493,-1.6518,-1.653,-1.6552,-1.6564,-1.6575,-1.6598,-1.6598,-1.6598,-1.6598,-1.7082,0.0,-1.7361,-1.7813,-1.8471,-1.9293,-1.8934,-1.9172,-1.9965,-1.994,-1.994,-1.994,-1.9965,-2.0232,-2.0649,-2.0649,-2.0687,-2.0699,-2.0699,-2.0699,-2.0699,-2.0699,-2.0699,-2.0699,-2.0699,-2.0699,-2.0699,-2.0699,-2.0699,-2.0699,-2.0699,-2.0699,-2.0699,0.0,0.0,0.0,-2.0699,-2.0724,-2.0724,-2.0724,-2.159,-2.2564,0.0,0.0,-2.5076,-2.5328,-2.6301,-2.7031,-2.6807,-2.811,-2.9638,-3.0866,-3.0778,-3.094,-3.2007,-3.191,-3.1881,-3.2315,-3.237,-3.2355,-3.2398,-3.2398,-3.2398,-3.2398,-3.2398,-3.2398,-3.2398,-3.2398,-3.2398,-3.2398,-3.2398,-3.2398,-3.2398,-3.2398,-3.2398,-3.2398,-3.2398,-3.2176,-3.1739,-3.1739,-3.1278,-3.055,-3.1583,-3.2752,-3.3853,-3.292,-3.3141,-3.4051,-3.3542,-3.3312,-3.329,-3.329,-3.329,-3.329,0.0,0.0,0.0,0.0,0.0,0.0,0.0,0.0,0.0,0.0,0.0,0.0,0.0,-1.6459,-1.6559,-1.7082,-1.7378,-1.7573,-1.7573,-1.7573,-1.7573,-1.7573,-1.7745,-1.7848,-1.7848,-1.8317,-1.8706,-1.8999,-1.9143,-1.9448,-1.9991,-1.9991,-2.0156,-2.046,-2.046,-2.0536,-2.0699,-2.0699,-2.0896,-2.1172,-2.0831,-2.0909,-2.1184,-2.0818,-2.0909,-2.1198,-2.1198,-2.1459,-2.1786,-2.1786,-2.1786,-2.1707,-2.1328,-2.1198,-2.1158,-2.0792,-2.0699,-2.0699,-2.0699,0.0,0.0,-2.0699,-2.1276,-2.1957,-2.2551,-2.3281,-2.397,-2.4469,-2.4882,-2.5253,-2.5512,-2.726,-2.8917,-2.9666,-2.9754,-2.9948,-3.0584,-3.0569,-3.0614,-3.1014,-3.1058,-3.116,-3.148,-3.1508,-3.1638,-3.1923,-3.1951,-3.2092,-3.2398,-3.2398,-3.2398,-3.2398,-3.2398,-3.2398,-3.2398,-3.2398,-3.2398,-3.2398,-3.2092,-3.1866,-3.171,-3.1379,-3.1058,-3.0747,-3.083,-3.144,-3.2372,-3.2399,-3.2853,-3.3577,-3.3382,-3.329,-3.329,-3.329,-3.329,-3.329,0.0,0.0,0.0,0.0,0.0,-1.6473,-1.6373,-1.6559,-1.6723,-1.6723,0.0,0.0,0.0,0.0,-1.7058,-1.7573,-1.7917,-1.8084,-1.8084,-1.8084,-1.8084,-1.8084,-1.8084,-1.8084,-1.8084,-1.8422,-1.8718,-1.9011,-1.9263,-1.9694,-2.0232,-2.0232,-2.0397,-2.0712,-2.0883,-2.0975,-2.0975,-2.0975,-2.1302,-2.176,-2.1407,-2.1485,-2.1773,-2.1407,-2.1485,-2.1799,-2.1799,-2.206,-2.24,-2.2401,-2.2401,-2.2322,-2.1917,-2.1799,-2.1721,-2.138,-2.1263,-2.1236,-2.1014,0.0,0.0,-2.0726,-2.1106,-2.1668,-2.2257,-2.2805,-2.3365,-2.3995,-2.4083,-2.423,-2.4609,-2.6089,-2.7635,-2.879,-2.8773,-2.8966,-2.9981,-2.9839,-2.9808,-3.0297,-3.0372,-3.0509,-3.097,-3.0999,-3.1146,-3.1437,-3.1466,0.0,-3.2148,-3.2176,-3.2231,-3.2398,-3.2398,-3.2398,-3.2398,-3.2259,-3.2176,-3.2148,-3.1695,-3.1379,-3.1234,-3.0911,-3.0673,-3.0523,-3.019,-3.0557,-3.1433,-3.1903,-3.2455,-3.3031,-3.3206,-3.329,-3.329,-3.329,-3.329,-3.329,0.0,0.0,-1.5924,-1.5961,-1.6165,-1.6266,-1.5986,-1.6528,-1.6961,-1.7036,0.0,0.0,0.0,0.0,0.0,-1.8084,-1.8084,-1.8084,-1.8084,-1.8084,-1.8084,-1.8084,-1.8084,-1.8084,-1.8084,-1.8084,-1.8545,-1.9394,-1.942,-1.9862,-2.0699,-2.0725,-2.0725,-2.0751,-2.1276,-2.1551,-2.1564,-2.1525,-2.1864,-2.2414,-2.2401,-2.2414,-2.2426,-2.2414,-2.2401,-2.2414,-2.2414,-2.244,-2.2452,-2.2453,-2.244,-2.244,-2.2427,-2.2401,-2.2388,-2.24,-2.2414,-2.227,0.0,0.0,0.0,-2.087,-2.1145,-2.1681,-2.2283,-2.2818,-2.3365,-2.3995,-2.4083,-2.4083,-2.4083,-2.457,-2.5775,-2.823,-2.781,-2.797,-3.0349,-2.9844,-2.9518,-3.033,-3.0419,-3.0584,-3.0896,-3.094,-3.097,-3.097,-3.097,-3.1175,-3.1638,-3.1682,-3.1894,-3.2342,-3.237,-3.237,-3.237,-3.1894,-3.1682,-3.1667,-3.1204,-3.0732,-3.0282,-3.0296,-3.0021,-2.9602,-2.9602,-3.0191,-3.1151,-3.1401,-3.185,-3.2469,-3.3073,-3.329,-3.329,-3.329,-3.329,-3.329,0.0,-1.6196,-1.6517,-1.7106,-1.727,-1.7351,-1.7485,-1.7652,-1.7759,0.0,0.0,0.0,-1.8057,-1.8084,-1.8084,-1.8084,-1.8084,-1.8084,-1.8084,-1.8084,-1.8084,-1.8084,-1.7893,-1.7904,-1.8084,-1.8209,-1.8602,-1.9394,-1.9682,-2.0118,-2.0712,-2.1106,-2.1276,-2.1302,-2.1891,-2.2361,-2.2686,-2.2335,-2.2479,-2.2936,-2.2558,-2.2637,-2.2949,-2.2545,-2.265,-2.2975,-2.2975,-2.3263,-2.3642,0.0,-2.3629,-2.355,-2.3119,-2.2715,-2.2388,-2.24,-2.24,-2.2361,-2.2205,0.0,0.0,0.0,0.0,0.0,-2.2858,-2.3106,-2.3365,-2.3995,-2.4083,-2.4083,-2.4083,-2.4243,-2.4879,-2.6489,-2.6438,-2.6507,-2.7414,-2.7686,-2.7958,-2.8412,-2.8858,-2.9261,-2.9574,-2.962,-2.9853,0.0,-3.0493,-3.0703,-3.1175,-3.1204,-3.1248,-3.1393,-3.1393,-3.1393,-3.1393,-3.1263,-3.1204,-3.1175,-3.0732,-3.0433,-3.0282,-2.996,-2.9727,-2.9602,-2.9602,-2.9763,-3.0128,-3.1101,-3.185,-3.2469,-3.3073,-3.329,-3.329,-3.329,-3.329,-3.329,-1.6476,-1.6683,-1.6945,-1.7396,-1.7479,-1.759,-1.7904,-1.7931,-1.7986,0.0,0.0,0.0,-1.8742,-1.895,-1.9051,-1.9051,-1.9234,-1.9345,-1.9345,-1.9345,-1.9345,-1.9345,-1.8995,-1.8862,-1.9014,-1.8854,-1.9175,-2.0017,-2.0254,-2.072,-2.1433,-2.1721,-2.1877,-2.189,-2.2465,-2.2897,-2.3182,-2.3145,-2.3274,-2.3563,-2.3223,-2.3302,-2.355,-2.3223,-2.3302,-2.3561,-2.3561,-2.3796,-2.4083,-2.4083,-2.4083,0.0,-2.3678,-2.3367,-2.3093,-2.3119,-2.3119,0.0,0.0,0.0,0.0,-2.2452,0.0,0.0,-2.3093,-2.3182,-2.3365,-2.3995,-2.4083,-2.4083,-2.4083,-2.4083,-2.4334,-2.5103,-2.5153,-2.5415,-2.6354,-2.6587,-2.6751,-2.7081,-2.7436,-2.7778,-2.8167,-2.8278,-2.8541,-2.9013,-2.9419,-2.9948,-3.0658,-3.0881,-3.0999,-3.0999,-3.0999,-3.0999,-3.0999,-3.0822,-3.0703,-3.0703,-3.0235,-3.0021,-2.9991,-2.9727,-2.9602,-2.9602,-2.9602,-2.9602,-2.9701,-3.0965,-3.171,-3.2117,-3.2988,-3.329,-3.329,-3.329,-3.329,-3.329,0.0,-1.7145,-1.7172,-1.719,-1.7233,-1.7417,-1.779,-1.7835,-1.7952,0.0,-1.8701,-1.916,-1.9643,-2.0077,-2.0338,-2.0338,-2.0689,-2.0974,-2.1031,-2.0974,-2.099,-2.1103,-2.0563,-2.0305,-2.0387,-1.9838,-2.0012,-2.0982,-2.0955,-2.1451,-2.2388,-2.2452,-2.2479,-2.2506,-2.3054,-2.3287,-2.3354,-2.3861,-2.4083,-2.4083,-2.4083,-2.4083,-2.4083,-2.4083,-2.4083,-2.4083,-2.4083,-2.4083,-2.4083,-2.4083,-2.4083,0.0,-2.4083,-2.4083,-2.4083,0.0,-2.4083,0.0,0.0,0.0,0.0,-2.2702,-2.2583,0.0,-2.3182,-2.3287,-2.3443,-2.3979,-2.4083,-2.4083,-2.4083,-2.4083,-2.4083,-2.4083,-2.4083,-2.4659,-2.6269,-2.6056,-2.5813,-2.6109,-2.6206,-2.64,-2.6793,-2.7067,-2.7219,-2.7278,-2.8118,-2.904,-3.0061,-3.0511,-3.0778,-3.0851,-3.0851,-3.0851,-3.0851,-3.0433,-3.0221,-3.0221,-2.982,-2.9602,-2.9602,-2.9602,-2.9602,-2.9602,-2.9602,-2.9645,-2.9799,-3.0993,-3.1485,-3.1612,-3.2848,-3.329,-3.329,-3.329,-3.329,-3.329,-1.6545,-1.6733,-1.6948,-1.7239,-1.7556,-1.7979,-1.8578,-1.8764,-1.8976,-1.9332,-1.947,-1.9574,-1.9677,-1.9777,-1.9836,-1.9836,-1.9913,-2.0135,-2.05,-2.0164,-2.0309,-2.1087,-2.0368,-2.028,-2.0927,-2.062,-2.0804,-2.1526,-2.1428,-2.1739,-2.2401,-2.2734,-2.2955,-2.308,-2.3652,-2.3913,-2.3913,-2.4031,-2.4083,-2.4083,-2.4083,-2.4083,-2.4083,-2.4083,-2.4083,-2.4083,-2.4083,-2.4083,-2.4083,-2.4083,-2.4083,-2.4083,0.0,0.0,0.0,-2.4083,0.0,0.0,0.0,0.0,0.0,0.0,-2.3785,0.0,-2.3887,-2.3913,-2.3939,-2.4099,-2.4083,-2.4083,-2.4083,-2.4083,-2.4083,-2.4083,-2.4083,-2.422,-2.4577,-2.4921,-2.5192,-2.5253,-2.5629,-2.6029,-2.6386,-2.6448,-2.6708,-2.7248,-2.7713,-2.8285,-2.8981,-2.91,-2.9357,-2.9853,-2.9867,-2.9867,-2.9867,-2.9789,-2.9727,-2.9727,-2.9634,-2.9602,-2.9602,-2.9602,-2.9602,-2.9602,-2.9602,-2.9897,-3.0371,-3.1176,-3.1485,-3.1612,-3.2848,-3.329,-3.329,-3.329,-3.329,-3.329,-1.7187,-1.759,-1.7984,-1.8238,-1.8525,-1.8798,-1.9014,-1.9306,-1.9554,-1.9688,-2.0104,-2.0486,-2.0773,-2.123,-2.1541,-2.1541,-2.1766,-2.1884,-2.1913,-2.1677,-2.1766,-2.2235,-2.1559,-2.1498,-2.2137,-2.1746,-2.1845,-2.2446,-2.2319,-2.2557,-2.3137,-2.3337,-2.3466,-2.3566,-2.3923,-2.4083,-2.4083,-2.4083,-2.4083,-2.4083,-2.4083,-2.4083,-2.4083,-2.4083,-2.4083,-2.4122,-2.4439,-2.4543,-2.4491,-2.4217,-2.4083,0.0,-2.4083,-2.4067,-2.4008,0.0,-2.3936,-2.3789,0.0,0.0,0.0,-2.3979,0.0,0.0,0.0,-2.4067,-2.4083,-2.4008,-2.4067,-2.4083,-2.4083,-2.4083,-2.3992,-2.3691,-2.3887,-2.3979,-2.3678,-2.4178,-2.4543,-2.4543,-2.4805,-2.5035,-2.5203,-2.5326,-2.5743,-2.6544,-2.6762,-2.7126,-2.7778,-2.7913,-2.8282,-2.8881,-2.9047,-2.9307,-2.9602,-2.9602,-2.9602,-2.9602,-2.9602,-2.9602,-2.9602,-2.9602,-2.9602,-2.9602,-2.9602,-2.9954,-3.054,-3.1218,-3.1668,-3.2033,-3.296,-3.329,-3.329,-3.329,-3.329,-3.329,-1.8185,-1.8795,-1.9342,-1.9513,-1.9652,-1.9691,-1.9583,-1.992,-2.0198,-2.0251,-2.092,-2.1554,-2.1985,-2.2763,-2.3241,-2.3241,-2.3586,-2.3688,-2.3433,-2.33,-2.333,-2.3522,-2.2976,-2.2895,-2.3365,-2.2964,-2.2923,-2.3365,-2.3223,-2.3453,-2.3949,-2.392,-2.392,-2.3949,-2.4067,-2.4083,-2.4083,-2.4083,-2.4083,-2.4096,-2.4243,-2.4282,-2.4282,-2.4282,-2.4347,-2.4475,-2.4975,-2.5162,-2.5053,-2.4536,-2.438,-2.4396,-2.4262,-2.4164,0.0,0.0,0.0,0.0,0.0,0.0,0.0,0.0,0.0,-2.3832,0.0,0.0,0.0,-2.392,0.0,0.0,0.0,0.0,0.0,-2.3287,0.0,0.0,0.0,-2.3472,0.0,-2.4057,-2.4083,-2.4083,-2.4083,-2.4334,-2.4796,-2.5583,-2.5695,-2.6011,-2.6666,-2.6919,-2.7329,-2.8028,-2.8393,-2.8867,-2.942,-2.9546,-2.9602,-2.9602,-2.9602,-2.9602,-2.9602,-2.9602,-2.9602,-2.9602,-2.9602,-3.0024,-3.0708,-3.1274,-3.1921,-3.2623,-3.3094,-3.329,-3.329,-3.329,-3.329,-3.329,-1.9033,-1.9609,-2.0308,-2.0505,-2.0505,-2.057,-2.083,-2.1077,-2.1494,-2.2177,-2.2347,-2.2439,-2.25,-2.2634,-2.2695,-2.2695,-2.2756,-2.2962,-2.3373,-2.2962,-2.307,-2.3966,-2.3547,-2.3509,-2.3992,-2.3955,-2.3955,-2.3992,-2.3875,-2.3872,-2.4054,-2.3949,-2.3949,-2.4083,-2.4083,-2.4083,-2.4083,-2.4083,-2.4083,-2.4164,-2.4661,-2.49,-2.49,-2.49,-2.5184,-2.561,-2.5662,-2.5702,-2.5675,0.0,-2.546,-2.5475,0.0,-2.4719,-2.4749,-2.4122,0.0,0.0,0.0,0.0,0.0,0.0,-2.3628,0.0,0.0,0.0,-2.392,-2.3891,0.0,0.0,0.0,0.0,0.0,0.0,0.0,0.0,-2.2571,-2.2545,-2.2977,-2.3995,-2.4083,-2.4083,-2.4083,-2.4334,-2.4536,-2.4631,-2.4916,-2.5371,-2.5998,-2.6054,-2.6474,-2.7361,-2.7961,-2.8416,-2.8788,-2.9336,-2.9602,-2.9602,-2.9602,-2.9602,-2.9602,-2.9602,-2.9602,-2.9602,-2.9602,-3.0291,-3.1387,-3.1457,-3.2174,-3.3178,-3.3262,-3.329,-3.329,-3.329,-3.329,-3.329,-2.0665,-2.1176,-2.175,-2.2041,-2.2179,-2.2176,-2.2001,-2.203,-2.2438,-2.3404,-2.3547,-2.3672,-2.401,-2.4285,-2.4313,-2.4024,-2.3986,-2.3968,-2.386,-2.3362,-2.3384,-2.412,-2.3688,-2.3611,-2.4083,-2.4083,-2.4067,-2.3979,-2.392,-2.3861,-2.3806,-2.3861,-2.392,-2.3979,-2.4054,-2.4083,-2.4083,-2.4083,-2.4308,-2.4622,-2.49,-2.5398,-2.5947,-2.5589,-2.5811,-2.6282,-2.591,-2.6046,-2.6269,0.0,-2.5654,0.0,0.0,0.0,0.0,-2.4772,0.0,0.0,0.0,0.0,0.0,0.0,0.0,0.0,-2.348,0.0,-2.37,0.0,0.0,0.0,0.0,0.0,0.0,0.0,-2.3097,0.0,0.0,0.0,-2.2575,0.0,0.0,0.0,-2.3535,-2.4006,-2.4261,-2.4261,-2.439,-2.4582,-2.4835,-2.4996,-2.5455,-2.624,-2.7168,-2.7922,-2.8419,-2.9201,-2.9602,-2.9602,-2.9602,-2.9602,-2.9602,-2.9602,-2.9602,-2.9602,-2.9602,-3.0319,-3.1485,-3.1485,-3.2216,-3.329,-3.3051,-3.3086,-3.329,-3.329,-3.329,-3.329,-2.2446,-2.2685,-2.298,-2.3318,-2.339,-2.3321,-2.3088,-2.3176,-2.3598,-2.4522,-2.4635,-2.4802,-2.5237,-2.5604,-2.5654,-2.5236,-2.5227,-2.5031,-2.4666,-2.4277,-2.4239,-2.4622,-2.4203,-2.415,-2.4553,-2.4367,-2.4213,-2.4111,-2.3968,-2.3789,-2.3599,-2.376,-2.3861,-2.3891,-2.4008,-2.4054,-2.4096,-2.4282,-2.4596,-2.5031,-2.5345,-2.6052,-2.687,-2.6419,-2.6524,-2.6824,-2.6374,-2.6459,-2.6726,-2.6201,-2.5994,0.0,-2.5672,-2.5473,-2.5287,0.0,0.0,0.0,-2.4343,0.0,0.0,0.0,0.0,0.0,0.0,0.0,0.0,0.0,0.0,0.0,0.0,0.0,0.0,0.0,0.0,-2.2694,0.0,-2.1886,0.0,0.0,0.0,0.0,0.0,-2.3111,-2.3521,-2.3677,-2.3777,-2.3913,-2.4083,-2.429,-2.4649,-2.5221,-2.6405,-2.7275,-2.7806,-2.8823,-2.9383,-2.9446,-2.9446,-2.9509,-2.9602,-2.9602,-2.9602,-2.9617,-2.9785,-3.0488,-3.1499,-3.1668,-3.237,-3.3276,-3.298,-3.298,-3.3136,-3.3136,-3.3206,-3.329,-2.4234,-2.3957,-2.3658,-2.4024,-2.37,-2.3568,-2.4075,-2.4633,-2.5205,-2.5691,-2.5767,-2.578,-2.5793,-2.5793,-2.578,-2.5767,-2.5767,-2.5767,-2.5767,-2.5741,-2.5741,-2.5767,-2.554,-2.5527,-2.5741,-2.5052,-2.4662,-2.4667,-2.4149,-2.3789,-2.3599,-2.3599,-2.3717,-2.3891,-2.3891,-2.3979,-2.4122,-2.473,-2.4979,-2.5097,-2.6209,-2.6974,-2.7464,0.0,-2.7384,-2.7276,-2.7263,0.0,0.0,-2.6744,-2.6812,0.0,0.0,0.0,0.0,0.0,0.0,0.0,0.0,0.0,0.0,-2.3966,0.0,0.0,0.0,0.0,-2.2249,0.0,0.0,0.0,0.0,0.0,0.0,0.0,0.0,0.0,0.0,0.0,0.0,0.0,0.0,0.0,0.0,-2.1546,-2.2026,0.0,-2.301,-2.3469,-2.4057,-2.4112,-2.4245,-2.452,-2.5711,-2.6492,-2.684,-2.8021,-2.878,-2.9131,-2.9131,-2.9289,-2.9602,-2.9602,-2.9602,-2.9645,-3.0203,-3.0867,-3.1541,-3.2131,-3.275,-3.329,-3.329,-3.3051,-3.2739,-3.2739,-3.298,-3.329,-2.4766,-2.4884,-2.5003,-2.5188,-2.5083,-2.5055,-2.5236,-2.5444,-2.5766,-2.6334,-2.6386,-2.653,-2.6876,-2.6929,-2.6772,-2.6412,-2.6386,-2.6386,-2.6386,-2.6033,-2.5994,-2.6373,-2.5957,-2.5717,-2.5793,-2.5579,-2.5382,-2.5319,-2.5187,-2.5096,0.0,0.0,0.0,0.0,-2.4554,-2.4584,-2.4524,-2.4853,-2.5437,-2.6196,0.0,-2.7589,-2.8046,0.0,-2.7738,-2.803,-2.803,-2.8243,0.0,-2.828,-2.7952,-2.7536,-2.7151,-2.6717,-2.6308,-2.6064,-2.5703,-2.5401,0.0,0.0,-2.4544,-2.4544,0.0,0.0,0.0,0.0,0.0,0.0,0.0,0.0,0.0,0.0,0.0,0.0,0.0,0.0,0.0,0.0,0.0,0.0,0.0,0.0,0.0,0.0,0.0,0.0,-2.3504,-2.3874,-2.4083,-2.4083,-2.4141,-2.4232,-2.522,-2.5999,-2.6478,-2.7476,-2.8275,-2.878,-2.878,-2.8812,-2.894,-2.894,-2.9067,-2.9285,-2.9896,-3.0699,-3.1541,-3.1845,-3.2354,-3.286,-3.2359,-3.225,-3.2345,-3.2596,-3.2596,-3.2503,-2.5363,-2.5627,-2.5787,-2.5693,-2.5918,-2.6125,-2.6125,-2.6263,-2.6524,-2.6922,-2.719,-2.7452,-2.7785,-2.802,-2.8007,-2.7661,-2.7635,-2.7635,-2.7635,-2.7053,-2.6896,-2.7295,-2.6674,-2.6361,-2.6393,-2.607,-2.5871,-2.582,-2.5613,-2.5447,0.0,0.0,0.0,0.0,0.0,-2.5109,-2.5109,-2.5454,-2.6026,0.0,0.0,-2.791,0.0,0.0,-2.8153,-2.849,0.0,-2.8595,-2.8846,-2.8703,-2.8352,-2.7939,-2.7809,-2.745,-2.704,-2.6851,-2.6524,-2.6151,-2.595,-2.5511,0.0,-2.5096,-2.4695,0.0,-2.3983,0.0,-2.2359,0.0,0.0,0.0,0.0,0.0,0.0,0.0,0.0,0.0,0.0,-1.9622,0.0,0.0,0.0,0.0,0.0,0.0,-2.1805,-2.2605,-2.3191,-2.3681,-2.4099,-2.4083,-2.4083,-2.4083,-2.4899,-2.5588,-2.6109,-2.693,-2.7722,-2.8438,-2.8438,-2.8471,-2.8587,-2.8587,-2.8825,-2.9237,-2.9855,-3.0606,-3.1431,-3.191,-3.2345,-3.2668,-3.2164,-3.2019,-3.2128,-3.2273,-3.2237,-3.2092,-2.6049,-2.6217,-2.6103,-2.5665,-2.6219,-2.6745,-2.6745,-2.721,-2.7529,-2.7529,-2.8072,-2.8459,-2.8459,-2.897,-2.931,-2.931,-2.931,-2.931,-2.931,-2.8739,-2.8425,-2.8425,-2.7707,-2.7374,-2.7496,-2.6639,-2.6191,-2.625,-2.5504,0.0,0.0,0.0,0.0,0.0,-2.5345,0.0,-2.584,-2.6406,-2.6713,-2.6857,-2.7717,-2.7996,-2.7959,-2.8449,-2.8692,-2.8743,-2.8537,-2.8367,-2.8221,-2.8185,-2.8172,-2.8147,-2.8147,-2.8134,-2.7996,-2.7482,-2.7318,-2.7241,-2.6688,-2.6135,-2.5674,-2.5649,-2.5247,0.0,0.0,0.0,-2.2827,0.0,0.0,0.0,0.0,0.0,0.0,0.0,0.0,0.0,0.0,0.0,-1.8248,0.0,0.0,0.0,0.0,-1.9182,-2.0074,-2.1587,-2.2143,-2.2911,-2.4031,-2.4057,-2.4057,-2.4083,-2.4648,-2.524,-2.578,-2.636,-2.713,-2.8079,-2.8079,-2.8243,-2.8554,-2.8554,-2.8866,-2.9402,-3.0079,-3.0703,-3.13,-3.2242,-3.2668,-3.2632,-3.2632,-3.2381,-3.2019,-3.1703,-3.1776,-3.1982,-2.6396,-2.6511,-2.6641,-2.6821,-2.7077,-2.7301,-2.7301,-2.7798,-2.8164,-2.8164,-2.8673,-2.9087,-2.9087,-2.9231,-2.931,-2.931,-2.931,-2.931,-2.931,-2.9002,-2.8853,-2.8853,-2.8096,-2.767,-2.7739,-2.7232,-2.6982,-2.7028,-2.6906,0.0,-2.6675,0.0,0.0,0.0,0.0,-2.6045,-2.5882,-2.6154,-2.6827,-2.7742,-2.7842,-2.8425,-2.9269,0.0,-2.9338,-2.9706,-2.9323,-2.9475,-2.9782,-2.9644,-2.9277,-2.8886,-2.8749,-2.8436,-2.8084,-2.7934,-2.7896,-2.777,-2.7218,-2.6967,-2.6753,-2.6373,-2.5812,-2.5365,0.0,0.0,0.0,0.0,0.0,0.0,0.0,0.0,0.0,0.0,0.0,0.0,0.0,0.0,0.0,-1.827,0.0,0.0,-1.8798,-1.9563,-2.0511,-2.1612,-2.2129,-2.291,-2.4031,-2.3665,-2.3626,-2.4099,-2.4256,-2.4818,-2.578,-2.5968,-2.6575,-2.7669,-2.7669,-2.7703,-2.7789,-2.7789,-2.8239,-2.9067,-2.969,-3.0433,-3.1229,-3.1703,-3.1873,-3.185,-3.1556,-3.1384,-3.1272,-3.1198,-3.1198,-3.1272,-2.6589,-2.6917,-2.7241,-2.7494,-2.7756,-2.7937,-2.7907,-2.8399,-2.8778,-2.8778,-2.9287,-2.9653,-2.9653,-2.9876,-3.0019,-3.0019,-3.0019,-3.0019,-3.0019,-2.9689,-2.9437,-2.9352,-2.876,-2.8285,-2.7936,-2.773,-2.7493,-2.718,-2.7167,0.0,-2.6964,0.0,0.0,0.0,0.0,-2.6491,-2.6416,-2.67,-2.7396,-2.8241,-2.8352,-2.8788,0.0,-2.9466,-2.9682,-2.9934,-2.9732,-2.9847,-3.0113,-3.0011,-2.9757,-2.9441,-2.934,-2.9101,-2.88,-2.8536,-2.8461,-2.8348,-2.7795,-2.7645,-2.7507,-2.6989,-2.66,-2.6276,-2.6059,-2.5269,-2.4509,0.0,-2.362,-2.2893,0.0,0.0,0.0,0.0,0.0,0.0,0.0,0.0,0.0,0.0,-1.8171,0.0,-1.8313,-1.9439,-2.0421,-2.1039,-2.1484,-2.2231,-2.3396,-2.3109,-2.3285,-2.407,-2.4083,-2.4631,-2.578,-2.5793,-2.6367,-2.749,-2.749,-2.749,-2.7503,-2.7785,-2.8318,-2.9103,-2.9685,-3.0374,-3.1126,-3.1459,-3.1593,-3.1593,-3.1347,-3.1161,-3.0986,-3.0986,-3.0986,-3.0986,-2.6873,-2.7392,-2.7851,-2.7921,-2.8359,-2.8672,-2.8652,-2.9052,-2.9356,-2.9356,-2.9852,-3.0218,-3.0218,-3.0699,-3.0986,-3.0986,-3.0986,-3.0986,-3.0986,-3.0479,-3.0095,-2.9884,-2.9499,-2.8967,-2.8215,-2.816,-2.7781,-2.7071,-2.6909,-2.6721,0.0,0.0,0.0,0.0,0.0,0.0,0.0,-2.7599,-2.8089,-2.8529,-2.8985,-2.9113,-2.9089,-2.9603,-2.9792,-2.9792,-2.9792,-2.9792,-2.9792,-2.9792,-2.9792,-2.9792,-2.9792,-2.9792,-2.9691,-2.9189,-2.9001,-2.8875,-2.836,-2.821,-2.8084,-2.7532,-2.7394,-2.7243,-2.6725,-2.621,-2.5741,-2.549,-2.5169,-2.4693,-2.394,0.0,0.0,0.0,0.0,0.0,0.0,0.0,0.0,0.0,0.0,0.0,-1.7656,-1.8977,-1.9946,-2.0197,-2.0523,-2.1245,-2.2537,0.0,-2.2978,-2.407,-2.4191,-2.4739,-2.578,-2.5871,-2.6446,-2.749,-2.749,-2.749,-2.7516,-2.8111,-2.8747,-2.9314,-2.9889,-3.0451,-3.1024,-3.1384,-3.1519,-3.1519,-3.1519,-3.131,-3.0986,-3.0986,-3.0986,-3.0986,-2.7857,-2.7968,-2.814,-2.85,-2.8839,-2.9257,-2.9728,-2.9757,-2.9699,-2.9699,-3.0353,-3.083,-3.083,-3.0934,-3.0986,-3.0986,-3.0986,-3.0986,-3.0986,-3.0758,-3.0505,-3.029,-2.9589,-2.9059,-2.8761,-2.8502,-2.8079,-2.7472,-2.7586,-2.7296,-2.6692,0.0,0.0,0.0,0.0,0.0,-2.7286,-2.7828,0.0,-2.9036,-2.9,-2.9315,-2.9859,-2.9819,-2.9792,-2.9792,-2.9792,-2.9792,-2.9792,-2.9792,-2.9792,-2.9792,-2.9792,-2.9792,-2.9779,-2.9666,-2.9641,-2.9515,-2.89,-2.875,-2.8612,-2.8097,-2.7959,-2.7821,-2.7268,-2.709,-2.6542,-2.5008,-2.5089,-2.4909,-2.3176,0.0,0.0,0.0,0.0,0.0,0.0,0.0,0.0,0.0,0.0,-1.8137,0.0,-1.8317,-1.9215,-1.9693,-1.9695,-2.0517,-2.2496,0.0,-2.2552,0.0,-2.457,-2.5145,0.0,0.0,-2.6857,-2.749,-2.749,-2.749,-2.7516,-2.8111,-2.8747,-2.9314,-2.9889,-3.0451,-3.1024,-3.1099,-3.1099,-3.1099,-3.1099,-3.1061,-3.0986,-3.0986,-3.0986,-3.0986,-2.8109,-2.8335,-2.8573,-2.8758,-2.9189,-2.9593,-2.9909,-2.9933,-3.0084,-3.037,-3.0766,-3.0986,-3.0986,-3.0986,-3.0986,-3.0986,-3.0986,-3.0986,-3.0986,-3.0811,-3.066,-3.0571,-3.0061,-2.963,-2.9238,-2.9045,-2.8651,-2.802,-2.8079,-2.7738,-2.7019,-2.7101,0.0,-2.6499,0.0,-2.7415,0.0,0.0,-2.8888,-2.9517,-2.9416,-2.9617,-2.9934,-2.983,-2.9792,-2.9792,-2.9792,-2.9792,-2.9792,-2.9792,-2.9792,-2.9792,-2.9792,-2.9792,-2.9792,-2.9792,-2.9792,-2.9729,-2.9453,-2.9377,-2.9239,-2.8674,-2.8176,-2.7829,-2.7712,-2.7159,-2.6514,-2.6056,-2.5677,-2.4816,-2.2831,-2.1856,0.0,0.0,0.0,0.0,0.0,0.0,-1.8522,0.0,0.0,0.0,0.0,0.0,0.0,0.0,-1.9282,-2.0266,-2.2135,0.0,-2.2515,0.0,0.0,0.0,-2.578,0.0,-2.6961,-2.749,-2.749,-2.7646,-2.7994,-2.8582,-2.917,-2.9758,-3.0333,-3.0725,-3.0986,-3.0986,-3.0986,-3.0986,-3.0986,-3.0986,-3.0986,-3.0986,-3.0986,-3.0986,-2.8461,-2.8812,-2.9114,-2.9152,-2.9529,-2.983,-2.9895,-3.0049,-3.033,-3.0798,-3.0911,-3.0949,-3.0986,-3.0986,-3.0986,-3.0949,-3.0949,-3.0911,-3.0874,-3.0723,-3.0622,-3.0584,-3.0419,-3.0087,-2.9578,-2.9565,-2.9223,-2.853,-2.853,-2.8091,-2.7281,-2.7406,0.0,0.0,0.0,0.0,0.0,0.0,-2.9377,-2.9792,-2.9792,-2.9792,-2.9792,-2.9792,-2.9792,-2.9792,-2.9792,-2.9792,-2.9792,-2.9792,-2.9792,-2.9792,-2.9792,-2.9792,-2.9792,-2.9792,-2.9792,-2.9792,-2.9792,-2.9792,-2.9679,-2.9227,-2.8428,-2.7835,-2.7965,-2.6991,-2.6185,-2.6649,-2.5851,-2.4531,-2.2813,-2.2192,0.0,0.0,0.0,0.0,0.0,0.0,-1.8528,0.0,0.0,0.0,-1.7603,0.0,0.0,0.0,-1.9102,-2.0036,-2.1392,-2.1739,-2.246,-2.375,0.0,-2.52,-2.5654,0.0,-2.7079,-2.749,-2.749,-2.7837,-2.8433,-2.9035,-2.9588,-3.0127,-3.0738,-3.0898,-3.0785,-3.0785,-3.071,-3.0596,-3.0596,-3.0596,-3.0596,-3.0596,-3.0596,-3.0621,-2.9628,-2.9679,-2.9781,-2.9961,-2.9857,-2.9934,-3.0292,-3.0368,-3.0406,-3.0444,-3.0609,-3.0811,-3.0986,-3.0986,-3.0911,-3.0736,-3.0736,-3.0647,-3.0482,-3.0444,-3.033,-3.0152,-3.0152,-3.0024,-2.9793,-2.9793,-2.9466,-2.885,0.0,-2.831,0.0,0.0,0.0,0.0,0.0,0.0,0.0,-2.949,-2.9741,-2.9792,-2.9792,-2.9792,-2.9792,-2.9792,-2.9792,-2.9792,-2.9792,-2.9792,-2.9792,-2.9792,-2.9792,-2.9792,-2.9792,-2.9792,-2.9792,-2.9792,-2.9792,-2.9792,-2.9792,-2.9792,-2.9779,-2.9729,-2.9045,-2.8285,-2.777,-2.6944,-2.603,-2.5223,-2.4586,-2.3995,-2.3313,-2.267,-2.1914,0.0,0.0,0.0,0.0,0.0,-1.888,-1.8465,0.0,0.0,-1.774,-1.7985,-1.8359,0.0,-1.9086,-1.9474,-2.0077,-2.1238,-2.2164,-2.2701,-2.428,-2.5097,-2.518,-2.6667,-2.7438,-2.749,-2.749,-2.7837,-2.8433,-2.9035,-2.9588,-3.0127,-3.0738,-3.0672,-3.0075,-3.0075,-2.9755,-2.9277,-2.9277,-2.9277,-2.9277,-2.9277,-2.9277,-2.9367,-2.9792,-2.9792,-2.983,-2.9895,-2.9869,-2.9982,-3.0454,-3.0504,-3.0696,-3.1105,-3.0997,-3.0836,-3.0811,-3.0911,-3.0986,-3.0874,-3.0874,-3.0798,-3.0571,-3.0457,-3.0368,-3.0292,-3.0049,-2.9934,-2.9972,-2.9869,-2.9679,-2.9453,0.0,0.0,0.0,0.0,0.0,0.0,0.0,-2.9076,-2.9465,-2.9691,-2.9792,-2.9792,-2.9792,-2.9792,-2.9792,-2.9792,-2.9792,-2.9792,-2.9792,-2.9792,-2.9792,-2.9792,-2.9792,-2.9792,-2.9792,-2.9792,-2.9792,-2.9792,-2.9792,-2.9792,-2.9792,-2.9792,-2.9663,-2.917,-2.8331,-2.7591,-2.7369,-2.6359,-2.5563,-2.5682,-2.4725,-2.3579,-2.2587,-2.2273,-2.1923,-2.1119,0.0,0.0,0.0,0.0,0.0,-1.8849,0.0,-1.8652,-1.8164,-1.8249,-1.827,0.0,-1.8873,-1.9757,-2.0749,-2.1308,-2.2053,-2.3064,0.0,-2.4726,-2.5041,-2.6038,-2.6552,-2.653,-2.6823,-2.7276,-2.7889,-2.8396,-2.895,-2.9517,-2.9744,-2.9716,-2.9445,-2.9445,-2.9316,-2.9081,-2.9081,-2.9081,-2.9081,-2.9081,-2.9081,-2.9121,-3.0005,-3.003,-3.008,-3.0231,-3.0269,-3.0394,-3.0783,-3.0886,-3.1105,-3.1564,-3.1446,-3.1254,-3.1113,-3.1215,-3.1254,-3.1215,-3.1215,-3.1035,-3.0689,-3.056,-3.0394,-3.0228,-2.9934,-2.9869,-3.0011,-2.9869,-2.9792,-2.9792,-2.9792,0.0,0.0,0.0,0.0,0.0,-2.9176,-2.9415,-2.9792,-2.9792,-2.9792,-2.9792,-2.9792,-2.9792,-2.9792,-2.9792,-2.9624,-2.9456,-2.9702,-2.9624,-2.9456,-2.9702,-2.9792,-2.9792,-2.9792,-2.9792,-2.9792,-2.9792,-2.9792,-2.9792,-2.9792,-2.9792,-2.9663,-2.904,-2.7971,-2.711,-2.711,-2.5939,-2.5008,-2.5477,-2.4591,-2.3361,-2.222,-2.1997,-2.1813,-2.1208,0.0,0.0,0.0,-1.9513,0.0,-1.9119,-1.9108,-1.8973,-1.8642,-1.8611,-1.8454,0.0,0.0,-1.9856,-2.0622,-2.1149,-2.1856,0.0,0.0,0.0,-2.4791,-2.5522,-2.597,-2.6107,-2.6452,-2.7005,-2.7729,-2.8232,-2.8686,-2.9081,-2.9081,-2.9003,-2.8819,-2.8819,-2.87,-2.8542,-2.8542,-2.8542,-2.8542,-2.8542,-2.8542,-2.8581,-3.0507,-3.0608,-3.0771,-3.1286,-3.1373,-3.1373,-3.1386,-3.1562,-3.1602,-3.1427,-3.1739,-3.1981,-3.1981,-3.1981,-3.1913,-3.1724,-3.1683,-3.1375,-3.0645,-3.0608,-3.0369,-2.9817,-2.9792,-2.9792,-2.9792,-2.9792,-2.9792,-2.9792,0.0,0.0,-2.8888,0.0,-2.9239,-2.9779,-2.9779,-2.9779,-2.9792,-2.9792,-2.9792,-2.9792,-2.9792,-2.9792,-2.9792,-2.9792,-2.9248,-2.8621,-2.9495,-2.9248,-2.8673,-2.9495,-2.9792,-2.9792,-2.9792,-2.9792,-2.9792,-2.9792,-2.9792,-2.9792,-2.9792,-2.9792,-2.9792,-2.9792,-2.8422,-2.711,-2.711,-2.5757,-2.4405,-2.4012,-2.3793,-2.3459,-2.2637,-2.2108,-2.1642,-2.1186,0.0,0.0,0.0,-1.9793,0.0,-1.916,-1.9108,-1.9108,-1.9098,-1.9098,0.0,0.0,0.0,-1.9546,-1.8956,0.0,0.0,-2.1441,-2.2903,0.0,-2.4302,-2.5361,-2.6131,-2.6588,-2.66,-2.7164,-2.8218,-2.8823,-2.9069,-2.9081,-2.9081,-2.874,-2.8219,-2.8219,-2.7817,-2.7231,-2.7231,-2.7231,-2.7231,-2.7231,-2.7231,-2.7301,-3.111,-3.1148,-3.1198,-3.1361,-3.1386,-3.1512,-3.1888,-3.2005,-3.2185,-3.2533,-3.2668,-3.2752,-3.2752,-3.2304,-3.1966,-3.1926,-3.1886,-3.1741,-3.1375,-3.1362,-3.1042,-3.0369,-3.0357,-3.0181,-2.9804,-2.9792,-2.9792,-2.9792,0.0,0.0,0.0,-2.9515,-2.9616,-2.9792,-2.9792,-2.9792,-2.9792,-2.9792,-2.9792,-2.9792,-2.9792,-2.9792,-2.9792,-2.9792,-2.9248,-2.8542,-2.8791,-2.8343,-2.7678,-2.8581,-2.891,-2.9,-2.9624,-2.9378,-2.891,-2.891,-2.8462,-2.8103,-2.8752,-2.891,-2.891,-2.891,-2.8011,-2.6946,-2.6359,-2.5306,-2.4373,-2.3971,-2.3876,-2.3549,-2.2654,-2.2377,-2.2128,-2.1662,-2.1321,0.0,-2.0731,0.0,-2.0151,-2.0006,-1.9996,-1.9996,-1.9996,-1.9996,0.0,0.0,0.0,0.0,0.0,0.0,0.0,0.0,-2.2697,0.0,-2.3828,-2.4747,-2.5294,-2.5433,-2.6197,-2.6863,-2.7531,-2.7735,-2.7805,-2.7805,-2.7805,-2.7696,-2.7505,-2.7505,-2.7383,-2.719,-2.719,-2.719,-2.719,-2.719,-2.719,-2.7231,-3.1662,-3.17,-3.1763,-3.1989,-3.2026,-3.2139,-3.2491,-3.2541,-3.2667,-3.3031,-3.3124,-3.3124,-3.3124,-3.2706,0.0,-3.2399,-3.2399,-3.2269,-3.189,-3.1877,-3.1597,-3.0934,-3.0909,-3.0658,-3.0118,-3.0105,0.0,-2.9792,-2.9792,-2.9792,-2.9792,-2.9792,-2.9792,-2.9792,-2.9792,-2.9792,-2.9792,-2.9792,-2.9792,-2.9817,-3.0018,-3.0105,-3.0118,-3.0319,-2.9841,-2.9092,-2.9051,-2.8468,-2.7796,-2.8333,-2.8498,-2.8544,-2.8944,-2.8429,-2.7854,-2.8351,-2.8091,-2.7678,-2.7931,-2.7971,-2.7971,-2.7971,-2.7313,-2.6359,-2.5505,-2.4903,-2.4425,-2.4188,-2.3991,-2.3691,-2.2894,-2.2615,-2.2346,-2.188,-2.1559,-2.1311,-2.1135,-2.0866,-2.0581,0.0,-2.0385,-2.0385,-2.0385,-2.0385,-2.0307,0.0,0.0,0.0,0.0,0.0,-2.1341,-2.198,-2.2564,-2.3197,-2.3899,-2.4576,-2.5107,-2.5509,-2.6347,-2.6921,-2.719,-2.719,-2.719,-2.719,-2.719,-2.719,-2.719,-2.719,-2.719,-2.719,-2.719,-2.719,-2.719,-2.719,-2.719,-2.719,-3.2177,-3.2277,-3.2441,-3.298,-3.3124,-3.3124,-3.3124,-3.3124,-3.3124,-3.3124,-3.3124,-3.3124,-3.3124,-3.3124,-3.3124,-3.3124,0.0,0.0,-3.2303,-3.2277,-3.2026,-3.1474,-3.1449,-3.1198,-3.0683,-3.067,-3.0407,-2.9854,-2.9854,-2.9829,-2.9792,-2.9792,-2.9792,-2.9792,-2.9792,-2.9817,-2.9854,-2.9854,-2.9867,-2.9942,-3.0457,-3.067,-3.0721,-3.121,-3.0799,-2.9996,-2.9912,-2.9308,-2.8525,-2.8416,-2.8416,-2.8336,-2.7977,-2.7256,-2.6836,-2.7951,-2.8251,-2.8051,-2.7232,-2.7028,-2.7017,-2.7069,-2.6442,-2.5579,-2.47,-2.4497,-2.4497,-2.4497,-2.4209,-2.3784,-2.3318,-2.2884,-2.2428,-2.1932,-2.1859,-2.1694,-2.1228,-2.1166,-2.1,-2.0529,0.0,0.0,-2.0488,-2.0488,-2.0467,0.0,0.0,0.0,0.0,0.0,-2.1303,-2.1706,-2.2535,-2.3414,-2.4283,-2.4729,-2.5482,-2.6559,-2.7001,-2.719,-2.719,-2.719,-2.719,-2.719,-2.719,-2.719,-2.719,-2.719,-2.719,-2.719,-2.719,-2.719,-2.719,-2.719,-2.719,-2.719,0.0,0.0,-3.2918,-3.3099,-3.3124,-3.3124,-3.3124,-3.3124,-3.3124,-3.3124,-3.3124,-3.3124,-3.3124,-3.3124,-3.3124,-3.3124,-3.3124,-3.3061,-3.288,-3.2867,-3.2616,-3.2039,-3.2014,-3.1763,-3.1223,-3.121,-3.0947,-3.0419,-3.0419,-3.0206,-2.9792,-2.9792,-2.9792,-2.9792,-2.9792,-3.003,-3.0419,-3.0419,-3.0645,-3.1022,-3.1148,-3.121,-3.1223,-3.1348,-3.0401,-2.904,-2.8998,-2.7962,-2.6662,-2.7316,-2.7536,-2.7601,-2.815,-2.7952,-2.7344,-2.6629,-2.5955,-2.5558,-2.5997,-2.611,-2.6276,-2.6946,-2.6442,-2.5579,-2.47,-2.4497,-2.4497,-2.4497,-2.4414,-2.425,-2.3795,-2.3629,-2.3287,-2.247,-2.2335,-2.217,-2.1704,-2.1642,-2.16,0.0,-2.1476,-2.1476,-2.1476,-2.1476,-2.1331,0.0,0.0,-2.1487,-2.1135,-2.1445,-2.168,-2.1755,-2.2624,-2.3191,-2.3425,-2.4848,-2.6058,-2.7047,-2.7133,-2.719,-2.719,-2.719,-2.719,-2.719,-2.719,-2.719,-2.719,-2.719,-2.719,-2.719,-2.719,-2.719,-2.719,-2.719,-2.719,-2.719,-3.3822,-3.3822,-3.3822,-3.3822,-3.3822,-3.3822,-3.3822,-3.3822,-3.3734,-3.3483,-3.3458,-3.3357,-3.3149,-3.3124,-3.3124,-3.3124,-3.3124,-3.3124,-3.3124,-3.3124,-3.293,-3.2616,-3.2604,-3.234,-3.1775,-3.1763,-3.1499,-3.0972,-3.0972,-3.0821,-3.052,-3.052,-3.052,-3.052,-3.052,-3.0683,-3.0972,-3.0972,-3.1135,-3.1411,-3.1662,-3.1763,-3.1759,-3.1578,-3.0888,-2.9925,-2.9034,-2.8017,-2.7186,-2.7221,-2.7232,-2.727,-2.753,-2.7458,-2.7086,-2.6119,-2.5466,-2.5105,-2.5179,-2.5221,-2.5306,-2.5799,-2.5547,-2.5105,-2.4625,-2.4497,-2.4497,-2.4497,-2.4497,-2.4363,-2.396,-2.3919,-2.365,-2.2925,-2.2635,-2.2408,-2.2159,-2.1942,-2.1807,-2.1807,-2.1807,-2.1807,-2.1807,-2.1807,-2.1694,-2.1445,-2.1859,0.0,-2.1756,-2.218,-2.2335,-2.2128,-2.2745,-2.3317,-2.3732,-2.512,-2.6099,-2.6603,-2.6798,-2.688,-2.688,-2.7097,-2.719,-2.719,-2.719,-2.719,-2.719,-2.719,-2.719,-2.719,-2.719,-2.719,-2.719,-2.719,-2.719,-2.719,-3.468,-3.468,-3.468,-3.468,-3.468,-3.468,-3.468,-3.468,-3.4562,-3.4085,-3.4022,-3.3847,-3.337,-3.3319,-3.3294,-3.3206,-3.3206,-3.3212,-3.3124,-3.3124,-3.3124,-3.3124,-3.3124,-3.2842,-3.2353,-3.234,-3.2064,-3.1512,-3.1512,-3.1474,-3.1386,-3.1386,-3.1386,-3.1386,-3.1263,-3.1313,-3.1512,-3.1389,-3.1439,-3.1687,-3.2152,-3.2256,-3.2082,-3.1719,-3.1403,-3.0946,-2.9314,-2.8585,-2.8362,-2.7584,-2.7309,-2.7237,-2.6843,-2.6677,-2.6542,-2.6138,-2.5941,-2.5657,-2.4826,-2.4549,-2.4497,-2.4497,-2.4497,-2.4497,-2.4497,-2.4497,-2.4497,-2.4497,-2.4497,-2.4383,-2.4043,-2.3981,-2.3826,-2.337,-2.2956,-2.2677,-2.2615,0.0,-2.2014,-2.2014,-2.2014,-2.2014,-2.2014,-2.2014,-2.2014,-2.2014,-2.2377,-2.2604,-2.2604,-2.2977,-2.3039,-2.2718,-2.3053,-2.3663,-2.4583,-2.5386,-2.5812,-2.5895,-2.6249,-2.6445,-2.6528,-2.6921,-2.7138,-2.719,-2.719,-2.719,-2.719,-2.719,-2.719,-2.719,-2.719,-2.719,-2.719,-2.719,-2.719,-2.719,-3.468,-3.468,-3.468,-3.468,-3.468,-3.468,-3.468,-3.468,-3.4688,-3.4613,-3.46,-3.4517,-3.4474,-3.4462,-3.4274,-3.3809,-3.3771,-3.3571,-3.3106,-3.3124,-3.3124,-3.3124,-3.3124,-3.3074,-3.2943,-3.2943,-3.2667,-3.2089,-3.2089,-3.1838,-3.1386,-3.1386,-3.1386,-3.1345,-3.055,-3.0891,-3.2006,-3.1235,-3.1632,-3.2817,-3.2948,-3.2445,-3.1692,-3.1645,-3.0588,-2.913,-2.8817,-2.8175,-2.7489,-2.7347,-2.7309,-2.7299,-2.7226,-2.6926,-2.6604,-2.6532,-2.6218,-2.5764,-2.5223,-2.4797,-2.4497,-2.4497,-2.4497,-2.4497,-2.4497,-2.4497,-2.4497,-2.4497,-2.4497,-2.4476,-2.4404,-2.4394,-2.4249,-2.3846,-2.3712,-2.3525,-2.3143,0.0,-2.2977,-2.2977,-2.2977,-2.2977,-2.2977,-2.2977,-2.2977,-2.2977,-2.3039,-2.308,-2.308,-2.3153,-2.3329,-2.365,-2.3743,-2.4189,-2.5083,-2.5253,-2.5506,-2.5895,-2.5979,-2.6177,-2.6487,-2.6569,-2.6828,-2.719,-2.719,-2.719,-2.719,-2.719,-2.719,-2.719,-2.719,-2.719,-2.719,-2.719,-2.719,-2.719,-3.5604,-3.5604,-3.5604,-3.5604,-3.5604,-3.5604,-3.5604,-3.5604,-3.5504,-3.5157,-3.5119,-3.5006,-3.4705,-3.468,-3.4625,-3.4361,-3.4349,-3.411,-3.3558,-3.3244,-3.3124,-3.3124,-3.3124,-3.3124,-3.3124,-3.3124,-3.2943,-3.2679,-3.2142,-3.2018,-3.2303,-3.1759,-3.1814,-3.2248,-3.129,-3.1252,-3.1828,-3.0902,-3.09,-3.1524,-3.1524,-3.1258,-3.0812,-3.0215,-2.9498,-2.8631,-2.8128,-2.7678,-2.7309,-2.7309,-2.7309,-2.7309,-2.7309,-2.7164,-2.6988,-2.6988,-2.6268,-2.5482,-2.5241,-2.4848,-2.4497,-2.4497,-2.4497,-2.4497,-2.4497,-2.4497,-2.4497,-2.4497,-2.4497,-2.4497,-2.4497,-2.4497,-2.4435,-2.4271,-2.4033,-2.3805,-2.3588,-2.335,-2.3184,-2.3184,-2.3184,-2.3184,-2.3184,-2.3184,-2.3184,-2.3184,-2.3422,-2.3598,-2.3598,-2.3784,-2.4012,-2.4229,-2.4229,-2.4418,-2.4828,-2.4828,-2.4914,-2.5137,-2.538,-2.5622,-2.5821,-2.6041,-2.6302,-2.652,-2.6715,-2.6839,-2.6828,-2.7097,-2.719,-2.719,-2.719,-2.719,-2.719,-2.719,-2.719,-2.719,-3.6405,-3.6405,-3.6405,-3.6405,-3.6405,-3.6405,-3.6405,-3.6405,-3.6207,-3.5793,-3.5683,-3.5567,-3.5152,-3.5102,-3.5052,-3.4881,-3.4868,-3.4675,-3.4123,-3.3696,-3.3345,-3.3124,-3.3124,-3.3124,-3.3124,-3.3124,-3.3124,-3.3124,-3.2077,-3.1989,-3.2711,-3.1757,-3.1801,-3.2711,-3.1713,-3.1403,-3.1536,-3.0576,-3.0215,-3.0215,-3.0215,-3.0079,-2.9761,-2.8991,-2.8538,-2.8269,-2.7536,-2.7309,-2.7309,-2.7309,-2.7309,-2.7309,-2.7309,-2.7309,-2.7309,-2.7309,-2.6444,-2.5502,-2.5241,-2.4931,-2.4631,-2.4528,-2.4497,-2.4497,-2.4497,-2.4497,-2.4497,-2.4497,-2.4497,-2.4497,-2.4497,-2.4497,-2.4497,-2.4497,0.0,-2.4033,-2.4033,-2.3722,-2.3505,-2.3505,-2.3505,-2.3505,-2.3505,-2.3505,-2.3505,-2.3505,-2.3836,-2.4033,-2.4033,-2.4311,-2.4497,-2.4497,-2.4497,-2.4497,-2.4497,-2.4497,-2.4497,-2.4497,-2.4871,-2.5073,-2.52,-2.5549,-2.5812,-2.5906,-2.6218,-2.6373,-2.6415,-2.6839,-2.7056,-2.7056,-2.7149,-2.719,-2.719,-2.719,-2.719,-2.719,-3.6405,-3.6405,-3.6405,-3.6405,-3.6405,-3.6405,-3.6405,-3.6405,-3.6392,-3.6355,-3.6342,-3.6329,-3.6292,-3.6279,-3.6031,-3.5483,-3.5445,-3.5207,-3.47,-3.4625,-3.4148,-3.3162,-3.3124,-3.3124,-3.3124,-3.3124,-3.3124,-3.3124,-3.2077,-3.1625,-3.1669,-3.0756,-3.0812,-3.1669,-3.0711,-3.0812,-3.1536,-3.0576,-3.0215,-3.0215,-3.0215,-2.9624,-2.8806,-2.8724,-2.8175,-2.7394,-2.7299,-2.7309,-2.7309,-2.7309,-2.7309,-2.7309,-2.7309,-2.7309,-2.7309,-2.7309,-2.6926,-2.6289,-2.5461,-2.5158,-2.5034,-2.4611,-2.4497,-2.4497,-2.4497,-2.4497,-2.4497,-2.4497,-2.4497,-2.4497,-2.4497,-2.4497,-2.4497,-2.4497,0.0,0.0,-2.4456,-2.4425,-2.4394,-2.4394,-2.4394,-2.4394,-2.4394,-2.4394,-2.4394,-2.4394,-2.4435,-2.4456,-2.4456,-2.4476,-2.4497,-2.4497,-2.4497,-2.4497,-2.4497,-2.4497,-2.4497,-2.4497,-2.454,-2.4786,-2.52,-2.5242,-2.5506,-2.5895,-2.5937,-2.5937,-2.5979,-2.6373,-2.6569,-2.6569,-2.7015,-2.719,-2.719,-2.719,-2.719,-2.719,-3.6405,-3.6405,-3.6405,-3.6405,-3.6405,-3.6405,-3.6405,-3.6405,-3.6405,-3.6405,-3.6405,-3.6405,-3.6405,-3.6405,-3.6329,-3.6069,-3.6056,-3.5818,-3.5219,-3.5194,-3.4738,-3.3633,-3.3583,-3.3432,-3.3124,-3.3124,-3.2797,-3.2164,-3.1214,-3.0711,-3.0722,-2.9715,-2.9806,-3.0666,-2.9715,-2.9452,-2.9726,-2.8806,-2.8398,-2.8398,-2.8398,-2.8175,-2.7809,-2.7809,-2.7631,-2.7309,-2.7309,-2.7309,-2.7309,-2.7309,-2.7309,-2.7309,-2.7309,-2.7309,-2.7309,-2.7309,-2.7185,-2.6905,-2.6227,-2.5647,-2.5148,-2.4972,-2.4714,-2.4497,-2.4497,-2.4497,-2.4497,-2.4497,-2.4497,-2.4497,-2.4497,-2.4497,-2.4497,-2.4497,0.0,-2.4497,-2.4497,-2.4497,-2.4497,-2.4497,-2.4497,-2.4497,-2.4497,-2.4497,-2.4497,-2.4497,-2.4497,-2.4497,-2.4497,-2.4497,-2.4497,-2.4497,-2.4497,-2.4497,-2.4497,-2.4497,-2.4497,-2.4497,-2.4497,-2.4583,-2.4786,-2.4786,-2.4871,-2.5052,-2.5338,-2.5464,-2.5506,-2.5926,-2.6135,-2.6135,-2.6313,-2.6561,-2.6745,-2.6745,-2.6962,-2.719,-3.6405,-3.6405,-3.6405,-3.6405,-3.6405,-3.6405,-3.6405,-3.6405,-3.6405,-3.6405,-3.6405,-3.6405,-3.6405,-3.6405,-3.6405,-3.6405,-3.6405,-3.6194,-3.583,-3.5805,-3.5303,-3.4211,-3.4161,-3.3985,-3.3608,-3.342,-3.2872,-3.1853,-3.0736,-3.0034,-2.9715,-2.8724,-2.8817,-2.9715,-2.8991,-2.8678,-2.8678,-2.7987,-2.7584,-2.7309,-2.7309,-2.7309,-2.7309,-2.7309,-2.7309,-2.7309,-2.7309,-2.7309,-2.7309,-2.7309,-2.7309,-2.7309,-2.7309,-2.7309,-2.7309,-2.7309,-2.7309,-2.7237,-2.6915,-2.6227,-2.5585,-2.5261,-2.4952,-2.4673,-2.4528,-2.4497,-2.4497,-2.4497,-2.4497,-2.4497,-2.4497,-2.4497,-2.4497,-2.4497,-2.4497,-2.4497,-2.4497,-2.4497,-2.4497,-2.4497,-2.4497,-2.4497,-2.4497,-2.4497,-2.4497,-2.4497,-2.4497,-2.4497,-2.4497,-2.4497,-2.4497,-2.4497,-2.4497,-2.4497,-2.4497,-2.4497,-2.4497,-2.4497,-2.4497,-2.4497,-2.4497,-2.4497,-2.4497,-2.4497,-2.4828,-2.4999,-2.5031,-2.5506,-2.5686,-2.5686,-2.5853,-2.6135,-2.6487,-2.6487,-2.6798,-2.719,-3.6405,-3.6405,-3.6405,-3.6405,-3.6405,-3.6405,-3.6405,-3.6405,-3.6405,-3.6405,-3.6405,-3.6405,-3.6405,-3.6405,-3.6405,-3.6405,-3.6405,-3.6405,-3.6405,-3.6405,-3.5868,-3.4743,-3.468,-3.468,-3.468,-3.4186,-3.3429,-3.237,-3.0911,-2.9681,-2.8678,-2.7726,-2.7809,-2.8678,-2.8678,-2.8678,-2.8678,-2.8678,-2.8128,-2.7309,-2.7309,-2.7309,-2.7309,-2.7309,-2.7309,-2.7309,-2.7309,-2.7309,-2.7309,-2.7309,-2.7309,-2.7309,-2.7309,-2.7309,-2.7309,-2.7309,-2.7309,-2.7309,-2.7309,-2.6978,-2.6361,-2.5416,-2.5199,-2.5065,-2.4611,-2.4507,-2.4507,-2.4497,-2.4497,-2.4497,-2.4497,-2.4497,-2.4497,-2.4497,-2.4497,-2.4497,-2.4497,-2.4497,-2.4497,-2.4497,-2.4497,-2.4497,-2.4497,-2.4497,-2.4497,-2.4497,-2.4497,-2.4497,-2.4497,-2.4497,-2.4497,-2.4497,-2.4497,-2.4497,-2.4497,-2.4497,-2.4497,-2.4497,-2.4497,-2.4497,-2.4497,-2.4497,-2.4497,-2.4497,-2.4497,-2.4497,-2.454,-2.4988,-2.52,-2.5242,-2.5728,-2.6135,-2.6487,-2.6487,-2.6798,-2.719,-3.6405,-3.6405,-3.6405,-3.6405,-3.6405,-3.6405,-3.6405,-3.6405,-3.6405,-3.6405,-3.6405,-3.6405,-3.6405,-3.6405,-3.6405,-3.6405,-3.6405,-3.6061,-3.5331,-3.5966,-3.5911,-3.482,-3.5074,-3.5069,-3.4726,-3.4562,-3.3624,-3.1914,-3.1494,-3.0197,-2.8141,-2.7862,-2.7696,-2.7715,-2.7715,-2.7715,-2.7715,-2.7715,-2.7536,-2.7309,-2.7309,-2.7309,-2.7309,-2.7309,-2.7309,-2.7309,-2.7309,-2.7309,-2.7309,-2.7309,-2.7309,-2.7309,-2.7309,-2.7309,-2.7309,-2.7309,-2.7309,-2.7309,-2.7309,-2.7206,-2.6957,-2.632,-2.5927,-2.5575,-2.5086,-2.4983,-2.489,-2.4569,-2.4497,-2.4497,-2.4497,-2.4497,-2.4497,-2.4497,-2.4497,-2.4497,-2.4497,-2.4497,-2.4497,-2.4497,-2.4497,-2.4497,-2.4497,-2.4497,-2.4497,-2.4497,-2.4497,-2.4497,-2.4497,-2.4497,-2.4497,-2.4497,-2.4497,-2.4497,-2.4497,-2.4497,-2.4497,-2.4497,-2.4497,-2.4497,-2.4497,-2.4497,-2.4497,-2.4497,-2.4497,-2.4497,-2.4497,-2.4658,-2.47,-2.47,-2.4882,-2.5211,-2.5569,-2.5569,-2.5874,-2.6271,-3.5763,-3.5763,-3.5906,-3.631,-3.6405,-3.6405,-3.6405,-3.6405,-3.6263,-3.581,-3.5763,-3.5763,-3.5763,-3.5763,-3.5918,-3.6358,-3.6013,-3.5319,-3.4239,-3.4775,-3.4824,-3.419,-3.4426,-3.4838,-3.5378,-3.4773,-3.3606,-3.2032,-3.1357,-3.0061,-2.8204,-2.8204,-2.8059,-2.779,-2.779,-2.779,-2.779,-2.779,-2.779,-2.779,-2.779,-2.779,-2.779,-2.779,-2.779,-2.779,-2.779,-2.779,-2.779,-2.779,-2.7676,-2.7489,-2.7361,-2.7309,-2.7309,-2.7309,-2.7309,-2.7309,-2.7309,-2.7309,-2.7237,-2.6957,-2.6542,-2.603,-2.5585,-2.5313,-2.5106,-2.4828,-2.4621,-2.4497,-2.4497,-2.4497,-2.4497,-2.4497,-2.4497,-2.4497,-2.4497,-2.4497,-2.4497,-2.4497,-2.4497,-2.4497,-2.4497,-2.4497,-2.4497,-2.4497,-2.4497,-2.4497,-2.4497,-2.4497,-2.4497,-2.4497,-2.4497,-2.4497,-2.4497,-2.4497,-2.4497,-2.4497,-2.4497,-2.4497,-2.4497,-2.4497,-2.4497,-2.4497,-2.4497,-2.4497,-2.4497,-2.4497,-2.4497,-2.4497,-2.4497,-2.4786,-2.52,-2.52,-2.5506,-2.5895,-3.4678,-3.4727,-3.5126,-3.6073,-3.6358,-3.6405,-3.6405,-3.631,-3.5918,-3.4921,-3.4727,-3.4678,-3.4678,-3.4678,-3.5078,-3.6156,-3.5367,-3.4288,-3.3151,-3.3151,-3.3151,-3.3051,-3.3151,-3.4091,-3.6061,-3.47,-3.3432,-3.2403,-3.0947,-2.9696,-2.868,-2.868,-2.8649,-2.8618,-2.8618,-2.8618,-2.8618,-2.8618,-2.8618,-2.8618,-2.8618,-2.8618,-2.8618,-2.8618,-2.8618,-2.8618,-2.8618,-2.8618,-2.8618,-2.8618,-2.8328,-2.7914,-2.751,-2.7403,-2.7372,-2.7372,-2.734,-2.7309,-2.7309,-2.7309,-2.7309,-2.7309,-2.6988,-2.6563,-2.6096,-2.5637,-2.5292,-2.5251,-2.491,-2.4611,-2.4569,-2.4559,-2.4549,-2.4507,-2.4497,-2.4497,-2.4497,-2.4497,-2.4497,-2.4497,-2.4497,-2.4497,-2.4497,-2.4497,-2.4497,-2.4497,-2.4497,-2.4497,-2.4497,-2.4497,-2.4497,-2.4497,-2.4497,-2.4497,-2.4497,-2.4497,-2.4497,-2.4497,-2.4497,-2.4497,-2.4497,-2.4497,-2.4497,-2.4497,-2.4497,-2.4497,-2.4497,-2.4497,-2.4497,-2.4497,-2.4497,-2.4743,-2.5158,-2.5158,-2.5422,-2.577,-3.3549,-3.4239,-3.4872,-3.5126,-3.581,-3.6405,-3.6405,-3.5667,-3.5078,-3.4836,-3.4091,-3.3549,-3.3549,-3.3549,-3.3993,-3.5078,-3.4921,-3.3981,-3.2083,-3.2739,-3.2851,-3.1982,-3.275,-3.34,-3.3895,-3.3531,-3.2879,-3.1827,-3.1475,-3.0539,-2.9156,-2.9156,-2.8959,-2.8618,-2.8618,-2.8618,-2.8618,-2.8618,-2.8618,-2.8618,-2.8618,-2.8618,-2.8618,-2.8618,-2.8618,-2.8618,-2.8618,-2.8618,-2.8618,-2.8618,-2.8545,-2.8442,-2.8349,-2.8069,-2.7779,-2.7779,-2.7531,-2.7309,-2.7309,-2.7309,-2.7309,-2.7309,-2.7226,-2.704,-2.6573,-2.6351,-2.6175,-2.5813,-2.5658,-2.5482,-2.5106,-2.5034,-2.4921,-2.4559,-2.4497,-2.4497,-2.4497,-2.4497,-2.4497,-2.4497,-2.4497,-2.4497,-2.4497,-2.4497,-2.4497,-2.4497,-2.4497,-2.4497,-2.4497,-2.4497,-2.4497,-2.4497,-2.4497,-2.4497,-2.4497,-2.4497,-2.4497,-2.4497,-2.4497,-2.4497,-2.4497,-2.4497,-2.4497,-2.4497,-2.4497,-2.4497,-2.4497,-2.4497,-2.4497,-2.4497,-2.4497,-2.454,-2.4658,-2.4658,-2.4711,-2.4839,-3.2437,-3.2889,-3.3426,-3.3932,-3.4483,-3.4872,-3.4872,-3.4385,-3.3834,-3.3327,-3.2778,-3.2437,-3.2437,-3.2437,-3.2639,-3.3227,-3.3277,-3.2577,-3.0929,-3.1341,-3.1392,-3.0836,-3.1392,-3.1648,-3.1648,-3.1648,-3.1648,-3.1575,-3.1084,-3.041,-2.9632,-2.9632,-2.9508,-2.927,-2.927,-2.927,-2.927,-2.927,-2.927,-2.927,-2.927,-2.927,-2.927,-2.927,-2.927,-2.927,-2.927,-2.927,-2.9239,-2.9021,-2.8938,-2.8897,-2.868,-2.8452,-2.8214,-2.7986,-2.7759,-2.7531,-2.7372,-2.7309,-2.7309,-2.7309,-2.7309,-2.7247,-2.6998,-2.677,-2.6542,-2.6304,-2.6076,-2.5813,-2.5585,-2.5544,-2.5461,-2.5213,-2.4962,-2.4828,-2.4828,-2.4631,-2.4497,-2.4497,-2.4497,-2.4497,-2.4497,-2.4497,-2.4497,-2.4497,-2.4497,-2.4497,-2.4497,-2.4497,-2.4497,-2.4497,-2.4497,-2.4497,-2.4497,-2.4497,-2.4497,-2.4497,-2.4497,-2.4497,-2.4497,-2.4497,-2.4497,-2.4497,-2.4497,-2.4497,-2.4497,-2.4497,-2.4497,-2.4497,-2.4497,-2.4497,-2.4497,-2.4497,-2.4631,-2.4871,-3.1471,-3.1603,-3.198,-3.2812,-3.3101,-3.3201,-3.3201,-3.3051,-3.26,-3.1728,-3.1432,-3.133,-3.133,-3.1472,-3.1534,-3.133,-3.1472,-3.1135,-3.0047,-2.9994,-2.9994,-2.9994,-2.9994,-2.9994,-2.9994,-2.9994,-3.0443,-3.133,-3.0443,-2.9994,-2.9994,-2.9994,-2.9994,-2.9994,-2.9994,-2.9994,-2.9994,-2.9994,-2.9994,-2.9994,-2.9994,-2.9994,-2.9994,-2.9994,-2.9994,-2.9994,-2.9994,-2.9994,-2.9942,-2.9549,-2.9425,-2.9352,-2.897,-2.8794,-2.8659,-2.8276,-2.81,-2.7945,-2.7489,-2.7423,-2.7403,-2.733,-2.7309,-2.7309,-2.7309,-2.7009,-2.6739,-2.6739,-2.6428,-2.6092,-2.6009,-2.6044,-2.5968,-2.5885,-2.5575,-2.5303,-2.5303,-2.4962,-2.4724,-2.4724,-2.4662,-2.459,-2.4507,-2.4497,-2.4497,-2.4497,-2.4497,-2.4497,-2.4497,-2.4497,-2.4497,-2.4497,-2.4497,-2.4497,-2.4497,-2.458,-2.4621,-2.4621,-2.4693,-2.4642,-2.4497,-2.4497,-2.4497,-2.4497,-2.4497,-2.4497,-2.4497,-2.4497,-2.4549,-2.4621,-2.4621,-2.4662,-2.4724,-2.4724,-2.4972,-2.5303,-3.0924,-3.1549,-3.2129,-3.1856,-3.2588,-3.3201,-3.3201,-3.2387,-3.1779,-3.1626,-3.0785,-3.0193,-3.0193,-3.1032,-3.1238,-3.0297,-3.1084,-3.1135,-3.0047,-2.9994,-2.9994,-2.9994,-2.9994,-2.9994,-2.9994,-2.9994,-3.0047,-3.0193,-3.0047,-2.9994,-2.9994,-2.9994,-2.9994,-2.9994,-2.9994,-2.9994,-2.9994,-2.9994,-2.9994,-2.9994,-2.9994,-2.9994,-2.9994,-2.9994,-2.9994,-2.9994,-2.9994,-2.9994,-2.9984,-2.9922,-2.9901,-2.9891,-2.9829,-2.9528,-2.9197,-2.9135,-2.8835,-2.8421,-2.7955,-2.7831,-2.7738,-2.7403,-2.7309,-2.7309,-2.7309,-2.7258,-2.7216,-2.7216,-2.7164,-2.6998,-2.6594,-2.6521,-2.6387,-2.5993,-2.5823,-2.5792,-2.5792,-2.574,-2.5699,-2.5699,-2.5368,-2.4941,-2.4538,-2.4497,-2.4497,-2.4497,-2.4497,-2.4497,-2.4497,-2.4497,-2.4497,-2.4497,-2.4497,-2.4497,-2.4497,-2.489,-2.5096,-2.5096,-2.5523,-2.5295,-2.4497,-2.4497,-2.4497,-2.4497,-2.4497,-2.4497,-2.4497,-2.4497,-2.4735,-2.5096,-2.5096,-2.5368,-2.5699,-2.5699,-2.574,-2.5792,-3.1112,-3.1482,-3.1635,-3.1169,-3.1503,-3.1717,-3.1446,-3.0991,-3.0692,-3.0692,-3.0287,-2.9994,-2.9994,-3.0443,-3.0536,-3.0047,-3.0443,-3.0495,-3.0047,-2.9994,-2.9994,-2.9994,-2.9994,-2.9994,-2.9994,-2.9994,-2.9994,-2.9994,-2.9994,-2.9994,-2.9994,-2.9994,-2.9994,-2.9994,-2.9994,-2.9994,-2.9994,-2.9994,-2.9994,-2.9994,-2.9994,-2.9994,-2.9994,-2.9994,-2.9994,-2.9994,-2.9994,-2.9994,-2.9994,-2.9994,-2.9994,-2.9994,-2.9994,-2.986,-2.9642,-2.9384,-2.9156,-2.8897,-2.8431,-2.8307,-2.8204,-2.7738,-2.7634,-2.7572,-2.7361,-2.7309,-2.7309,-2.7309,-2.7309,-2.7247,-2.704,-2.6998,-2.6936,-2.6729,-2.648,-2.6304,-2.6304,-2.6086,-2.5875,-2.5875,-2.5709,-2.5513,-2.5306,-2.5285,-2.5285,-2.5285,-2.5285,-2.5285,-2.5285,-2.5285,-2.5285,-2.5285,-2.5285,-2.5285,-2.5285,-2.5492,-2.5595,-2.5595,-2.5792,-2.5668,-2.5285,-2.5285,-2.5285,-2.5285,-2.5285,-2.5285,-2.5285,-2.5285,-2.5409,-2.5595,-2.5595,-2.5709,-2.5875,-2.5875,-2.6086,-2.6304]},{"header":{"parameterUnit":"m.s-1","parameterCategory":1,"la1":30.6,"la2":28.766,"lo1":-90.7593,"lo2":-88.6598,"dy":0.0162,"dx":0.0183,"nx":116,"ny":114,"refTime":"2024-04-29T12:00:00:Z","depth":0,"parameterNumber":3,"parameterNumberName":"V-component_of_WINDS"},"data":[0.0,0.0,0.0,0.0,0.0,0.0,0.0,0.0,0.0,0.0,0.0,0.0,0.0,0.0,0.0,0.0,0.0,0.0,0.0,0.0,0.0,0.0,0.0,0.0,0.0,0.0,0.0,0.0,0.0,0.0,0.0,0.0,0.0,0.0,0.0,0.0,0.0,0.0,0.0,0.0,0.0,0.0,0.0,0.0,0.0,0.0,0.0,0.0,0.0,0.0,0.0,0.0,0.0,0.0,0.0,0.0,0.0,0.0,0.0,0.0,0.0,0.0,0.0,0.0,0.0,0.0,0.0,0.0,0.0,0.0,0.0,0.0,0.0,0.0,0.0,0.0,0.0,0.0,0.0,0.0,0.0,0.0,0.0,0.0,0.0,0.0,0.0,0.0,0.0,0.0,0.0,0.0,0.0,0.0,0.0,0.0,0.0,0.0,0.0,0.0,0.0,0.0,0.0,0.0,0.0,0.0,0.0,0.0,0.0,0.0,0.0,0.0,0.0,0.0,0.0,0.0,0.0,0.0,0.0,0.0,0.0,0.0,0.0,0.0,0.0,0.0,0.0,0.0,0.0,0.0,0.0,0.0,0.0,0.0,0.0,0.0,0.0,0.0,0.0,0.0,0.0,0.0,0.0,0.0,0.0,0.0,0.0,0.0,0.0,0.0,0.0,0.0,0.0,0.0,0.0,0.0,0.0,0.0,0.0,0.0,0.0,0.0,0.0,0.0,0.0,0.0,0.0,0.0,0.0,0.0,0.0,0.0,0.0,0.0,0.0,0.0,0.0,0.0,0.0,0.0,0.0,0.0,0.0,0.0,0.0,0.0,0.0,0.0,0.0,0.0,0.0,0.0,0.0,0.0,0.0,0.0,0.0,0.0,0.0,0.0,0.0,0.0,0.0,0.0,0.0,0.0,0.0,0.0,0.0,0.0,0.0,0.0,0.0,0.0,0.0,0.0,0.0,0.0,0.0,0.0,0.0,0.0,0.0,0.0,0.0,0.0,0.0,0.0,0.0,0.0,0.0,0.0,0.0,0.0,0.0,0.0,0.0,0.0,0.0,0.0,0.0,0.0,0.0,0.0,0.0,0.0,0.0,0.0,0.0,0.0,0.0,0.0,0.0,0.0,0.0,0.0,0.0,0.0,0.0,0.0,0.0,0.0,0.0,0.0,0.0,0.0,0.0,0.0,0.0,0.0,0.0,0.0,0.0,0.0,0.0,0.0,0.0,0.0,0.0,0.0,0.0,0.0,0.0,0.0,0.0,0.0,0.0,0.0,0.0,0.0,0.0,0.0,0.0,0.0,0.0,0.0,0.0,0.0,0.0,0.0,0.0,0.0,0.0,0.0,0.0,0.0,0.0,0.0,0.0,0.0,0.0,0.0,0.0,0.0,0.0,0.0,0.0,0.0,0.0,0.0,0.0,0.0,0.0,0.0,0.0,0.0,0.0,0.0,0.0,0.0,0.0,0.0,0.0,0.0,0.0,0.0,0.0,0.0,0.0,0.0,0.0,0.0,0.0,0.0,0.0,0.0,0.0,0.0,0.0,0.0,0.0,0.0,0.0,0.0,0.0,0.0,0.0,0.0,0.0,0.0,0.0,0.0,0.0,0.0,0.0,0.0,0.0,0.0,0.0,0.0,0.0,0.0,0.0,0.0,0.0,0.0,0.0,0.0,0.0,0.0,0.0,0.0,0.0,0.0,0.0,0.0,0.0,0.0,0.0,0.0,0.0,0.0,0.0,0.0,0.0,0.0,0.0,0.0,0.0,0.0,0.0,0.0,0.0,0.0,0.0,0.0,0.0,0.0,0.0,0.0,0.0,0.0,0.0,0.0,0.0,0.0,0.0,0.0,0.0,0.0,0.0,0.0,0.0,0.0,0.0,0.0,0.0,0.0,0.0,0.0,0.0,0.0,0.0,0.0,0.0,0.0,0.0,0.0,0.0,0.0,0.0,0.0,0.0,0.0,0.0,0.0,0.0,0.0,0.0,0.0,0.0,0.0,0.0,0.0,0.0,0.0,0.0,0.0,0.0,0.0,0.0,0.0,0.0,0.0,0.0,0.0,0.0,0.0,0.0,0.0,0.0,0.0,0.0,0.0,0.0,0.0,0.0,0.0,0.0,0.0,0.0,0.0,0.0,0.0,0.0,0.0,0.0,0.0,0.0,0.0,0.0,0.0,0.0,0.0,0.0,0.0,0.0,0.0,0.0,0.0,0.0,0.0,0.0,0.0,0.0,0.0,0.0,0.0,0.0,0.0,0.0,0.0,0.0,0.0,0.0,0.0,0.0,0.0,0.0,0.0,0.0,0.0,0.0,0.0,0.0,0.0,0.0,0.0,0.0,0.0,0.0,0.0,0.0,0.0,0.0,0.0,0.0,0.0,0.0,0.0,0.0,0.0,0.0,0.0,0.0,0.0,0.0,0.0,0.0,0.0,0.0,0.0,0.0,0.0,0.0,0.0,0.0,0.0,0.0,0.0,0.0,0.0,0.0,0.0,0.0,0.0,0.0,0.0,0.0,0.0,0.0,0.0,0.0,0.0,0.0,0.0,0.0,0.0,0.0,0.0,0.0,0.0,0.0,0.0,0.0,0.0,0.0,0.0,0.0,0.0,0.0,0.0,0.0,0.0,0.0,0.0,0.0,0.0,0.0,0.0,0.0,0.0,0.0,0.0,0.0,0.0,0.0,0.0,0.0,0.0,0.0,0.0,0.0,0.0,0.0,0.0,0.0,0.0,0.0,0.0,0.0,0.0,0.0,0.0,0.0,0.0,0.0,0.0,0.0,0.0,0.0,0.0,0.0,0.0,0.0,0.0,0.0,0.0,0.0,0.0,0.0,0.0,0.0,0.0,0.0,0.0,0.0,0.0,0.0,0.0,0.0,0.0,0.0,0.0,0.0,0.0,0.0,0.0,0.0,0.0,0.0,0.0,0.0,0.0,0.0,0.0,0.0,0.0,0.0,0.0,0.0,0.0,0.0,0.0,0.0,0.0,0.0,0.0,0.0,0.0,0.0,0.0,0.0,0.0,0.0,0.0,0.0,0.0,0.0,0.0,0.0,0.0,0.0,0.0,0.0,0.0,0.0,0.0,0.0,0.0,0.0,0.0,0.0,0.0,0.0,0.0,0.0,0.0,0.0,0.0,0.0,0.0,0.0,0.0,0.0,0.0,0.0,0.0,0.0,0.0,0.0,0.0,0.0,0.0,0.0,0.0,0.0,0.0,0.0,0.0,0.0,0.0,0.0,0.0,0.0,0.0,0.0,0.0,0.0,0.0,0.0,0.0,0.0,0.0,0.0,0.0,0.0,0.0,0.0,0.0,0.0,0.0,0.0,0.0,0.0,0.0,0.0,0.0,0.0,0.0,0.0,0.0,0.0,0.0,0.0,0.0,0.0,0.0,0.0,0.0,0.0,0.0,0.0,0.0,0.0,0.0,0.0,0.0,0.0,0.0,0.0,0.0,0.0,0.0,0.0,0.0,0.0,0.0,0.0,0.0,0.0,0.0,0.0,0.0,0.0,0.0,0.0,0.0,0.0,0.0,0.0,0.0,0.0,0.0,0.0,0.0,0.0,0.0,0.0,0.0,0.0,0.0,0.0,0.0,0.0,0.0,0.0,0.0,0.0,0.0,0.0,0.0,0.0,0.0,0.0,0.0,0.0,0.0,0.0,0.0,0.0,0.0,0.0,0.0,0.0,0.0,0.0,0.0,0.0,0.0,0.0,0.0,0.0,0.0,0.0,0.0,0.0,0.0,0.0,0.0,0.0,0.0,0.0,0.0,0.0,0.0,0.0,0.0,0.0,0.0,0.0,0.0,0.0,0.0,0.0,0.0,0.0,0.0,0.0,0.0,0.0,0.0,0.0,0.0,0.0,0.0,0.0,0.0,0.0,0.0,0.0,0.0,0.0,0.0,0.0,0.0,0.0,0.0,0.0,0.0,0.0,0.0,0.0,0.0,0.0,0.0,0.0,0.0,0.0,0.0,0.0,0.0,0.0,0.0,0.0,0.0,0.0,0.0,0.0,0.0,0.0,0.0,0.0,0.0,0.0,0.0,0.0,0.0,0.0,0.0,0.0,0.0,0.0,0.0,0.0,0.0,0.0,0.0,0.0,0.0,0.0,0.0,0.0,0.0,0.0,0.0,0.0,0.0,0.0,0.0,0.0,0.0,0.0,0.0,0.0,0.0,0.0,0.0,0.0,0.0,0.0,0.0,0.0,0.0,0.0,0.0,0.0,0.0,0.0,0.0,0.0,0.0,0.0,0.0,0.0,0.0,0.0,0.0,0.0,0.0,0.0,0.0,0.0,0.0,0.0,0.0,0.0,0.0,0.0,0.0,0.0,0.0,0.0,0.0,0.0,0.0,0.0,0.0,0.0,0.0,0.0,0.0,0.0,0.0,0.0,0.0,0.0,0.0,0.0,0.0,0.0,0.0,0.0,0.0,0.0,0.0,0.0,0.0,0.0,0.0,0.0,0.0,0.0,0.0,0.0,0.0,0.0,0.0,0.0,0.0,0.0,0.0,0.0,0.0,0.0,0.0,0.0,0.0,0.0,0.0,0.0,0.0,0.0,0.0,0.0,0.0,0.0,0.0,0.0,0.0,0.0,0.0,0.0,0.0,0.0,0.0,0.0,0.0,0.0,0.0,0.0,0.0,0.0,0.0,0.0,0.0,0.0,0.0,0.0,0.0,0.0,0.0,0.0,0.0,0.0,0.0,0.0,0.0,0.0,0.0,0.0,0.0,0.0,0.0,0.0,0.0,0.0,0.0,0.0,0.0,0.0,0.0,0.0,0.0,0.0,0.0,0.0,0.0,0.0,0.0,0.0,0.0,0.0,0.0,0.0,0.0,0.0,0.0,0.0,0.0,0.0,0.0,0.0,0.0,0.0,0.0,0.0,0.0,0.0,0.0,0.0,0.0,0.0,0.0,0.0,0.0,0.0,0.0,0.0,0.0,0.0,0.0,0.0,0.0,0.0,0.0,0.0,0.0,0.0,0.0,0.0,0.0,0.0,0.0,0.0,0.0,0.0,0.0,0.0,0.0,0.0,0.0,0.0,0.0,0.0,0.0,0.0,0.0,0.0,0.0,0.0,0.0,0.0,0.0,0.0,0.0,0.0,0.0,0.0,0.0,0.0,0.0,0.0,0.0,0.0,0.0,0.0,0.0,0.0,0.0,0.0,0.0,0.0,0.0,0.0,0.0,0.0,0.0,0.0,0.0,0.0,0.0,0.0,0.0,0.0,0.0,0.0,0.0,0.0,0.0,0.0,0.0,0.0,0.0,0.0,0.0,0.0,0.0,0.0,0.0,0.0,0.0,0.0,0.0,0.0,0.0,0.0,0.0,0.0,0.0,0.0,0.0,0.0,0.0,0.0,0.0,0.0,0.0,0.0,0.0,0.0,0.0,0.0,0.0,0.0,0.0,0.0,0.0,0.0,0.0,0.0,0.0,0.0,0.0,0.0,0.0,0.0,0.0,0.0,0.0,0.0,0.0,0.0,0.0,0.0,0.0,0.0,0.0,0.0,0.0,0.0,0.0,0.0,0.0,0.0,0.0,0.0,0.0,0.0,0.0,0.0,0.0,0.0,0.0,0.0,0.0,0.0,0.0,0.0,0.0,0.0,0.0,0.0,0.0,0.0,0.0,0.0,0.0,0.0,0.0,0.0,0.0,0.0,0.0,0.0,0.0,0.0,0.0,0.0,0.0,0.0,0.0,0.0,0.0,0.0,0.0,0.0,0.0,0.0,0.0,0.0,0.0,0.0,0.0,0.0,0.0,0.0,0.0,0.0,0.0,0.0,0.0,0.0,0.0,0.0,0.0,0.0,0.0,0.0,0.0,0.0,0.0,0.0,0.0,0.0,0.0,0.0,0.0,0.0,0.0,0.0,0.0,0.0,0.0,0.0,0.0,0.0,0.0,0.0,0.0,0.0,0.0,0.0,0.0,0.0,0.0,0.0,0.0,0.0,0.0,0.0,0.0,0.0,0.0,0.0,0.0,0.0,0.0,0.0,0.0,0.0,0.0,0.0,0.0,0.0,0.0,0.0,0.0,0.0,0.0,0.0,0.0,0.0,0.0,0.0,0.0,0.0,0.0,0.0,0.0,1.4007,0.0,0.0,0.0,0.0,0.0,0.0,0.0,0.0,0.0,0.0,0.0,0.0,0.0,0.0,0.0,0.0,0.0,0.0,0.0,0.0,0.0,0.0,0.0,0.0,1.5234,1.513,1.5569,1.5311,1.5193,1.5345,0.0,0.0,0.0,0.0,0.0,1.6466,1.6937,1.7256,1.7418,1.7559,1.7794,1.8087,1.8305,1.8488,1.8655,0.0,0.0,0.0,0.0,0.0,0.0,0.0,0.0,0.0,0.0,0.0,0.0,0.0,0.0,0.0,0.0,0.0,0.0,0.0,0.0,0.0,0.0,0.0,0.0,0.0,0.0,0.0,0.0,0.0,0.0,0.0,0.0,0.0,0.0,0.0,0.0,0.0,0.0,0.0,0.0,0.0,0.0,0.0,0.0,0.0,0.0,0.0,0.0,0.0,0.0,0.0,0.0,0.0,0.0,0.0,0.0,0.0,0.0,0.0,0.0,0.0,0.0,0.0,0.0,0.0,0.0,0.0,0.0,0.0,0.0,0.0,1.3202,0.0,0.0,0.0,0.0,0.0,0.0,0.0,0.0,0.0,0.0,0.0,0.0,0.0,0.0,0.0,0.0,0.0,0.0,0.0,0.0,0.0,1.5475,1.6025,1.5548,1.5508,1.6346,1.6118,1.6028,1.6316,1.6262,1.6159,1.6079,1.625,1.6332,1.6317,1.7055,1.753,1.7697,1.794,1.7993,1.7867,1.8165,1.8447,1.8745,1.9328,0.0,0.0,0.0,0.0,0.0,0.0,0.0,0.0,0.0,0.0,0.0,0.0,0.0,0.0,0.0,0.0,0.0,0.0,0.0,0.0,0.0,0.0,0.0,0.0,0.0,0.0,0.0,0.0,0.0,0.0,0.0,0.0,0.0,0.0,0.0,0.0,0.0,0.0,0.0,0.0,0.0,0.0,0.0,0.0,0.0,0.0,0.0,0.0,0.0,0.0,0.0,0.0,0.0,0.0,0.0,0.0,0.0,0.0,0.0,0.0,0.0,0.0,0.0,1.199,1.1735,1.1735,1.1735,1.1535,1.1175,1.156,1.1785,1.1934,1.2482,0.0,0.0,0.0,0.0,0.0,0.0,0.0,0.0,0.0,0.0,0.0,0.0,0.0,0.0,0.0,0.0,0.0,0.0,0.0,1.5353,1.5946,1.5683,1.5618,1.6028,1.5766,1.558,1.5636,1.526,1.5421,1.6304,1.5929,1.6187,1.7215,1.6967,1.6855,1.6938,1.6802,1.679,1.69,1.7039,1.7157,1.7261,1.8577,1.9176,1.9195,0.0,0.0,0.0,0.0,0.0,0.0,0.0,0.0,0.0,0.0,0.0,0.0,0.0,0.0,0.0,0.0,0.0,0.0,0.0,0.0,0.0,0.0,0.0,0.0,0.0,0.0,0.0,0.0,0.0,0.0,0.0,0.0,0.0,0.0,0.0,0.0,0.0,0.0,0.0,0.0,0.0,1.3532,1.3406,0.0,0.0,0.0,0.0,0.0,0.0,0.0,0.0,0.0,0.0,0.0,0.0,0.0,1.2759,1.231,1.1776,1.151,1.1485,1.0939,1.0693,1.0693,1.0693,1.0667,1.0624,1.0667,0.0,1.1393,1.1494,0.0,0.0,0.0,0.0,0.0,0.0,0.0,0.0,0.0,0.0,0.0,0.0,0.0,0.0,0.0,0.0,0.0,0.0,0.0,0.0,0.0,1.5757,1.5649,1.5873,1.5748,1.5781,1.6038,1.5855,1.6071,1.6812,1.6615,1.6752,1.7274,1.6842,1.6423,1.6064,1.602,1.5932,1.5812,1.6054,1.6163,1.6207,1.7037,1.7814,1.85,1.8917,0.0,0.0,0.0,0.0,0.0,0.0,0.0,0.0,0.0,0.0,0.0,0.0,0.0,0.0,0.0,0.0,0.0,0.0,0.0,0.0,0.0,0.0,0.0,0.0,0.0,0.0,0.0,0.0,0.0,0.0,0.0,0.0,0.0,0.0,0.0,0.0,0.0,0.0,0.0,1.4225,1.3917,1.3573,1.3773,1.4039,0.0,0.0,0.0,0.0,0.0,0.0,0.0,0.0,0.0,1.2365,1.2095,1.1841,1.161,1.1091,1.0845,1.0845,1.0616,1.0496,1.0496,1.0496,1.0496,1.0496,1.0496,1.0616,1.0871,1.1175,1.1418,1.1669,0.0,0.0,0.0,0.0,1.2393,1.2295,0.0,0.0,0.0,0.0,0.0,0.0,0.0,0.0,0.0,0.0,0.0,0.0,1.618,1.5877,1.5696,1.5796,1.581,1.5942,1.6293,1.6207,1.6358,1.6829,1.6744,1.6723,1.685,1.638,1.5856,1.5311,1.5345,1.5277,1.5108,1.5356,1.5479,1.5479,1.582,1.6608,1.7727,1.8212,1.8616,0.0,0.0,0.0,0.0,0.0,0.0,0.0,0.0,0.0,0.0,0.0,0.0,0.0,0.0,0.0,0.0,0.0,0.0,0.0,0.0,0.0,0.0,0.0,0.0,0.0,0.0,0.0,0.0,0.0,0.0,0.0,0.0,0.0,0.0,0.0,0.0,0.0,0.0,1.4156,1.3894,1.3634,1.3705,1.3752,0.0,0.0,0.0,0.0,0.0,0.0,1.1834,1.181,1.176,1.161,1.1267,1.1099,1.1099,1.0782,1.0631,1.0631,1.0719,1.0759,1.0759,1.0759,1.0759,1.0759,1.0759,1.0759,1.0769,1.0996,1.1099,1.115,1.1635,1.181,1.181,1.181,1.181,1.176,0.0,0.0,0.0,0.0,0.0,0.0,0.0,0.0,0.0,0.0,0.0,1.5831,1.6409,1.6058,1.5796,1.581,1.581,1.581,1.5832,1.5434,1.539,1.5854,1.5445,1.5412,1.5854,1.5412,1.504,1.4754,1.4754,1.4857,1.5108,1.5108,1.5131,1.5131,1.5479,1.6086,1.6858,1.6701,1.7284,1.8324,0.0,0.0,0.0,0.0,0.0,0.0,0.0,0.0,0.0,0.0,0.0,0.0,0.0,0.0,0.0,0.0,0.0,0.0,0.0,0.0,0.0,0.0,0.0,0.0,0.0,0.0,0.0,0.0,0.0,0.0,0.0,0.0,0.0,0.0,0.0,0.0,0.0,0.0,0.0,1.3539,1.2711,0.0,0.0,0.0,0.0,1.2749,1.2301,1.181,1.1352,1.1352,1.1099,1.059,1.0539,1.0547,1.0547,1.083,1.0971,1.0979,1.1289,1.1439,1.1439,1.1439,1.1439,1.1439,1.1439,1.1439,1.1384,1.0785,1.0547,1.059,1.1124,1.1352,1.1352,1.1352,1.1352,1.1251,0.0,0.0,0.0,1.6209,1.5863,1.5787,1.617,1.6139,1.6271,1.6833,1.6741,1.6494,1.6083,1.582,1.5466,1.4949,1.4812,1.4949,1.5311,1.5187,1.53,1.5788,1.5645,1.549,1.5345,1.5198,1.4903,1.4523,1.4523,1.4558,1.4651,1.4651,1.4805,1.5083,1.49,1.5314,1.6201,1.6635,1.7076,1.7489,1.7814,1.8075,0.0,0.0,0.0,0.0,0.0,0.0,0.0,0.0,0.0,0.0,0.0,0.0,0.0,0.0,0.0,0.0,0.0,0.0,0.0,0.0,0.0,0.0,0.0,0.0,0.0,0.0,0.0,0.0,0.0,0.0,0.0,0.0,0.0,0.0,0.0,0.0,0.0,1.3586,1.3252,0.0,1.3552,1.2844,1.2374,1.2295,1.1712,1.1196,1.0811,1.0794,1.0806,1.083,1.0812,1.0942,1.1149,1.1249,1.1312,1.1312,1.1431,1.1487,1.1487,1.1487,1.1487,1.1487,1.1487,1.1487,1.1471,1.1225,1.1029,1.0814,1.079,1.0916,1.1121,1.1121,1.1233,1.1393,0.0,1.7586,0.0,1.6609,1.6346,1.6342,1.6745,1.673,1.6732,1.6938,1.6795,1.6355,1.5589,1.5265,1.4903,1.4385,1.4292,1.4432,1.4834,1.4857,1.5006,1.5299,1.5321,1.5175,1.488,1.4857,1.4775,1.4648,1.4648,1.4712,1.4864,1.4864,1.5039,1.5309,1.5017,1.527,1.6012,1.654,1.6841,1.6964,1.7289,1.7625,1.7922,0.0,0.0,0.0,0.0,0.0,0.0,0.0,0.0,0.0,0.0,0.0,0.0,0.0,0.0,0.0,0.0,0.0,0.0,0.0,0.0,0.0,0.0,0.0,0.0,0.0,0.0,0.0,0.0,0.0,0.0,0.0,0.0,0.0,0.0,0.0,1.3375,1.3512,1.3125,1.2866,1.2988,1.2319,1.1834,1.166,1.1249,1.0947,1.0846,1.095,1.1098,1.1336,1.1463,1.1659,1.1874,1.1972,1.2027,1.2035,1.2146,1.2194,1.2194,1.2194,1.2139,1.2027,1.2027,1.1993,1.1874,1.1717,1.1543,1.1304,1.0982,1.0982,1.1161,1.1161,1.1233,1.1304,1.8089,1.7821,1.772,1.772,1.7549,1.7384,1.7384,1.7274,1.7031,1.6565,1.5986,1.5444,1.4971,1.4501,1.4222,1.4199,1.4326,1.4396,1.4396,1.4396,1.4396,1.4396,1.4396,1.4396,1.4396,1.4418,1.4624,1.5105,1.5116,1.5342,1.5811,1.5811,1.5822,1.5833,1.5822,1.599,1.63,1.6289,1.6473,1.6778,1.6607,1.7073,1.7902,0.0,0.0,0.0,0.0,0.0,0.0,0.0,0.0,0.0,0.0,0.0,0.0,0.0,0.0,0.0,0.0,0.0,0.0,0.0,0.0,0.0,0.0,0.0,0.0,0.0,0.0,0.0,0.0,0.0,0.0,0.0,0.0,0.0,1.3584,1.3142,1.2959,1.3326,1.2163,1.1464,1.178,1.1058,1.0697,1.1029,1.1042,1.1185,1.1511,1.1845,1.2014,1.2022,1.2423,1.2614,1.2622,1.2965,1.3108,1.3108,1.3433,1.3618,1.3618,1.3618,1.341,1.3108,1.3108,1.2941,1.2598,1.221,1.2037,1.1998,1.1638,1.1495,1.1511,1.1511,1.1312,1.0995,1.8874,1.8344,1.7981,1.7981,1.7564,1.7253,1.7253,1.722,1.7031,1.6565,1.6358,1.5932,1.5119,1.4835,1.4617,1.4373,1.4303,1.4303,1.4396,1.4396,1.4396,1.4396,1.4396,1.4396,1.4396,1.4722,1.4974,1.5105,1.544,1.568,1.5811,1.5811,1.5985,1.6291,1.5953,1.6037,1.6394,1.5928,1.5986,1.6476,1.6961,1.7447,1.7902,0.0,0.0,0.0,0.0,0.0,0.0,0.0,0.0,0.0,0.0,0.0,0.0,0.0,0.0,0.0,0.0,0.0,0.0,0.0,0.0,0.0,0.0,0.0,0.0,0.0,0.0,0.0,0.0,0.0,0.0,0.0,1.479,1.4404,1.3571,1.3204,1.2978,1.2844,1.2476,1.2268,1.2384,1.2023,1.1925,1.2272,1.2214,1.22,1.2296,1.2391,1.2566,1.279,1.2893,1.3092,1.3331,1.3434,1.3449,1.3449,1.357,1.3618,1.3618,1.3618,1.3537,1.3449,1.3449,1.3426,1.3331,1.3195,1.3155,1.3044,1.1924,1.1646,1.1868,1.1868,1.198,1.2152,1.8955,1.8486,1.81,1.7881,1.7537,1.7253,1.7199,1.7199,1.6955,1.6281,1.6173,1.5766,1.4823,1.4663,1.4524,1.4326,1.4303,1.4326,1.4396,1.4396,1.4396,1.4396,1.4396,1.4495,1.4703,1.4963,1.5301,1.5694,1.6171,1.652,1.6727,1.6912,1.7071,1.7125,1.6836,1.683,1.6976,1.6357,1.631,1.6658,1.6859,1.7162,1.7502,1.7645,1.7686,1.7706,1.7862,1.7902,1.7882,1.7747,0.0,0.0,0.0,0.0,0.0,0.0,0.0,0.0,0.0,0.0,0.0,0.0,0.0,0.0,0.0,0.0,0.0,0.0,0.0,0.0,0.0,0.0,0.0,0.0,1.4174,1.3798,1.3221,1.3218,1.3151,1.2848,1.2492,1.2352,1.2595,1.2352,1.2373,1.2879,1.2849,1.2877,1.3012,1.3164,1.3306,1.3513,1.3664,1.3831,1.4021,1.4029,1.4029,1.4029,1.4029,1.4029,1.4029,1.4029,1.3942,1.3807,1.3807,1.3719,1.3618,1.3618,1.3618,0.0,0.0,0.0,0.0,0.0,1.2154,1.2343,1.8789,1.8481,1.8206,1.7679,1.7481,1.735,1.7253,1.7199,1.6858,1.592,1.571,1.5265,1.4316,1.4222,1.4222,1.4222,1.4326,1.4396,1.4396,1.4396,1.4396,1.4396,1.4451,1.4657,1.5094,1.5214,1.5705,1.6601,1.7114,1.7606,1.8097,1.8501,1.8469,1.8086,1.8032,1.7902,1.7712,1.7127,1.6977,1.7033,1.648,1.6495,1.6897,1.7199,1.7331,1.7434,1.7686,1.7842,1.7862,1.7509,0.0,0.0,0.0,0.0,0.0,0.0,0.0,0.0,0.0,0.0,0.0,0.0,0.0,0.0,0.0,0.0,0.0,0.0,0.0,0.0,0.0,0.0,0.0,0.0,1.293,1.2563,1.2834,1.3241,1.3382,1.3076,1.2354,1.2086,1.262,1.2329,1.2432,1.3155,1.3203,1.3346,1.368,0.0,0.0,0.0,0.0,1.4605,1.4605,1.4605,1.4605,1.4605,1.4605,1.4605,1.4605,1.4605,1.4431,1.4172,1.4172,1.3989,1.3703,1.3703,1.368,1.3608,1.3282,1.3147,1.3068,1.2432,1.217,1.2091,1.9566,1.9095,1.866,1.8226,1.7733,1.7384,1.7363,1.7274,1.6858,1.592,1.5788,1.5411,1.4466,1.435,1.435,1.435,1.4384,1.4396,1.4396,1.4396,1.4396,1.4396,1.4755,1.5006,1.5105,1.5847,1.6535,1.7164,1.7628,1.8097,1.8556,1.8643,1.8643,1.8545,1.8174,1.7984,1.79,1.7201,1.6916,1.6867,1.6184,1.6178,1.6591,1.6659,1.6976,1.7372,1.717,1.744,1.7862,1.7509,1.7447,1.7529,1.7747,0.0,0.0,0.0,0.0,0.0,0.0,0.0,0.0,0.0,0.0,0.0,0.0,0.0,0.0,0.0,0.0,0.0,0.0,0.0,0.0,1.458,1.4045,1.3504,1.324,1.3364,1.3291,1.2759,1.2538,1.2601,1.2973,1.2925,1.3171,1.3862,1.3918,1.4069,1.4383,1.4462,1.4502,1.4502,1.4573,1.4605,1.4605,1.4605,1.4605,1.4605,0.0,0.0,1.4605,1.4605,1.4565,1.4502,1.4502,1.4462,1.4399,1.4399,1.4268,1.3974,1.3624,1.3489,1.3506,1.333,1.3116,1.2869,1.978,1.9314,1.8789,1.8115,1.7747,1.7536,1.7461,1.7357,1.7052,1.6346,1.6194,1.5888,1.5175,1.4892,1.4743,1.4743,1.4535,1.4396,1.4396,1.4396,1.4396,1.4396,1.4613,1.4974,1.5429,1.5909,1.6629,1.7639,1.8119,1.8589,1.9058,1.931,1.9288,1.9037,1.8556,1.8217,1.7955,1.7363,1.6954,1.6656,1.6028,1.5934,1.6161,1.6218,1.6445,1.6723,1.6842,1.7107,1.7337,1.685,1.6808,1.6934,1.6795,1.6548,1.6364,0.0,0.0,0.0,0.0,0.0,0.0,0.0,0.0,0.0,0.0,0.0,0.0,0.0,0.0,1.5555,1.5052,0.0,1.4666,1.4391,1.3846,1.3489,1.3635,1.3301,1.3033,1.295,1.2897,1.306,1.3553,1.36,1.3815,1.4304,1.4344,1.4423,1.4597,1.4605,1.4605,1.4605,1.4605,1.4605,1.4605,1.4605,1.4605,1.4605,1.4605,1.4605,1.4605,1.4605,1.4605,1.4605,1.4605,1.4605,1.4605,1.4605,1.4502,1.432,1.418,1.3894,1.3618,1.3618,1.3481,1.3338,1.978,1.9453,1.8917,1.7996,1.7828,1.7747,1.757,1.7453,1.7225,1.6765,1.6573,1.6315,1.5854,1.5467,1.5187,1.5108,1.4674,1.4396,0.0,1.4396,1.4396,1.4396,1.4495,1.493,1.5789,1.5898,1.6607,1.801,1.837,1.8807,1.9288,1.9649,1.9627,1.9255,1.8774,1.8348,1.7977,1.7514,1.6983,1.6454,1.6048,1.5817,1.5737,1.586,1.5966,1.612,1.6534,1.6769,1.6812,1.625,1.6207,1.6337,1.5923,1.581,1.5832,1.5876,1.5733,0.0,0.0,0.0,0.0,0.0,0.0,0.0,0.0,1.4897,1.5197,1.5123,1.5452,1.5513,1.4646,1.4651,1.4528,1.376,1.3238,1.3122,1.3638,1.3256,1.3011,1.3401,1.3364,1.3537,1.4156,1.4212,1.4296,1.4581,1.4605,1.4605,1.4605,1.4605,1.4605,1.4605,1.4676,1.4708,1.4708,1.4771,1.4803,1.4803,1.4803,1.4803,1.4803,1.4803,1.4803,1.4803,1.474,1.4708,1.47,1.4629,1.4605,1.4605,1.4605,1.4256,1.3791,1.3791,1.3743,1.3688,1.978,1.9657,1.9365,1.8553,1.8319,1.8101,1.774,1.7528,1.7225,1.6765,1.6573,1.6315,1.5854,1.5744,1.5557,1.5131,1.4674,1.4396,1.4396,1.4396,1.4396,1.4396,1.4799,1.5279,1.58,1.6203,1.6934,1.801,1.8065,1.8316,1.8774,1.8829,1.8818,1.8753,1.8283,1.8054,1.7977,1.7514,1.6983,1.6481,1.6243,1.5905,1.5546,1.5555,1.5856,1.6238,1.6001,1.6328,1.6833,1.6411,1.6173,1.6098,1.6333,1.57,1.5143,1.6513,1.6266,1.5714,1.6603,1.6028,1.5074,1.4636,1.4836,1.5118,0.0,1.5375,1.5596,1.5189,1.5371,1.5363,1.4562,1.3948,1.3479,1.3136,1.2851,1.2681,1.2761,1.3443,1.3942,1.4002,1.4008,1.4114,1.451,1.455,1.4557,1.4597,1.4605,1.4605,1.4605,1.4605,1.4605,1.4605,1.4951,1.5125,1.5125,1.5419,1.5601,1.5601,1.5601,1.5601,1.5601,1.5601,1.5601,1.5547,1.5253,1.5125,1.5102,1.474,1.4605,1.4605,1.4605,1.4557,1.4486,1.4486,1.4288,1.4053,2.008,2.0045,1.9869,1.9295,1.8955,1.8707,1.8548,1.8195,1.7841,1.7666,1.7318,1.6997,1.6757,1.6423,1.5923,1.5153,1.4926,1.4697,1.443,1.4396,1.4396,1.4396,1.4604,1.4908,1.5375,1.5844,1.6601,1.7584,1.7868,1.8239,1.8687,1.8687,1.8687,1.8665,1.8206,1.801,1.7955,1.7319,1.6948,1.6682,1.616,1.594,1.5879,1.5588,1.5702,1.5988,1.5859,1.6185,0.0,0.0,1.5994,1.6155,1.6166,1.5811,1.5543,1.6209,1.608,1.5794,1.6056,1.561,1.5061,1.4847,1.4952,1.5028,1.4744,1.4843,1.4815,1.4229,1.4376,1.4374,1.362,1.3606,1.3764,0.0,1.3566,1.3559,1.3982,1.4067,1.4188,1.4359,1.4383,1.4439,1.4589,1.4605,1.4605,1.4605,1.4605,1.4692,1.4943,1.4959,1.5046,1.5237,1.5388,1.5505,1.5505,1.5648,1.5712,1.5712,1.5712,1.5712,1.5712,1.5712,1.5712,1.5704,1.5569,1.5505,1.5497,1.5308,1.5245,1.5229,1.5038,1.4959,1.4927,1.4684,1.451,1.4383,2.0304,2.0304,2.0218,1.9922,1.9636,1.9362,1.9139,1.8745,1.8442,1.8305,1.7928,1.7598,1.7425,1.6897,1.6272,1.5546,1.5367,1.5096,1.4628,1.4581,1.4535,1.4407,1.4396,1.4613,1.5094,1.5429,1.6018,1.6885,1.7234,1.7639,1.8086,1.8086,1.8163,1.8283,1.7802,1.7595,1.754,1.6968,1.664,1.6476,1.6067,1.5951,1.5986,1.5677,1.5669,1.5792,1.5792,1.6128,0.0,0.0,1.6125,1.6456,1.6019,1.5866,1.5794,1.5794,1.5794,1.5746,1.5554,1.5224,1.4908,1.4908,1.4908,1.481,1.4484,1.4396,1.4289,1.3944,1.4069,1.4033,1.3325,1.3672,1.4058,1.3981,1.3919,1.4104,1.4731,1.45,1.432,1.4573,1.4605,1.4605,1.4605,1.4605,1.4645,1.4748,1.4756,1.4943,1.53,1.5354,1.5465,1.5704,1.5777,1.5825,1.5825,1.592,1.5968,1.5968,1.5968,1.5968,1.5968,1.5968,1.5968,1.596,1.5864,1.5825,1.5817,1.5752,1.5712,1.5696,1.5411,1.5354,1.5284,1.5022,1.4771,1.4605,2.0304,2.0304,2.0304,2.0287,2.027,1.9993,1.9232,1.8978,1.8741,1.8344,1.8179,1.7914,1.7446,1.6968,1.6637,1.6466,1.6042,1.5579,1.5108,1.5085,1.488,1.443,1.4396,1.4613,1.5094,1.5116,1.5353,1.5854,1.5865,1.6105,1.6563,1.6563,1.6841,1.7328,1.6787,1.6541,1.6535,1.6303,1.595,1.5575,1.602,1.5927,1.5537,1.5726,1.5792,1.5792,1.5792,0.0,0.0,1.6583,1.68,1.6938,1.6146,1.5711,0.0,1.5506,1.5506,1.5506,1.5506,1.4969,1.4418,1.4418,1.4418,1.4418,1.4407,1.4396,1.4515,1.496,1.5069,1.4891,1.4265,1.4176,1.3949,1.3234,1.3411,1.3729,1.4095,1.4375,1.4589,1.4605,1.4605,1.4605,0.0,1.4605,1.4748,1.5141,1.5165,1.5316,1.568,1.5666,1.5704,1.5712,1.6015,1.619,1.619,1.6491,1.6665,1.6665,1.6665,1.6665,1.6665,1.6665,1.6665,1.6642,1.6341,1.619,1.6158,1.5817,1.5712,1.5712,1.5704,1.5666,1.5696,1.5688,1.5213,1.4605,2.0304,2.0304,2.0304,2.0304,2.0304,2.0218,1.994,1.9639,1.9369,1.924,1.864,0.0,0.0,0.0,0.0,0.0,1.6423,1.6064,1.5601,1.5557,1.5355,1.488,1.4857,1.4798,1.4648,1.4941,1.5192,1.5331,1.5647,1.5887,1.604,1.604,1.6127,1.6291,1.6116,1.6133,1.628,1.6052,1.5954,1.5961,1.5949,1.5836,1.5703,1.577,1.5792,1.584,0.0,0.0,1.7123,1.7123,1.7207,1.7242,1.699,1.6586,1.6197,1.6079,1.5648,1.521,1.5024,1.4691,1.4396,1.4396,1.4396,1.4396,1.4396,1.4624,1.468,1.4113,1.4666,1.5009,1.4035,1.3874,1.3959,1.4196,1.3868,1.3791,1.4344,1.4526,1.4605,1.4605,1.4605,0.0,0.0,0.0,0.0,1.5173,1.5425,1.5666,1.6007,1.6031,1.6134,1.6373,1.6451,1.6515,1.6515,1.6634,1.6689,1.6689,1.6689,1.6689,1.6689,1.6689,1.6689,1.6681,1.6562,1.6515,1.6507,1.6428,1.6373,1.6357,1.6118,1.6031,1.5999,1.5761,1.5713,1.5666,0.0,2.0304,2.0304,2.0304,2.0304,0.0,0.0,0.0,0.0,0.0,0.0,0.0,0.0,0.0,0.0,0.0,0.0,1.6616,1.6139,0.0,1.5844,1.5367,1.5345,1.5142,1.4651,1.495,1.501,1.4843,1.5159,1.5386,1.5549,1.5549,1.5647,1.58,1.5727,1.5789,1.593,1.5772,1.5788,1.5939,1.5835,1.5792,1.5792,1.5792,1.5792,0.0,0.0,0.0,1.7387,1.7387,1.7544,1.7603,1.7147,1.6574,1.6008,1.58,1.536,1.4857,1.4489,1.4384,1.4326,1.4035,1.4187,1.4363,1.422,1.4532,1.4736,1.435,1.4931,1.535,1.4677,1.457,1.4719,1.5227,1.4835,1.4681,1.5238,1.5188,1.5018,1.4848,1.4677,1.4653,0.0,0.0,0.0,1.5401,1.5674,1.6023,1.6373,1.6397,1.6459,1.6681,1.6689,1.6689,1.6689,1.6689,1.6689,1.6689,1.6689,1.6689,1.6689,1.6689,1.6689,1.6689,1.6689,1.6689,1.6689,1.6689,1.6689,1.6673,1.6444,1.6397,1.6365,1.6142,1.6163,1.6195,0.0,0.0,2.0304,0.0,0.0,0.0,0.0,0.0,0.0,0.0,0.0,0.0,0.0,0.0,0.0,0.0,0.0,0.0,1.6765,0.0,0.0,1.5876,1.5854,1.5623,1.5153,1.5153,1.4926,1.4466,1.4466,1.4684,1.5096,1.5121,1.5337,1.5738,1.5564,1.5521,1.5535,1.5521,1.5513,1.5558,1.5714,1.5792,1.5792,1.5792,0.0,0.0,0.0,0.0,1.7376,1.7436,1.7748,1.7891,1.6658,1.5741,1.5062,1.4766,1.4708,1.4569,1.3952,1.4114,1.4242,1.3464,1.3885,1.4374,1.3983,1.4222,1.475,1.5617,1.584,1.5932,1.6105,1.6102,1.6096,1.6201,1.6103,1.6137,1.6486,1.6202,1.5772,0.0,0.0,0.0,0.0,0.0,0.0,1.5705,0.0,1.6373,1.6673,1.6689,1.6689,1.6689,1.6689,1.6689,1.6689,1.6689,1.6689,1.6689,1.6689,1.6689,1.6689,1.6689,1.6689,1.6689,1.6689,1.6689,1.6689,1.6738,1.673,1.673,1.673,1.673,1.6738,1.6697,1.6524,1.6222,0.0,0.0,0.0,0.0,0.0,0.0,0.0,0.0,0.0,0.0,0.0,0.0,0.0,0.0,0.0,0.0,0.0,0.0,0.0,0.0,0.0,0.0,0.0,0.0,0.0,0.0,0.0,0.0,1.53,1.512,1.4817,1.5211,1.5256,1.5006,1.5337,1.5634,1.586,1.5605,1.5724,1.6086,0.0,1.5792,1.5792,0.0,0.0,0.0,0.0,0.0,1.7258,1.7798,1.7568,1.6871,1.5983,1.5574,1.5311,1.4846,1.4708,1.4569,1.3952,1.4361,1.4787,1.4303,1.4811,1.5412,1.531,1.5636,1.5935,1.5825,1.6399,1.6826,1.6539,1.5979,1.5772,1.6314,1.5611,0.0,1.5511,1.548,0.0,1.4812,0.0,1.4748,1.5149,1.5483,0.0,0.0,1.6397,1.6594,1.6689,1.6689,1.6689,1.6689,1.6689,1.6689,1.6689,1.6689,1.6689,1.6689,1.6689,1.6689,1.6689,1.6689,1.6689,1.6689,1.6689,1.6689,1.6738,1.7066,1.7229,1.7229,1.7229,1.7229,1.7188,1.6812,1.6887,1.7033,0.0,0.0,0.0,0.0,0.0,0.0,0.0,0.0,0.0,0.0,0.0,0.0,0.0,0.0,0.0,0.0,0.0,0.0,0.0,0.0,0.0,0.0,0.0,0.0,0.0,0.0,0.0,0.0,0.0,0.0,1.5321,1.5611,1.5589,1.5321,1.5746,1.6054,1.6216,1.6141,0.0,0.0,0.0,0.0,0.0,0.0,0.0,0.0,0.0,0.0,1.7177,1.769,1.7135,1.6153,1.5652,1.5491,1.5401,1.4857,1.4708,1.4603,1.422,1.4596,1.5026,1.4668,1.5195,1.5754,1.5606,1.5927,1.6216,1.6171,1.6616,1.6987,1.6931,1.6542,1.6487,1.7318,1.667,0.0,1.6399,1.607,1.5586,0.0,1.4713,0.0,1.5386,1.5608,1.5888,0.0,1.6578,1.6689,1.6689,1.6689,1.6689,1.6689,1.6689,1.6689,1.6689,1.6689,1.682,1.7025,1.7025,1.7098,1.7261,1.7261,1.7261,1.7261,0.0,1.7261,1.7302,1.7546,1.7676,1.7676,1.7676,1.7676,1.7635,1.7392,1.7432,1.7635,0.0,0.0,0.0,0.0,0.0,0.0,0.0,0.0,0.0,0.0,1.9993,1.9762,0.0,0.0,0.0,0.0,0.0,0.0,0.0,0.0,0.0,0.0,0.0,0.0,0.0,0.0,0.0,0.0,0.0,0.0,0.0,0.0,0.0,0.0,0.0,0.0,0.0,0.0,0.0,0.0,0.0,0.0,0.0,0.0,0.0,0.0,0.0,0.0,1.7138,1.7314,1.6677,1.577,1.5513,1.5446,1.5334,1.4811,1.4662,1.4646,1.4517,1.4832,1.5149,1.4924,1.5438,1.5924,1.5615,1.5828,1.6189,1.6599,1.6694,1.6807,1.7211,1.725,1.7477,1.8267,1.7995,1.7705,1.7696,1.7051,1.6219,1.5311,1.4883,1.4948,1.5648,1.5712,1.6007,1.6723,1.673,1.6689,1.6689,1.6689,1.6689,1.6689,1.6689,1.6689,1.6689,1.6689,1.6943,1.7392,1.7392,1.7595,1.8,1.8,1.8,1.8,1.8,1.8,1.8,1.808,1.808,1.808,1.808,1.808,1.808,1.804,1.8,1.8,0.0,0.0,0.0,0.0,0.0,0.0,0.0,0.0,0.0,0.0,2.0235,2.0063,0.0,0.0,0.0,0.0,0.0,0.0,0.0,0.0,0.0,0.0,0.0,0.0,0.0,0.0,0.0,0.0,0.0,0.0,0.0,0.0,0.0,0.0,0.0,0.0,0.0,0.0,0.0,0.0,0.0,0.0,0.0,0.0,0.0,0.0,0.0,0.0,0.0,0.0,1.6591,1.5726,1.5311,1.5176,1.5062,1.4581,1.4454,1.4459,1.4503,1.5078,1.5697,1.5775,1.6405,1.7025,1.698,1.7017,1.7071,1.7155,1.7183,1.7194,1.7278,1.6987,1.6759,1.6858,1.6754,1.6513,1.6136,1.6267,1.6061,0.0,1.5133,1.5267,1.5648,1.5712,0.0,0.0,1.6902,1.6689,1.6689,1.6689,1.6689,1.6689,1.6689,1.6689,1.6689,1.6689,1.6943,1.7392,1.7392,1.7595,1.8,1.8,1.8,1.8,1.8,0.0,1.804,1.8411,1.8571,1.8571,1.8571,1.8571,1.8531,1.8121,1.8,1.8,0.0,0.0,0.0,0.0,0.0,0.0,0.0,2.0304,2.0304,2.0304,2.0304,2.0235,2.0028,1.9833,1.9636,0.0,0.0,0.0,0.0,0.0,0.0,0.0,0.0,0.0,0.0,0.0,0.0,0.0,0.0,0.0,0.0,0.0,0.0,0.0,0.0,0.0,0.0,0.0,0.0,0.0,0.0,0.0,0.0,0.0,0.0,0.0,0.0,0.0,0.0,0.0,1.6818,1.5748,1.5401,1.5311,1.5244,1.488,1.4852,1.5069,1.5472,1.5866,1.628,1.677,1.7103,1.7306,1.7306,1.7306,1.7306,1.7306,1.7306,1.7306,1.7306,1.7127,1.7024,1.724,1.6981,1.6709,1.6491,1.6385,1.6096,1.5594,1.5692,1.5965,1.6282,1.6506,1.6923,1.7674,1.731,1.7066,1.7066,1.6812,1.6689,1.6689,1.6689,1.6689,1.6689,1.6943,1.727,1.7716,1.7968,1.8282,1.8674,1.8674,1.8674,1.8674,1.8674,1.8674,1.8705,1.8913,1.9002,1.9002,1.9002,1.9002,1.8993,1.8754,1.8674,1.8674,0.0,0.0,0.0,0.0,0.0,0.0,2.0304,2.0304,2.0304,2.0304,2.0304,2.0304,2.0304,2.001,1.9833,0.0,0.0,0.0,0.0,0.0,0.0,0.0,0.0,0.0,0.0,0.0,0.0,1.7902,0.0,0.0,0.0,0.0,0.0,0.0,0.0,0.0,0.0,0.0,0.0,0.0,0.0,0.0,0.0,0.0,0.0,0.0,0.0,0.0,1.7165,1.7979,1.7239,1.5948,1.5738,1.5591,1.5446,1.5176,1.5324,1.5728,1.6411,1.6595,1.6768,1.7533,1.749,1.7306,1.7306,1.7306,1.7306,1.7306,1.7306,1.7306,1.7306,1.7306,1.7398,1.7665,1.7354,1.7139,1.7196,1.6857,1.6478,1.614,1.6464,0.0,1.6884,1.7252,0.0,1.8135,1.7757,1.7432,1.727,1.6894,1.6689,1.6689,1.6689,1.6689,1.6689,1.7138,1.763,1.8119,1.858,1.9052,1.9558,1.9558,1.9558,1.9558,1.9558,1.9558,1.9558,1.9558,1.9558,1.9558,1.9467,1.9439,1.943,1.9329,1.9301,1.9301,0.0,0.0,0.0,0.0,0.0,0.0,2.0304,2.0304,2.0304,2.0304,2.0304,2.0304,2.0304,2.027,2.0252,0.0,0.0,0.0,0.0,0.0,0.0,0.0,0.0,0.0,0.0,0.0,0.0,1.7902,1.7902,0.0,0.0,0.0,0.0,0.0,0.0,1.7902,0.0,0.0,0.0,0.0,0.0,0.0,0.0,0.0,0.0,0.0,0.0,1.8697,1.7696,1.8666,1.789,1.6485,1.6289,1.5888,1.5446,1.5176,1.5464,1.5969,1.6461,1.676,1.7084,1.7588,1.749,1.7306,1.7306,1.7306,1.7306,1.7306,1.7306,1.7306,1.7306,1.7306,1.7166,1.6775,1.6992,1.7192,1.7212,1.7484,1.7482,1.7033,0.0,0.0,1.6951,1.7252,1.7826,1.8585,1.8201,1.7595,1.6812,1.673,1.6689,1.6689,1.6689,1.6689,1.6689,1.7106,1.7719,1.8545,1.8938,1.9569,2.0411,2.0411,2.0411,2.0411,2.0411,2.0411,0.0,2.0411,2.0411,2.0365,1.9976,1.9829,1.9783,1.9439,1.9301,1.9301,0.0,0.0,0.0,0.0,0.0,0.0,2.0371,2.0321,2.0304,2.0304,2.0304,2.0304,2.0304,2.0304,2.0304,2.0304,2.015,0.0,0.0,0.0,0.0,0.0,0.0,0.0,0.0,0.0,1.7902,1.7902,1.7902,0.0,0.0,0.0,0.0,0.0,0.0,1.7902,1.7902,0.0,0.0,0.0,0.0,0.0,0.0,0.0,0.0,0.0,0.0,0.0,1.8079,1.8491,1.7888,1.6888,1.6455,1.5998,1.5706,1.5936,1.6279,1.6698,1.7388,1.7607,1.7698,1.7902,1.7877,1.7739,1.7573,1.7545,1.7545,1.7545,1.7418,1.7306,1.7306,1.7306,1.725,1.7043,1.7132,0.0,1.7193,1.7549,1.7609,1.7092,1.7868,1.8247,0.0,0.0,1.8624,1.8683,1.829,1.7838,1.7505,1.6976,1.6812,1.7106,1.7077,1.7181,1.7431,1.8085,1.8608,1.8981,1.9646,2.0141,2.0521,2.0521,2.0521,2.0521,2.0521,2.0521,0.0,2.0521,2.0521,2.0461,2.0305,2.0241,2.0223,2.009,1.9879,1.9718,0.0,0.0,0.0,0.0,0.0,2.0424,2.0424,2.039,2.0373,2.0373,2.0339,2.0321,2.0321,2.0304,2.0304,2.0304,2.0304,0.0,0.0,0.0,0.0,0.0,0.0,0.0,0.0,0.0,1.7902,1.7902,1.7902,1.7902,0.0,0.0,1.7902,1.7902,0.0,0.0,0.0,0.0,0.0,0.0,0.0,0.0,0.0,0.0,0.0,0.0,0.0,0.0,0.0,0.0,0.0,1.7374,1.7011,0.0,0.0,1.6462,1.686,1.7286,1.801,1.8225,1.8247,1.8247,1.8166,1.8057,1.7877,1.7822,1.7822,1.7822,1.7601,1.7418,1.7418,1.7362,1.7306,0.0,0.0,1.7281,1.7419,1.7791,1.7917,1.751,0.0,1.9195,0.0,1.9181,1.946,1.9271,1.8603,1.8241,1.8304,1.7841,1.7663,1.7754,1.7721,1.786,1.8262,1.9016,1.9471,1.96,2.03,2.0827,2.1178,2.0964,2.0964,2.1178,2.0964,2.0964,0.0,2.1178,2.1296,2.1438,2.1367,2.132,2.1259,2.1146,2.0961,2.0746,0.0,0.0,0.0,0.0,0.0,2.051,2.051,2.051,2.051,2.051,2.0441,2.0405,2.0405,2.0339,2.0304,2.0304,2.0304,0.0,0.0,0.0,0.0,0.0,0.0,0.0,1.8481,1.8095,1.7902,1.7902,1.7902,1.7902,1.7902,1.7902,1.7902,1.7902,0.0,0.0,0.0,0.0,0.0,0.0,0.0,0.0,1.7922,0.0,0.0,0.0,0.0,0.0,0.0,0.0,0.0,0.0,0.0,1.7376,1.6337,0.0,1.6979,1.7507,1.8061,1.8382,1.8587,1.8587,1.8356,1.8084,1.8084,1.8084,1.8084,1.8084,1.7865,1.7711,1.7711,1.7473,1.7306,1.7306,1.7306,0.0,1.7933,1.8403,1.8659,0.0,0.0,2.0446,1.9827,2.0039,2.0265,2.0459,1.9371,0.0,1.8966,1.9417,1.9347,1.8621,1.8588,1.8759,1.917,1.9608,2.0035,2.0491,2.0811,2.1615,2.274,2.2033,2.2078,2.274,2.1989,2.2122,0.0,2.2784,2.3159,2.374,2.3317,2.3188,2.3128,2.2705,2.2584,2.2584,0.0,0.0,0.0,0.0,0.0,0.0,2.0644,2.0561,2.051,2.051,2.0477,2.046,2.046,2.0443,2.0443,2.0443,2.0356,0.0,0.0,0.0,0.0,0.0,0.0,0.0,1.8917,1.8514,1.8299,1.8299,1.8029,1.7902,1.7902,1.7902,1.7902,1.7902,1.7902,1.7902,0.0,0.0,0.0,0.0,0.0,1.8321,1.8321,0.0,0.0,0.0,0.0,0.0,0.0,0.0,0.0,0.0,0.0,0.0,0.0,1.7339,1.7615,1.7897,1.8545,1.8802,1.8827,1.864,1.8667,1.8679,1.8479,1.8425,1.8425,1.8425,1.8057,1.7711,1.7711,1.749,1.7306,1.7306,1.7306,0.0,0.0,0.0,0.0,1.8627,1.9479,2.025,0.0,0.0,2.0924,2.0952,2.0333,2.0224,2.0927,2.0804,2.0205,1.9094,2.021,2.075,2.0682,2.1596,2.2117,2.2301,2.2732,2.3105,2.3464,2.3236,2.3236,2.3464,2.3246,2.329,2.3464,2.3464,2.3627,2.378,2.3639,2.3589,2.3569,2.3481,2.3239,2.307,0.0,0.0,0.0,0.0,0.0,0.0,2.0744,2.0677,2.0611,2.0611,2.0595,2.0594,2.0594,2.0527,2.051,2.051,2.0426,0.0,0.0,0.0,0.0,0.0,0.0,0.0,1.9343,1.8936,1.8745,1.8769,1.8397,1.8214,1.8155,1.8049,1.7963,1.7902,1.7902,1.7902,0.0,0.0,0.0,0.0,1.8459,1.8498,1.8517,0.0,0.0,0.0,0.0,0.0,0.0,0.0,0.0,0.0,0.0,0.0,0.0,0.0,1.8331,1.8405,1.888,1.8987,1.896,1.8774,1.8881,1.896,1.8774,1.8747,1.8747,1.8747,1.8371,1.8002,1.7865,1.7629,1.7418,1.7306,1.7306,1.7453,0.0,0.0,0.0,1.9649,0.0,0.0,0.0,2.1662,2.1624,2.1852,2.1183,2.1181,2.2193,2.2129,2.1687,2.0804,2.18,2.2306,2.2308,2.3002,2.3357,2.3357,2.3661,2.393,2.4198,2.393,2.393,2.4198,2.393,2.3973,0.0,2.4241,2.436,2.4584,2.4584,2.4584,2.4584,2.4584,2.4407,2.4252,0.0,0.0,0.0,0.0,0.0,0.0,0.0,2.0794,2.0794,2.0794,2.0744,2.071,2.071,2.061,2.0527,2.0527,2.0527,0.0,0.0,0.0,0.0,0.0,0.0,1.9744,1.9762,1.9362,1.918,1.9244,1.8959,1.8765,1.8649,1.8352,1.8109,1.7942,1.7902,1.7902,1.7942,1.8149,1.8361,1.8517,1.8537,1.8537,0.0,0.0,0.0,0.0,0.0,0.0,0.0,0.0,0.0,0.0,0.0,0.0,0.0,0.0,0.0,0.0,0.0,1.9093,1.9093,1.904,1.904,1.904,1.9013,1.8987,0.0,1.8987,1.8774,1.8506,1.8166,1.7865,1.7601,1.7334,1.7339,0.0,0.0,1.8512,0.0,0.0,2.1625,0.0,2.2914,2.2478,2.2402,2.2964,2.1966,2.1791,2.2861,2.3343,2.3533,2.3397,2.3407,2.3568,2.3877,2.393,2.3973,2.3973,2.3973,2.4327,2.4946,2.4274,2.4327,0.0,2.4241,2.4327,2.4988,2.4988,2.5338,2.5895,2.5895,2.5895,2.5895,2.5895,2.5895,2.5895,0.0,0.0,0.0,0.0,0.0,0.0,0.0,0.0,0.0,0.0,2.0778,2.0777,2.0777,2.0745,2.0728,0.0,0.0,0.0,0.0,0.0,0.0,0.0,2.0254,2.0183,2.0235,1.9854,1.9681,1.974,1.9303,1.9095,1.9039,1.863,1.8397,1.8338,1.8029,1.7983,1.8149,1.8509,1.8683,1.8741,1.8893,1.895,0.0,0.0,0.0,0.0,1.8765,1.8705,0.0,0.0,0.0,0.0,0.0,0.0,0.0,0.0,1.8989,1.9123,1.975,0.0,1.9849,1.9539,1.946,1.9382,0.0,1.8987,1.8987,1.8987,1.8774,1.8506,1.8166,1.7865,1.7601,1.7334,1.7584,1.7999,1.8469,1.9614,0.0,2.1483,2.192,2.2368,2.2947,2.2852,2.2852,2.3001,2.2729,2.3031,2.4061,2.4212,2.4565,2.5229,2.5251,2.5041,2.4637,2.5158,2.5422,2.5422,2.5422,2.5506,2.5644,2.5506,2.5506,2.5644,2.5464,2.5506,2.5644,2.5644,2.577,2.5895,2.5895,2.5895,2.5895,2.5895,2.5895,2.5895,0.0,0.0,0.0,0.0,0.0,0.0,0.0,0.0,0.0,0.0,2.0794,2.0794,2.0794,2.0794,2.0794,0.0,0.0,0.0,0.0,0.0,0.0,2.0594,2.046,2.0407,2.0441,2.0239,2.0172,2.0275,1.9892,1.9627,1.9522,1.9132,1.8884,1.8765,1.8572,1.8553,1.8669,1.8884,1.8974,1.8936,1.9064,0.0,0.0,0.0,0.0,0.0,1.8898,1.8741,0.0,1.9193,1.9578,1.9768,0.0,0.0,0.0,0.0,1.9697,1.9837,2.056,2.0472,2.0105,1.9694,1.9617,1.9486,1.9093,1.8987,1.8987,1.8987,1.8881,1.8694,1.8383,1.8084,1.7794,1.7518,1.7768,0.0,0.0,0.0,2.1069,2.1527,2.2018,2.2499,0.0,2.3001,2.3001,2.3001,2.3001,2.3438,2.4432,2.4486,2.4923,2.5874,2.5895,2.5728,2.538,2.5728,2.5895,2.5895,2.5895,2.5895,2.5895,2.5895,2.5895,2.5895,2.5895,2.5895,2.5895,2.5895,2.5895,2.5895,2.5895,2.5895,2.5895,2.5895,2.5895,2.5895,0.0,0.0,0.0,0.0,0.0,0.0,0.0,0.0,0.0,0.0,0.0,0.0,0.0,0.0,0.0,0.0,0.0,0.0,0.0,0.0,2.0726,2.0726,2.0594,2.051,2.0527,2.0527,2.0578,2.0726,2.0475,2.0239,2.0019,1.9717,1.9406,1.9143,1.9184,1.9207,1.9207,1.9188,1.9147,1.9101,1.9101,0.0,0.0,0.0,0.0,0.0,0.0,0.0,0.0,1.9327,1.9946,2.0337,1.9906,0.0,0.0,0.0,0.0,0.0,2.1308,2.0896,2.0195,1.9798,1.9682,1.9552,1.9119,0.0,0.0,1.9013,1.8987,1.8907,1.864,1.8383,0.0,0.0,0.0,0.0,1.9506,2.0402,2.119,2.1647,2.2127,0.0,2.2957,2.3001,2.3001,2.3001,2.3001,2.3438,2.4432,2.4486,2.4923,2.5874,2.5895,2.5895,2.5895,2.5895,2.5895,2.5895,2.5895,2.5895,2.5895,2.5895,2.5895,2.5895,0.0,0.0,2.5895,2.5895,2.5895,2.5895,2.5895,2.5895,2.5895,2.5895,2.5895,2.5895,0.0,0.0,0.0,0.0,0.0,0.0,0.0,0.0,0.0,0.0,0.0,0.0,0.0,0.0,0.0,0.0,0.0,0.0,0.0,2.0794,2.0778,2.0778,2.0595,2.0544,2.0676,2.0676,2.0711,2.0778,2.0693,2.061,2.0577,2.007,1.9633,1.927,1.921,1.9207,1.9188,1.9143,1.912,1.9101,1.9101,0.0,0.0,0.0,0.0,0.0,0.0,0.0,0.0,1.8936,1.9798,2.0649,1.9202,0.0,0.0,0.0,0.0,0.0,2.157,2.1226,2.061,2.0195,2.0105,1.9926,1.9172,1.9251,1.9408,0.0,0.0,0.0,0.0,1.856,1.8577,0.0,0.0,1.9863,0.0,0.0,2.1658,2.2149,0.0,2.2925,2.299,2.3001,2.3001,2.3001,2.3001,2.3438,2.4432,2.4486,2.4923,2.5874,2.5895,2.5895,2.5895,2.5895,2.5895,2.5895,2.5895,2.5895,2.5895,2.5895,2.5895,2.5895,0.0,2.5895,2.5895,2.5895,2.5895,2.5895,2.5895,2.5895,2.5895,2.5895,2.5895,2.5895,0.0,0.0,0.0,0.0,0.0,0.0,0.0,0.0,0.0,0.0,0.0,0.0,0.0,0.0,0.0,0.0,0.0,0.0,2.0794,2.0794,2.0794,2.0794,2.0712,2.0678,2.076,2.076,2.0777,2.0794,2.0777,2.0727,2.0693,2.0376,2.0156,2.0052,2.0015,1.9945,1.9841,1.9821,1.9711,1.9596,0.0,0.0,0.0,0.0,0.0,0.0,0.0,0.0,0.0,0.0,1.9648,2.0405,1.9872,0.0,0.0,0.0,0.0,0.0,2.1936,2.1541,2.0919,2.051,2.0144,1.972,1.9119,1.9146,1.9225,0.0,0.0,0.0,0.0,0.0,1.9114,1.9397,0.0,2.0117,2.0819,2.131,2.1767,0.0,0.0,2.3001,2.3001,2.3001,2.3001,2.3001,2.3001,2.3318,2.4039,2.4334,2.4803,2.548,2.5764,2.5895,2.5895,2.5895,2.5895,2.5895,2.5895,2.5895,2.5895,2.5895,2.5895,2.5895,0.0,2.5895,2.5895,2.5895,2.5895,2.5895,2.5895,2.5895,2.5895,2.5895,2.5895,2.5895,0.0,0.0,0.0,0.0,0.0,0.0,0.0,0.0,0.0,0.0,0.0,0.0,0.0,0.0,0.0,0.0,0.0,2.0794,2.0794,2.0794,2.0794,2.0794,2.0794,2.0794,2.0794,2.0794,2.0794,2.0794,2.0794,2.0761,2.0726,2.0611,2.0644,2.0726,2.0644,2.0509,2.0306,2.0206,2.003,1.9795,0.0,0.0,0.0,0.0,0.0,0.0,0.0,0.0,0.0,0.0,0.0,0.0,0.0,0.0,0.0,2.2104,2.2211,2.2301,2.2301,2.1803,2.1188,2.082,2.0232,1.9617,1.9119,1.9066,1.9119,0.0,0.0,0.0,0.0,1.9567,0.0,2.011,2.0336,2.0717,2.1241,2.175,2.2178,2.2567,2.293,2.3113,2.3001,2.3001,2.3001,2.3001,2.3001,2.3209,2.3662,2.4104,2.453,2.504,2.548,2.5732,2.5732,2.5841,2.5895,2.5895,2.5895,2.5895,2.5895,2.5895,2.5895,2.5895,2.5895,2.5895,2.5895,2.5895,2.5895,2.5895,2.5895,2.5895,2.5895,2.5895,2.5895,2.5895,0.0,0.0,0.0,0.0,0.0,0.0,0.0,0.0,0.0,0.0,0.0,0.0,0.0,0.0,0.0,0.0,2.0794,2.0794,2.0794,2.0794,2.0794,2.0794,2.0794,2.0794,2.0794,2.0794,2.0794,2.0794,2.0794,2.0794,2.0794,2.0778,2.0778,2.0778,2.0529,2.0289,2.0023,1.9693,1.9402,1.9157,1.9157,0.0,0.0,0.0,0.0,0.0,0.0,0.0,0.0,0.0,0.0,0.0,0.0,0.0,2.2692,2.2178,2.2269,2.2555,2.2555,2.2077,2.1506,2.1237,2.066,1.9952,1.9172,1.9303,1.9448,1.9066,0.0,0.0,0.0,2.0586,2.1159,2.0875,2.1647,2.2381,2.2547,0.0,2.3391,2.3492,2.3545,2.3409,2.3038,2.3001,2.3001,2.3001,2.3001,2.3209,2.3662,2.3727,2.4017,2.4519,2.5029,2.527,2.527,2.5677,2.5895,2.5895,2.5895,2.5895,2.5895,2.5895,2.5895,2.5895,2.5895,2.5895,2.5895,2.5895,2.5895,2.5895,2.5895,2.5895,2.5895,2.5895,2.5895,2.5895,0.0,0.0,0.0,0.0,0.0,0.0,0.0,0.0,0.0,0.0,0.0,2.0794,2.0794,0.0,0.0,0.0,2.0794,2.0794,2.0794,2.0794,2.0794,2.0794,2.0794,2.0794,2.0794,2.0794,2.0794,2.0794,2.0794,2.0794,2.0794,2.0794,2.0712,2.0545,2.0444,2.0254,1.9988,1.9866,1.9744,1.9672,1.9836,1.9871,0.0,0.0,0.0,0.0,0.0,0.0,0.0,0.0,2.0596,2.1032,2.122,2.1772,2.2359,2.2519,2.2669,2.2797,2.2797,2.2208,2.1592,2.1468,2.0809,0.0,0.0,1.9486,1.9573,1.9516,1.9507,0.0,0.0,0.0,2.1499,2.1832,2.2236,2.2657,2.3133,2.3375,2.3615,2.395,2.397,2.3897,2.3751,2.3519,2.3372,2.3372,2.315,2.3078,2.3263,2.352,2.3782,2.4017,2.4497,2.488,2.5215,2.5401,2.56,2.5895,2.5895,2.5895,2.5895,2.5895,2.5895,2.5895,2.5895,2.5895,2.5895,2.5895,2.5895,2.5895,2.5895,2.5895,2.5895,2.5895,2.5895,2.5895,0.0,0.0,0.0,0.0,0.0,0.0,0.0,0.0,2.0794,0.0,0.0,0.0,0.0,2.0794,0.0,0.0,2.0794,2.0794,2.0794,2.0794,2.0794,2.0794,2.0794,2.0794,2.0794,2.0794,2.0794,2.0794,2.0794,2.0794,2.0794,2.0712,2.0579,2.041,2.041,2.0187,1.9848,2.0164,2.0183,2.0052,2.0452,2.0488,0.0,0.0,0.0,0.0,0.0,0.0,0.0,0.0,2.1133,2.1394,2.1859,2.2135,2.2359,2.2772,2.2797,2.2706,2.2775,2.2301,2.1722,2.153,0.0,0.0,1.9759,1.9617,1.9635,1.977,2.0085,2.0526,2.126,0.0,0.0,0.0,2.293,2.3292,2.3746,2.3945,2.4154,2.4371,2.4381,2.4345,2.42,2.3934,2.3751,2.3593,2.3335,2.315,2.3001,2.3318,2.3504,2.3504,2.3984,2.4399,2.4716,2.5022,2.5379,2.5677,2.583,2.5895,2.5895,2.5895,2.5895,2.5895,2.5895,2.5895,2.5895,2.5895,2.5895,2.5895,2.5895,2.5895,2.5895,2.5895,2.5895,2.5937,0.0,0.0,0.0,0.0,0.0,0.0,0.0,0.0,2.0794,2.0794,2.0794,0.0,0.0,0.0,0.0,0.0,2.0794,2.0794,2.0794,2.0794,2.0794,2.0794,2.0794,2.0794,2.0794,2.0794,2.0794,2.0794,2.0794,2.0794,2.0794,2.0529,2.041,2.0393,2.0393,2.0065,1.9574,2.0508,2.0601,2.0161,2.0776,2.1023,2.1003,0.0,0.0,0.0,0.0,0.0,0.0,0.0,2.1452,2.2004,2.2004,2.2417,2.2888,2.2888,2.2555,2.2254,2.2532,2.2394,2.203,2.1369,2.1396,0.0,1.9914,1.9617,1.9647,1.9794,2.0658,2.1416,2.1416,2.227,0.0,2.2991,2.3857,2.4484,2.4496,2.4975,2.5182,2.4825,2.479,2.4646,2.4236,2.42,2.4043,2.3641,2.3593,2.3409,2.3001,2.3001,2.3001,2.3001,2.3471,2.3684,2.3694,2.4683,2.5204,2.5215,2.5666,2.5895,2.5895,2.5895,2.5895,2.5895,2.5895,2.5895,2.5895,2.5895,2.5895,2.5895,2.5895,2.5906,2.5895,2.5895,2.5895,2.5979,0.0,0.0,0.0,0.0,0.0,0.0,0.0,0.0,2.0794,2.0794,2.0794,0.0,0.0,0.0,0.0,0.0,0.0,0.0,2.0794,2.0794,2.0794,2.0794,2.0794,2.0794,2.0794,2.0794,2.0712,2.0512,2.0512,2.0512,2.0512,2.0444,2.0306,2.0129,2.0553,2.0437,1.9982,2.0911,2.1079,2.0782,2.1436,2.141,2.1044,0.0,0.0,0.0,0.0,0.0,0.0,0.0,0.0,0.0,2.2635,2.2765,2.2888,2.2888,2.2797,2.2706,2.2797,2.21,2.1431,2.1803,2.1042,2.0169,0.0,2.0099,0.0,0.0,2.1476,2.2077,2.245,2.2806,0.0,2.3941,2.4326,2.465,2.5023,2.5204,2.5276,2.5147,2.5147,2.5111,2.5004,2.4766,2.4454,2.4043,2.3751,2.3409,2.3001,2.3261,2.3409,2.3409,2.3553,2.3798,2.4115,2.4133,2.4334,2.4694,2.5164,2.5568,2.5895,2.5895,2.5895,2.5895,2.5895,2.5895,2.5895,2.5895,2.5895,2.5937,2.6207,2.6332,2.6373,2.6693,2.6828,2.6816,0.0,0.0,0.0,0.0,0.0,0.0,2.0794,2.0794,2.0794,2.0794,2.0794,2.0794,0.0,0.0,0.0,0.0,0.0,0.0,2.0794,2.0794,2.0794,2.0794,2.0794,2.0794,2.0794,2.0794,2.0663,2.041,2.0512,2.0719,2.0983,2.0727,2.074,2.0992,2.1227,2.107,2.0734,2.166,2.1882,2.1639,2.2153,2.2194,2.1955,0.0,0.0,0.0,0.0,0.0,0.0,0.0,0.0,0.0,2.2888,2.2888,2.2888,2.2888,2.2775,2.2661,2.2752,2.2147,2.1479,2.1541,2.0894,2.0271,2.0402,0.0,0.0,0.0,2.1825,2.2354,2.2883,2.318,0.0,2.4352,2.4699,2.4939,2.5264,2.5312,2.5312,2.5312,2.5312,2.5312,2.5312,2.5111,2.4838,2.4454,2.42,2.3897,2.3482,2.3714,2.3824,2.3824,2.3824,2.396,2.4276,2.4194,2.426,2.4426,2.4889,2.5293,2.5622,2.5808,2.5895,2.5895,2.5895,2.5895,2.5895,2.5895,2.5895,2.5937,2.6332,2.6487,2.6569,2.7021,2.7185,2.7226,0.0,0.0,2.0794,2.0794,0.0,0.0,2.0794,2.0794,2.0794,2.0794,2.0794,2.0794,0.0,0.0,0.0,2.0794,0.0,0.0,2.0794,2.0794,2.0794,2.0794,2.0794,2.0794,2.0794,2.0794,2.0711,2.0553,2.0707,2.117,2.1832,2.1262,2.1518,2.2449,2.2229,2.1898,2.1609,2.2591,2.2816,2.2571,2.2834,2.312,2.3334,2.3023,0.0,0.0,0.0,0.0,0.0,0.0,0.0,0.0,2.2888,2.2888,2.2888,2.2888,2.2615,2.2324,2.2555,2.237,2.1874,2.0932,2.0934,2.1114,2.0881,2.0749,2.0839,2.1368,0.0,2.2426,2.2955,2.3517,2.4001,2.4506,2.4987,2.5312,2.5312,2.5312,2.5312,2.5312,2.5312,2.5312,2.5312,2.5312,2.5147,2.4825,2.479,2.461,2.4236,2.4236,2.4261,2.4261,2.4261,2.4261,2.4261,2.4625,2.463,2.4287,2.4758,2.506,2.5176,2.5631,2.5863,2.5895,2.5895,2.5895,2.5895,2.5937,2.5979,2.6104,2.6539,2.6723,2.6846,2.7296,2.7499,2.7539,0.0,0.0,2.0794,2.0794,0.0,0.0,2.0794,2.0794,2.0794,2.0794,2.0794,2.0794,2.0794,2.0794,0.0,2.0794,2.0794,0.0,2.0794,2.0794,2.0794,2.0794,2.0794,2.0794,2.0794,2.0794,2.1062,2.1594,2.1111,2.1101,2.1504,2.1678,2.1881,2.214,2.2805,2.2657,2.1965,2.3215,2.3394,2.2856,2.3157,2.3172,2.3,2.2933,2.2888,0.0,0.0,0.0,0.0,0.0,0.0,0.0,2.2888,2.2888,2.2888,2.2888,2.282,2.2752,2.282,2.2133,2.1431,2.153,2.1252,2.096,2.0967,2.1173,2.1517,2.1939,2.2438,2.2999,2.3541,2.4013,2.453,2.5059,2.524,2.5312,2.5312,2.5312,2.5312,2.5312,2.5312,2.5312,2.5312,2.5312,2.5147,2.4825,2.479,2.461,2.4236,2.449,2.4682,2.4682,2.4682,2.4682,2.4682,2.4449,2.4313,2.4214,2.4694,2.4952,2.4963,2.5245,2.5535,2.5895,2.5895,2.5895,2.5937,2.6249,2.6682,2.7244,2.8023,2.8569,2.9069,2.9498,2.9614,2.9653,0.0,0.0,0.0,0.0,0.0,0.0,0.0,0.0,2.0794,2.0794,2.0794,2.0794,2.0794,2.0794,0.0,0.0,2.0794,2.0794,2.0794,2.0794,2.0794,2.0794,2.0794,2.0794,2.0794,2.1142,2.1505,2.19,2.2031,2.2266,2.2579,2.2482,2.2795,2.3448,2.3609,2.343,2.2997,2.3704,2.3668,2.315,2.315,2.315,2.3105,2.2955,2.2888,2.2888,2.2888,0.0,0.0,0.0,0.0,0.0,0.0,0.0,2.2888,2.2888,2.2888,2.2888,2.2888,2.2486,2.1945,2.1684,2.1583,2.154,2.1559,2.2112,2.2672,2.2731,2.2877,2.3168,2.371,2.4181,2.4699,2.5216,2.5312,2.5312,2.5312,2.5312,2.5312,2.5312,2.5312,2.5312,2.5312,2.5312,2.5241,2.5052,2.5052,2.4945,2.4754,2.4945,2.5052,2.5052,2.5052,2.5052,2.5052,2.4826,2.4658,2.4502,2.4757,2.4879,2.4909,2.5498,2.5713,2.5609,2.6438,2.6569,2.6249,2.6846,2.7395,2.7867,2.8542,2.9172,2.9742,3.0165,3.0279,3.0279,0.0,0.0,0.0,0.0,0.0,0.0,0.0,0.0,0.0,2.0794,2.0794,2.0794,2.0794,2.0794,2.0794,0.0,0.0,0.0,2.0794,2.0794,2.0794,2.0794,2.0905,2.0984,2.0984,2.1695,2.2104,2.2161,2.3039,2.3647,2.3982,2.344,2.3733,2.471,2.4276,2.3982,2.3812,2.3861,2.3674,2.329,2.3008,2.3075,2.329,2.3023,2.2888,2.2888,2.2888,2.2888,2.2888,2.2888,0.0,0.0,0.0,0.0,2.2888,2.2888,2.2888,2.2888,2.2888,2.2843,2.2555,2.1647,2.1897,2.2349,2.2254,2.3041,2.3712,2.3386,2.3238,2.3308,2.3722,2.4254,2.4795,2.524,2.5312,2.5312,2.5312,2.5312,2.5312,2.5312,2.5312,2.5312,2.5312,2.5312,2.5312,2.5312,2.5312,2.5312,2.5312,2.5312,2.5312,2.5312,2.5312,2.5312,2.5312,2.5312,2.5147,2.4897,2.4897,2.4892,2.4932,2.5893,2.6058,2.565,2.7082,2.7366,2.6835,2.7758,2.8227,2.8414,2.9003,2.96,3.0165,3.052,3.0633,3.0633,0.0,0.0,0.0,0.0,0.0,0.0,0.0,0.0,0.0,0.0,2.0794,2.0794,2.0794,2.0794,2.0794,2.0794,2.0794,2.0794,2.0794,0.0,0.0,2.0794,2.1362,2.1693,2.1742,2.2424,2.2909,2.3204,2.3622,2.403,2.4419,2.4338,2.4044,2.3644,2.4177,2.3919,2.3068,2.337,2.3282,2.2955,2.291,2.2933,2.2955,2.2925,2.2888,2.2888,2.2888,2.2888,2.2888,2.2888,2.2888,0.0,0.0,0.0,2.2888,2.2888,2.2888,2.2888,2.2888,2.2615,2.2147,2.1551,2.2241,2.2924,0.0,0.0,2.3725,0.0,2.3653,2.3841,2.3815,2.4554,2.5228,2.53,2.5312,2.5312,2.5312,2.5312,2.5312,2.5312,2.5312,2.5312,2.5312,2.5312,2.5312,2.5312,2.5312,2.5312,2.5312,2.5312,2.5312,2.5312,2.5312,2.5312,2.5312,2.5312,2.5276,2.5241,2.5241,2.5076,2.4835,2.5717,2.6453,2.7011,2.7277,2.755,2.7976,2.9018,2.9459,2.9575,3.0494,3.127,3.1863,3.195,3.195,3.195,0.0,0.0,0.0,0.0,0.0,0.0,0.0,0.0,0.0,0.0,0.0,2.0794,2.0794,2.0794,2.0968,2.1379,2.141,2.1586,2.1949,2.1981,2.1981,2.1981,2.2264,2.2422,2.2471,2.3117,2.3532,2.3681,2.4244,2.4393,2.4213,2.4416,2.4317,2.4015,2.3931,2.3616,2.3194,2.3334,2.3216,2.2888,2.2888,2.2888,2.2888,2.2888,2.2888,2.2888,2.2888,2.2888,2.2888,2.2888,2.2888,2.2888,2.2888,0.0,0.0,0.0,2.2888,2.2888,2.2888,2.2555,2.2147,2.1898,2.2765,2.3628,2.337,2.4164,2.4908,2.4681,2.473,2.4709,2.4292,2.5093,2.5699,2.5347,2.5594,2.5804,2.5804,2.5804,2.5804,2.5804,2.5804,2.5664,2.5335,2.5312,2.5312,2.5312,2.5312,2.5312,2.5312,2.5312,2.5312,2.5312,2.5312,2.5312,2.5312,2.5312,2.5312,2.5312,2.5312,2.5206,2.5087,2.5481,2.5948,2.6467,2.7799,2.8419,2.8602,2.9885,3.0482,3.057,3.1033,3.1616,3.2218,3.2218,3.2218,3.2218,0.0,0.0,0.0,0.0,0.0,0.0,0.0,0.0,0.0,0.0,0.0,2.1399,2.1348,0.0,0.0,0.0,2.2137,2.2376,2.2866,2.2898,2.2898,2.2898,2.3072,2.3167,2.3167,2.3828,2.4115,2.3924,2.4555,2.4508,2.3861,2.4094,2.4219,2.4198,2.3659,2.3341,2.3268,2.3268,2.3127,2.2888,2.2888,2.2888,2.2888,2.2888,2.2888,2.2888,2.2888,2.2888,2.2888,2.2888,2.2888,2.2888,2.2888,2.2888,0.0,0.0,0.0,2.2888,2.2888,2.2638,2.237,2.237,2.333,2.4237,0.0,0.0,2.5825,0.0,2.5512,2.5359,2.4942,2.5724,2.6239,2.5789,2.6173,2.6427,2.6094,2.6129,2.6151,2.5978,2.5978,2.5804,2.5347,2.5312,2.5312,2.5312,2.5312,2.5312,2.5312,2.5312,2.5312,2.5312,2.5312,2.5312,2.5312,2.5312,2.5312,2.5312,2.5312,2.5382,2.5523,2.5523,2.5788,2.6321,2.8119,2.8921,2.9075,3.0494,3.1127,3.1233,3.1381,3.1776,3.2218,3.2218,3.2218,3.2218,0.0,0.0,0.0,0.0,0.0,0.0,0.0,0.0,0.0,0.0,0.0,2.3,2.2805,2.2787,2.2803,2.2835,2.2851,2.2866,2.2898,2.2898,2.2898,2.2898,2.3512,0.0,2.3841,2.4574,2.4623,2.3985,2.4343,2.4156,2.3428,2.345,2.345,2.345,2.3428,2.3224,2.2933,2.2933,2.2925,2.2888,2.2888,2.2888,2.2888,2.2888,2.2888,2.2888,2.2888,2.2888,2.2888,2.2888,2.2888,2.2888,2.2888,2.2888,2.2888,0.0,0.0,0.0,2.2888,2.2865,2.2865,2.2865,2.382,2.4624,0.0,0.0,2.5797,2.5495,2.5454,2.5596,2.5887,2.6501,2.6921,2.6832,2.717,2.7015,2.5804,2.5955,2.599,2.5418,2.5347,2.5335,2.5312,2.5312,2.5312,2.5312,2.5312,2.5312,2.5312,2.5312,2.5312,2.5312,2.5312,2.5312,2.5312,2.5312,2.5312,2.5312,2.5312,2.5594,2.6164,2.6164,2.6714,2.7689,2.7881,2.8533,2.9558,3.0766,3.1244,3.127,3.19,3.2169,3.2218,3.2218,3.2218,3.2218,0.0,0.0,0.0,0.0,0.0,0.0,0.0,0.0,0.0,0.0,0.0,0.0,0.0,2.3022,2.3215,2.3512,2.3973,2.4242,2.4242,2.4242,2.4242,2.4242,2.4479,2.4622,2.4622,2.4641,2.4544,2.4317,2.4229,2.3909,2.3406,2.3406,2.329,2.3075,2.3075,2.3008,2.2888,2.2888,2.3157,2.3514,2.3084,2.3171,2.3476,2.307,2.3171,2.3543,2.3543,2.3833,2.4196,2.4143,2.4143,2.4109,2.3688,2.3543,2.3447,2.3041,2.2888,2.2888,2.2888,0.0,0.0,2.2888,2.3577,2.4278,2.4449,2.5185,2.5931,2.624,2.6335,2.6495,2.7002,2.732,2.7382,2.7006,2.7746,2.8111,2.7417,2.7464,2.7384,2.696,2.6879,2.679,2.6414,2.638,2.6255,2.5908,2.5873,2.5699,2.5312,2.5312,2.5312,2.5312,2.5312,2.5312,2.5312,2.5312,2.5312,2.5312,2.5699,2.5978,2.6198,2.6564,2.6939,2.7323,2.7699,2.8684,3.0122,3.0948,3.1519,3.1863,3.2096,3.2218,3.2218,3.2218,3.2218,3.2218,0.0,0.0,0.0,0.0,0.0,2.2988,2.306,2.3215,2.3338,2.3338,0.0,0.0,0.0,0.0,2.3915,2.4242,2.4717,2.5005,2.5005,2.5005,2.5005,2.5005,2.5005,2.5005,2.5005,2.4782,2.4559,2.4333,2.4109,2.3732,2.3224,2.3224,2.3105,2.2902,2.3142,2.3244,2.3244,2.3244,2.3606,2.4167,2.3722,2.3809,2.4181,2.3722,2.3809,2.421,2.421,2.45,2.4878,2.4824,2.4824,2.4791,2.4341,2.421,2.4123,2.3693,2.3563,2.3482,2.3287,0.0,0.0,2.2968,2.3389,2.4065,2.4665,2.5328,2.6006,2.6649,2.6806,2.691,2.7331,2.7613,2.7635,2.7261,2.8152,2.8651,2.8019,2.8254,2.8287,2.7762,2.7709,2.753,2.704,2.7007,2.6837,2.6496,2.6461,0.0,2.5629,2.5594,2.5523,2.5312,2.5312,2.5312,2.5312,2.5488,2.5594,2.5629,2.6186,2.6564,2.6735,2.7108,2.7377,2.7543,2.7908,2.8746,2.9894,3.0674,3.1341,3.1897,3.2137,3.2218,3.2218,3.2218,3.2218,3.2218,0.0,0.0,2.3443,2.3442,2.3301,2.3231,2.3424,2.3881,2.4223,2.4217,0.0,0.0,0.0,0.0,0.0,2.5005,2.5005,2.5005,2.5005,2.5005,2.5005,2.5005,2.5005,2.5005,2.5005,2.5005,2.4666,2.4003,2.3982,2.3618,2.2888,2.2917,2.2917,2.2946,2.363,2.3934,2.3949,2.3958,2.4283,2.4839,2.4824,2.4839,2.4907,2.4839,2.4824,2.4839,2.4839,2.4868,2.4936,2.4882,2.4868,2.4868,2.4853,2.4824,2.481,2.4878,2.4839,2.4679,0.0,0.0,0.0,2.3128,2.3432,2.408,2.4694,2.5342,2.6006,2.6649,2.6806,2.6806,2.6806,2.7287,2.764,2.7561,2.8424,2.8649,2.7386,2.8136,2.8505,2.7611,2.7571,2.7417,2.7095,2.7074,2.704,2.704,2.704,2.6803,2.6255,2.6233,2.5943,2.5382,2.5347,2.5347,2.5347,2.5943,2.6233,2.622,2.6769,2.731,2.7809,2.7822,2.8118,2.8587,2.8587,2.865,2.8796,2.9929,3.0758,3.1355,3.1938,3.2218,3.2218,3.2218,3.2218,3.2218,0.0,2.4296,2.4315,2.4716,2.4721,2.4665,2.457,2.469,2.4782,0.0,0.0,0.0,2.5025,2.5005,2.5005,2.5005,2.5005,2.5005,2.5005,2.5005,2.5005,2.5005,2.5143,2.5158,2.5005,2.489,2.4574,2.4003,2.3717,2.3348,2.2902,2.3389,2.363,2.3659,2.4259,2.4834,2.5251,2.4805,2.4965,2.5473,2.4998,2.5085,2.5487,2.4984,2.51,2.5517,2.5517,2.5836,2.6257,0.0,2.6242,2.6155,2.5676,2.5172,2.481,2.4878,2.4878,2.4834,2.4607,0.0,0.0,0.0,0.0,0.0,2.5386,2.5662,2.6006,2.6649,2.6806,2.6806,2.6806,2.6924,2.7032,2.6956,2.7982,2.8612,2.8019,2.8545,2.8825,2.835,2.8732,2.8881,2.856,2.8541,2.8268,0.0,2.7577,2.7343,2.6803,2.6769,2.6688,2.6517,2.6517,2.6517,2.6517,2.6701,2.6769,2.6803,2.731,2.7643,2.7809,2.8183,2.8457,2.8587,2.8587,2.8617,2.8716,2.9903,3.0758,3.1355,3.1938,3.2218,3.2218,3.2218,3.2218,3.2218,2.5071,2.5027,2.5063,2.537,2.5432,2.5355,2.5158,2.5139,2.51,0.0,0.0,0.0,2.5855,2.5727,2.5628,2.5628,2.5467,2.5383,2.5383,2.5383,2.5383,2.5383,2.5207,2.5087,2.4948,2.4627,2.4378,2.4175,2.3925,2.3783,2.3699,2.4123,2.4297,2.4312,2.495,2.5429,2.5803,2.5705,2.5905,2.617,2.5792,2.5879,2.6155,2.5792,2.5879,2.6224,2.6224,2.6486,2.6806,2.6806,2.6806,0.0,2.6355,2.5952,2.5647,2.5676,2.5676,0.0,0.0,0.0,0.0,2.4936,0.0,0.0,2.5647,2.5803,2.6006,2.6649,2.6806,2.6806,2.6806,2.6806,2.6789,2.6744,2.739,2.7918,2.7954,2.8511,2.8813,2.8475,2.8785,2.889,2.8538,2.8401,2.8109,2.7593,2.7675,2.7623,2.7364,2.7142,2.7007,2.7007,2.7007,2.7007,2.7007,2.7209,2.7343,2.7343,2.7888,2.8118,2.8151,2.8457,2.8587,2.8587,2.8587,2.8587,2.8682,2.9903,3.0622,3.1015,3.1857,3.2218,3.2218,3.2218,3.2218,3.2218,0.0,2.5659,2.564,2.5605,2.567,2.564,2.5406,2.547,2.546,0.0,2.574,2.6372,2.7036,2.6764,2.6565,2.6565,2.6244,2.6016,2.5971,2.6016,2.5978,2.5886,2.5394,2.5075,2.5008,2.4498,2.4331,2.4512,2.4535,2.4623,2.481,2.4936,2.4965,2.494,2.5604,2.5919,2.5937,2.6559,2.6806,2.6806,2.6806,2.6806,2.6806,2.6806,2.6806,2.6806,2.6806,2.6806,2.6806,2.6806,2.6806,0.0,2.6806,2.6806,2.6806,0.0,2.6806,0.0,0.0,0.0,0.0,2.5158,2.5081,0.0,2.5803,2.5919,2.6094,2.6689,2.6806,2.6806,2.6806,2.6806,2.6806,2.6806,2.6806,2.6969,2.7441,2.8125,2.848,2.8183,2.8226,2.8125,2.7805,2.7484,2.7278,2.7219,2.7452,2.7678,2.7788,2.7352,2.7111,2.7175,2.7175,2.7175,2.7175,2.7643,2.7875,2.7875,2.836,2.8587,2.8587,2.8587,2.8587,2.8587,2.8587,2.8627,2.8777,2.993,3.0405,3.0527,3.1721,3.2218,3.2218,3.2218,3.2218,3.2218,2.6096,2.5952,2.5789,2.5619,2.6088,2.6344,2.5925,2.6488,2.6912,2.673,2.6799,2.6941,2.7083,2.7034,2.6991,2.6991,2.691,2.672,2.6416,2.6698,2.6588,2.5925,2.6247,2.6192,2.5728,2.5749,2.5576,2.5203,2.5312,2.5174,2.4824,2.5471,2.5719,2.5633,2.6326,2.6617,2.6617,2.6747,2.6806,2.6806,2.6806,2.6806,2.6806,2.6806,2.6806,2.6806,2.6806,2.6806,2.6806,2.6806,2.6806,2.6806,0.0,0.0,0.0,2.6806,0.0,0.0,0.0,0.0,0.0,0.0,2.6416,0.0,2.6588,2.6617,2.6646,2.6765,2.6806,2.6806,2.6806,2.6806,2.6806,2.6806,2.6806,2.684,2.6938,2.7496,2.7857,2.7801,2.8278,2.8468,2.8111,2.8053,2.7778,2.7248,2.7056,2.7195,2.7683,2.7615,2.7798,2.8268,2.8281,2.8281,2.8281,2.8392,2.8457,2.8457,2.8554,2.8587,2.8587,2.8587,2.8587,2.8587,2.8587,2.8872,2.9393,3.0106,3.0405,3.0527,3.1721,3.2218,3.2218,3.2218,3.2218,3.2218,2.6403,2.6512,2.66,2.6474,2.6703,2.6846,2.6718,2.6941,2.71,2.7099,2.7231,2.7433,2.7755,2.7481,2.7263,2.7263,2.7059,2.6964,2.694,2.713,2.7059,2.6675,2.6623,2.6371,2.5862,2.5631,2.5521,2.5595,2.5732,2.5835,2.5923,2.632,2.6466,2.6403,2.6686,2.6806,2.6806,2.6806,2.6806,2.6806,2.6806,2.6806,2.6806,2.6806,2.6806,2.6849,2.7142,2.7258,2.72,2.6895,2.6806,0.0,2.6806,2.6846,2.6899,0.0,2.6937,2.7067,0.0,0.0,0.0,2.6925,0.0,0.0,0.0,2.6846,2.6806,2.6899,2.6846,2.6806,2.6806,2.6806,2.6704,2.637,2.6588,2.6689,2.6355,2.6852,2.7258,2.7258,2.7549,2.7683,2.7504,2.7337,2.7187,2.7012,2.6879,2.7067,2.7657,2.755,2.7732,2.832,2.8234,2.8302,2.8587,2.8587,2.8587,2.8587,2.8587,2.8587,2.8587,2.8587,2.8587,2.8587,2.8587,2.8926,2.9556,3.0147,3.0581,3.0934,3.1829,3.2218,3.2218,3.2218,3.2218,3.2218,2.6771,2.6967,2.7179,2.7105,2.7173,2.729,2.7391,2.7292,2.7234,2.7243,2.7449,2.7774,2.833,2.786,2.7514,2.7514,2.7192,2.713,2.7376,2.7463,2.7437,2.7299,2.6842,2.6396,2.6006,2.5448,2.5458,2.6006,2.6134,2.6451,2.6951,2.6977,2.6977,2.6951,2.6846,2.6806,2.6806,2.6806,2.6806,2.682,2.6924,2.6968,2.6968,2.6968,2.7041,2.7241,2.7737,2.7884,2.7824,2.737,2.7195,2.7154,2.7065,2.7074,0.0,0.0,0.0,0.0,0.0,0.0,0.0,0.0,0.0,2.7055,0.0,0.0,0.0,2.6977,0.0,0.0,0.0,0.0,0.0,2.5919,0.0,0.0,0.0,2.6068,0.0,2.6777,2.6806,2.6806,2.6806,2.6498,2.6416,2.6666,2.6666,2.6877,2.7493,2.7273,2.7389,2.7905,2.7841,2.7999,2.841,2.8532,2.8587,2.8587,2.8587,2.8587,2.8587,2.8587,2.8587,2.8587,2.8587,2.8994,2.9719,3.0201,3.0825,3.1504,3.2028,3.2218,3.2218,3.2218,3.2218,3.2218,2.7373,2.6867,2.6466,2.6363,2.715,2.7736,2.7517,2.8162,2.8459,2.788,2.7844,2.7896,2.7972,2.7889,2.7839,2.7839,2.779,2.767,2.7427,2.767,2.7555,2.691,2.7148,2.7104,2.6704,2.6605,2.6605,2.6704,2.6808,2.6864,2.6832,2.6951,2.6951,2.6806,2.6806,2.6806,2.6806,2.6806,2.6806,2.6837,2.7389,2.7594,2.7594,2.7594,2.7969,2.8505,2.8564,2.8607,2.8578,0.0,2.8588,2.8417,0.0,2.7756,2.7547,2.7085,0.0,0.0,0.0,0.0,0.0,0.0,2.7181,0.0,0.0,0.0,2.6977,2.7003,0.0,0.0,0.0,0.0,0.0,0.0,0.0,0.0,2.5013,2.4984,2.5462,2.6649,2.6806,2.6806,2.6806,2.6498,2.6312,2.6356,2.6141,2.6273,2.6863,2.6862,2.6999,2.7301,2.7779,2.7985,2.78,2.8329,2.8587,2.8587,2.8587,2.8587,2.8587,2.8587,2.8587,2.8587,2.8587,2.9252,3.031,3.0378,3.107,3.211,3.2191,3.2218,3.2218,3.2218,3.2218,3.2218,2.7299,2.7226,2.7222,2.7037,2.7328,2.7631,2.7721,2.8071,2.8272,2.8141,2.8124,2.8274,2.8678,2.8497,2.8216,2.782,2.7776,2.7817,2.7936,2.7718,2.7622,2.7686,2.7491,2.7222,2.6806,2.6806,2.6846,2.6925,2.6977,2.7029,2.7026,2.7029,2.6977,2.6925,2.6832,2.6806,2.6806,2.6806,2.6997,2.7345,2.7594,2.8145,2.8754,2.8419,2.8666,2.9189,2.884,2.8927,2.9174,0.0,2.8807,0.0,0.0,0.0,0.0,2.8309,0.0,0.0,0.0,0.0,0.0,0.0,0.0,0.0,2.731,0.0,2.7144,0.0,0.0,0.0,0.0,0.0,0.0,0.0,2.6453,0.0,0.0,0.0,2.5742,0.0,0.0,0.0,2.6195,2.6428,2.6592,2.6592,2.65,2.6535,2.6807,2.663,2.6707,2.7172,2.7466,2.7679,2.7927,2.8384,2.8587,2.8587,2.8587,2.8587,2.8587,2.8587,2.8587,2.8587,2.8587,2.9279,3.0405,3.0405,3.111,3.2218,3.2408,3.2372,3.2218,3.2218,3.2218,3.2218,2.7412,2.7519,2.763,2.7423,2.7386,2.7548,2.7946,2.8177,2.831,2.8397,2.8402,2.8594,2.9096,2.8877,2.8492,2.8028,2.7956,2.8106,2.8375,2.7989,2.7945,2.8387,2.8027,2.7659,2.7329,2.7181,2.7188,2.7252,2.7091,2.7067,2.7207,2.7093,2.7029,2.7003,2.6899,2.6832,2.682,2.6968,2.7316,2.7739,2.8087,2.887,2.9842,2.9406,2.9522,2.9857,2.942,2.958,2.9944,2.9549,2.9445,0.0,2.9338,2.9433,2.9542,0.0,0.0,0.0,2.8755,0.0,0.0,0.0,0.0,0.0,0.0,0.0,0.0,0.0,0.0,0.0,0.0,0.0,0.0,0.0,0.0,2.6748,0.0,2.5512,0.0,0.0,0.0,0.0,0.0,2.618,2.6469,2.6645,2.6581,2.6617,2.6806,2.6566,2.6607,2.6928,2.7284,2.7635,2.7989,2.8573,2.8812,2.8748,2.8748,2.8683,2.8587,2.8587,2.8587,2.86,2.8763,2.9442,3.0418,3.0581,3.126,3.2205,3.248,3.248,3.235,3.235,3.2277,3.2218,2.8001,2.762,2.7155,2.6858,2.7144,2.7594,2.8188,2.8842,2.9123,2.8721,2.868,2.8694,2.8709,2.8709,2.8694,2.868,2.868,2.868,2.868,2.8651,2.8651,2.868,2.8804,2.8789,2.8651,2.8192,2.7937,2.7881,2.7296,2.7067,2.7207,2.7207,2.7104,2.7003,2.7003,2.6925,2.6849,2.7405,2.7681,2.7811,2.9044,2.9958,3.0569,0.0,3.0614,3.0762,3.0748,0.0,0.0,3.1175,3.1116,0.0,0.0,0.0,0.0,0.0,0.0,0.0,0.0,0.0,0.0,2.8562,0.0,0.0,0.0,0.0,2.8222,0.0,0.0,0.0,0.0,0.0,0.0,0.0,0.0,0.0,0.0,0.0,0.0,0.0,0.0,0.0,0.0,2.5621,2.5675,0.0,2.6009,2.6123,2.6777,2.6779,2.6633,2.6353,2.7512,2.8039,2.7733,2.8954,2.9415,2.9067,2.9067,2.8908,2.8587,2.8587,2.8587,2.8627,2.923,2.9808,3.0459,3.1029,3.1626,3.2218,3.2218,3.2408,3.2668,3.2668,3.248,3.2218,2.8934,2.8626,2.8261,2.8097,2.8165,2.832,2.8525,2.8759,2.8995,2.9247,2.9305,2.9464,2.9915,2.9973,2.9798,2.9334,2.9305,2.9305,2.9305,2.8913,2.8869,2.929,2.8955,2.875,2.8709,2.8533,2.85,2.8556,2.8281,2.8179,0.0,0.0,0.0,0.0,2.7511,2.7484,2.7538,2.7663,2.8188,2.9029,0.0,3.064,3.1148,0.0,3.0874,3.1267,3.1267,3.1575,0.0,3.2247,3.2014,3.1677,3.1649,3.1351,3.1007,3.0856,3.0496,3.0138,0.0,0.0,2.925,2.925,0.0,0.0,0.0,0.0,0.0,0.0,0.0,0.0,0.0,0.0,0.0,0.0,0.0,0.0,0.0,0.0,0.0,0.0,0.0,0.0,0.0,0.0,0.0,0.0,2.6276,2.6573,2.6806,2.6806,2.6753,2.6618,2.7223,2.7698,2.8024,2.8639,2.9089,2.9415,2.9415,2.9383,2.9257,2.9257,2.9131,2.8967,2.9572,3.0037,3.0459,3.1294,3.2003,3.2574,3.3072,3.3178,3.3058,3.281,3.281,3.2931,2.9631,2.9481,2.9211,2.885,2.8911,2.9015,2.9015,2.9232,2.9522,2.99,3.0132,3.0422,3.0858,3.1119,3.1105,3.0654,3.0625,3.0625,3.0625,3.0045,2.9871,3.0248,2.9755,2.9406,2.9377,2.9273,2.9241,2.9312,2.9078,2.9016,0.0,0.0,0.0,0.0,0.0,2.8194,2.8194,2.8331,2.8841,0.0,0.0,3.127,0.0,0.0,3.1681,3.2061,0.0,3.2463,3.2893,3.3018,3.2831,3.2568,3.2705,3.2497,3.2153,3.1929,3.154,3.1165,3.0926,3.0402,0.0,2.9909,2.943,0.0,2.9158,0.0,2.8682,0.0,0.0,0.0,0.0,0.0,0.0,0.0,0.0,0.0,0.0,2.6518,0.0,0.0,0.0,0.0,0.0,0.0,2.553,2.5663,2.5926,2.63,2.6765,2.6806,2.6806,2.6806,2.7173,2.768,2.8369,2.8753,2.9213,2.9772,2.9772,2.9741,2.9602,2.9602,2.9589,2.9622,3.0248,3.074,3.1158,3.184,3.2345,3.2739,3.3234,3.3374,3.3269,3.3129,3.3164,3.3304,3.0098,3.0159,2.9896,2.9137,2.9376,2.9639,2.9639,3.0219,3.0641,3.0641,3.1177,3.1538,3.1538,3.2104,3.2481,3.2481,3.2481,3.2481,3.2481,3.1917,3.1569,3.1569,3.1111,3.0805,3.0671,3.0309,3.0129,3.013,2.9665,0.0,0.0,0.0,0.0,0.0,2.9156,0.0,2.8824,2.9392,2.9668,2.9827,3.1259,3.1924,3.2164,3.2799,3.3079,3.3138,3.3265,3.3435,3.3558,3.3589,3.3574,3.3544,3.3544,3.3529,3.3365,3.2751,3.2557,3.2392,3.1735,3.1077,3.0597,3.0567,3.0088,0.0,0.0,0.0,2.9481,0.0,0.0,0.0,0.0,0.0,0.0,0.0,0.0,0.0,0.0,0.0,2.6182,0.0,0.0,0.0,0.0,2.4223,2.4406,2.5331,2.5029,2.539,2.6747,2.6777,2.6777,2.6806,2.7374,2.7971,2.8694,2.9276,2.9737,3.0111,3.0111,2.9958,2.9634,2.9634,2.9957,3.058,3.1148,3.1794,3.2412,3.2667,3.2739,3.2775,3.2775,3.3023,3.3374,3.3701,3.3632,3.3409,3.1112,3.104,3.0851,3.0382,3.0338,3.0321,3.0321,3.0872,3.1279,3.1279,3.1845,3.2234,3.2234,3.2394,3.2481,3.2481,3.2481,3.2481,3.2481,3.2494,3.247,3.247,3.1967,3.1691,3.163,3.0984,3.0631,3.0617,3.0412,0.0,3.0484,0.0,0.0,0.0,0.0,2.9764,2.9906,2.9954,3.0456,3.1288,3.1748,3.2483,3.3302,0.0,3.4199,3.4552,3.4031,3.4132,3.4564,3.4708,3.4431,3.4046,3.4186,3.3888,3.3469,3.329,3.3245,3.3095,3.2437,3.2138,3.1884,3.1361,3.0761,3.0295,0.0,0.0,0.0,0.0,0.0,0.0,0.0,0.0,0.0,0.0,0.0,0.0,0.0,0.0,0.0,2.6214,0.0,0.0,2.4498,2.4594,2.4882,2.536,2.5067,2.5444,2.6747,2.6341,2.6297,2.6765,2.6939,2.7563,2.8694,2.884,2.945,3.0462,3.0462,3.0431,3.0326,3.0326,3.0549,3.0899,3.1492,3.1999,3.2481,3.319,3.3514,3.3563,3.3839,3.4025,3.4128,3.4196,3.4196,3.4128,3.1409,3.1515,3.1545,3.1351,3.1511,3.1508,3.1062,3.154,3.1961,3.1961,3.2527,3.2933,3.2933,3.318,3.334,3.334,3.334,3.334,3.334,3.319,3.3127,3.3176,3.2579,3.2112,3.1925,3.1482,3.1144,3.0925,3.091,0.0,3.1087,0.0,0.0,0.0,0.0,3.0542,3.0658,3.0851,3.1515,3.2488,3.2831,3.341,0.0,3.4577,3.4984,3.5282,3.4812,3.4869,3.518,3.5294,3.5073,3.4778,3.4889,3.4681,3.4322,3.4008,3.3918,3.3784,3.3125,3.2946,3.2781,3.2093,3.163,3.1315,3.0987,3.0654,3.0266,0.0,2.9827,2.9701,0.0,0.0,0.0,0.0,0.0,0.0,0.0,0.0,0.0,0.0,2.5592,0.0,2.4862,2.4493,2.45,2.5129,2.4879,2.5238,2.6502,2.6235,2.6261,2.6791,2.6806,2.7416,2.8694,2.8709,2.9348,3.0598,3.0598,3.0598,3.0612,3.0858,3.1244,3.1691,3.2324,3.2858,3.3305,3.3662,3.3805,3.3805,3.4059,3.423,3.4414,3.4414,3.4414,3.4414,3.1604,3.1931,3.218,3.2119,3.2696,3.2838,3.1891,3.2266,3.2675,3.2675,3.3227,3.3634,3.3634,3.4095,3.4414,3.4414,3.4414,3.4414,3.4414,3.3925,3.3718,3.3853,3.3124,3.2526,3.2173,3.204,3.1748,3.1279,3.1367,3.1425,0.0,0.0,0.0,0.0,0.0,0.0,0.0,3.1959,3.2671,3.3477,3.4012,3.439,3.4666,3.528,3.5504,3.5504,3.5504,3.5504,3.5504,3.5504,3.5504,3.5504,3.5504,3.5504,3.5385,3.4786,3.4638,3.4488,3.3799,3.3619,3.3469,3.2811,3.2647,3.2467,3.178,3.1167,3.0745,3.0648,3.0128,2.9559,2.9041,0.0,0.0,0.0,0.0,0.0,0.0,0.0,0.0,0.0,0.0,0.0,2.5333,2.4235,2.3929,2.4886,2.4567,2.4929,2.6214,0.0,2.6375,2.6791,2.6866,2.7476,2.8694,2.8796,2.9435,3.0598,3.0598,3.0598,3.0627,3.1221,3.1857,3.2556,3.3195,3.3819,3.438,3.4025,3.3874,3.3874,3.3874,3.4094,3.4414,3.4414,3.4414,3.4414,3.3125,3.3184,3.3167,3.2858,3.3469,3.3805,3.3234,3.3339,3.3495,3.3495,3.3933,3.424,3.424,3.4356,3.4414,3.4414,3.4414,3.4414,3.4414,3.4461,3.4555,3.4692,3.4189,3.3949,3.4049,3.3372,3.2731,3.2094,3.1944,3.1679,3.1322,0.0,0.0,0.0,0.0,0.0,3.2303,3.2945,0.0,3.4072,3.4332,3.4705,3.5115,3.5379,3.5504,3.5504,3.5504,3.5504,3.5504,3.5504,3.5504,3.5504,3.5504,3.5504,3.5489,3.5355,3.5325,3.5175,3.4518,3.4339,3.4174,3.3484,3.332,3.3155,3.2497,3.2213,3.1984,3.1369,3.0776,3.0419,3.0616,0.0,0.0,0.0,0.0,0.0,0.0,0.0,0.0,0.0,0.0,2.5902,0.0,2.4811,2.4594,2.5262,2.4539,2.4724,2.6224,0.0,2.5943,0.0,2.7287,2.7926,0.0,0.0,2.9827,3.0598,3.0598,3.0598,3.0627,3.1221,3.1857,3.2556,3.3195,3.3819,3.438,3.4312,3.4312,3.4312,3.4312,3.4346,3.4414,3.4414,3.4414,3.4414,3.3499,3.3769,3.3977,3.3821,3.4403,3.4803,3.4558,3.451,3.438,3.4101,3.4244,3.4414,3.4414,3.4414,3.4414,3.4414,3.4414,3.4414,3.4414,3.4597,3.4731,3.4783,3.4658,3.4463,3.4233,3.3858,3.3398,3.2807,3.2731,3.2406,3.1916,3.1871,0.0,3.1511,0.0,3.2527,0.0,0.0,3.4351,3.4867,3.4978,3.5141,3.5359,3.5472,3.5504,3.5504,3.5504,3.5504,3.5504,3.5504,3.5504,3.5504,3.5504,3.5504,3.5504,3.5504,3.5504,3.5429,3.51,3.5011,3.4846,3.4173,3.4256,3.4213,3.3246,3.302,3.2815,3.2105,3.1708,3.162,3.2008,3.1214,0.0,0.0,0.0,0.0,0.0,0.0,2.9144,0.0,0.0,0.0,0.0,0.0,0.0,0.0,2.5185,2.5307,2.6555,0.0,2.6362,0.0,0.0,0.0,2.8694,0.0,2.9943,3.0598,3.0598,3.0772,3.109,3.1743,3.2396,3.305,3.3688,3.4124,3.4414,3.4414,3.4414,3.4414,3.4414,3.4414,3.4414,3.4414,3.4414,3.4414,3.3918,3.4337,3.4696,3.4665,3.5113,3.5472,3.5392,3.5261,3.4968,3.4582,3.4481,3.4448,3.4414,3.4414,3.4414,3.4448,3.4448,3.4481,3.4515,3.465,3.4765,3.4798,3.4916,3.4765,3.4327,3.4312,3.4065,3.3553,3.3553,3.3183,3.2512,3.2662,0.0,0.0,0.0,0.0,0.0,0.0,3.5011,3.5504,3.5504,3.5504,3.5504,3.5504,3.5504,3.5504,3.5504,3.5504,3.5504,3.5504,3.5504,3.5504,3.5504,3.5504,3.5504,3.5504,3.5504,3.5504,3.5504,3.5504,3.537,3.4831,3.5185,3.5309,3.4152,3.4009,3.3895,3.3056,3.2719,3.2627,3.2809,3.1694,0.0,0.0,0.0,0.0,0.0,0.0,2.9579,0.0,0.0,0.0,2.7367,0.0,0.0,0.0,2.6052,2.5935,2.6833,2.6905,2.6945,2.7023,0.0,2.8296,2.8807,0.0,3.0074,3.0598,3.0598,3.0916,3.1509,3.2176,3.2861,3.3532,3.4138,3.4467,3.4568,3.4568,3.4635,3.4735,3.4735,3.4735,3.4735,3.4735,3.4735,3.4687,3.531,3.537,3.5335,3.5157,3.5347,3.5359,3.5001,3.4935,3.4902,3.4868,3.475,3.4597,3.4414,3.4414,3.4481,3.4664,3.4664,3.4716,3.4835,3.4868,3.4968,3.5148,3.5148,3.5231,3.535,3.535,3.5038,3.4382,0.0,3.3739,0.0,0.0,0.0,0.0,0.0,0.0,0.0,3.5145,3.5444,3.5504,3.5504,3.5504,3.5504,3.5504,3.5504,3.5504,3.5504,3.5504,3.5504,3.5504,3.5504,3.5504,3.5504,3.5504,3.5504,3.5504,3.5504,3.5504,3.5504,3.5504,3.5489,3.5429,3.5867,3.6122,3.5385,3.5675,3.5745,3.44,3.3608,3.2951,3.2384,3.2528,3.2336,0.0,0.0,0.0,0.0,0.0,3.0141,2.9479,0.0,0.0,2.8321,2.8096,2.8203,0.0,2.6882,2.6019,2.6764,2.688,2.7188,2.7784,2.8681,2.9191,2.9222,3.0075,3.0539,3.0598,3.0598,3.0916,3.1509,3.2176,3.2861,3.3532,3.4138,3.4668,3.5136,3.5136,3.5382,3.5753,3.5753,3.5753,3.5753,3.5753,3.5753,3.5705,3.5504,3.5504,3.5472,3.5392,3.5439,3.5574,3.5814,3.5874,3.5941,3.6259,3.5267,3.4549,3.4597,3.4481,3.4414,3.4515,3.4515,3.4582,3.4783,3.4883,3.4935,3.5001,3.5261,3.5359,3.5326,3.5439,3.537,3.51,0.0,0.0,0.0,0.0,0.0,0.0,0.0,3.4728,3.5115,3.5385,3.5504,3.5504,3.5504,3.5504,3.5504,3.5504,3.5504,3.5504,3.5504,3.5504,3.5504,3.5504,3.5504,3.5504,3.5504,3.5504,3.5504,3.5504,3.5504,3.5504,3.5504,3.5504,3.5587,3.5941,3.6508,3.6948,3.6651,3.6784,3.6678,3.5756,3.4904,3.4227,3.3884,3.3413,3.2966,3.2676,0.0,0.0,0.0,0.0,0.0,3.0092,0.0,2.9777,2.9069,2.8923,2.8817,0.0,2.798,2.7699,2.8041,2.8085,2.8227,2.8546,0.0,2.9862,3.031,3.1031,3.1364,3.1408,3.1825,3.2363,3.2944,3.3692,3.4349,3.4944,3.5213,3.5415,3.564,3.564,3.5721,3.5913,3.5913,3.5913,3.5913,3.5913,3.5913,3.5881,3.5759,3.5789,3.5848,3.6028,3.6073,3.6222,3.6686,3.6727,3.6824,3.7203,3.6016,3.5171,3.5321,3.5205,3.5171,3.5205,3.5205,3.5234,3.5226,3.5311,3.5274,3.5082,3.5359,3.5439,3.5294,3.5439,3.5504,3.5504,3.5504,0.0,0.0,0.0,0.0,0.0,3.4771,3.5055,3.5504,3.5504,3.5504,3.5504,3.5504,3.5504,3.5504,3.5504,3.5619,3.5733,3.5554,3.5619,3.5733,3.5554,3.5504,3.5504,3.5504,3.5504,3.5504,3.5504,3.5504,3.5504,3.5504,3.5504,3.5587,3.6022,3.6784,3.7399,3.7399,3.7653,3.7693,3.7069,3.5948,3.5129,3.5217,3.4363,3.3669,3.3776,0.0,0.0,0.0,3.1151,0.0,3.0522,3.0506,3.029,2.9761,2.9711,2.9533,0.0,0.0,2.9437,2.8978,2.9176,2.9335,0.0,0.0,0.0,3.1167,3.1658,3.1999,3.2239,3.2739,3.3422,3.4243,3.4942,3.5504,3.5913,3.5913,3.5976,3.6149,3.6149,3.6243,3.6368,3.6368,3.6368,3.6368,3.6368,3.6368,3.6337,3.6357,3.6477,3.6671,3.7285,3.7389,3.7389,3.7404,3.7282,3.7248,3.737,3.708,3.6871,3.6871,3.6871,3.6956,3.7144,3.7179,3.698,3.6522,3.6477,3.6193,3.5534,3.5504,3.5504,3.5504,3.5504,3.5504,3.5504,0.0,0.0,3.4503,0.0,3.4846,3.5489,3.5489,3.5489,3.5504,3.5504,3.5504,3.5504,3.5504,3.5504,3.5504,3.5504,3.5878,3.6305,3.5701,3.5878,3.629,3.5701,3.5504,3.5504,3.5504,3.5504,3.5504,3.5504,3.5504,3.5504,3.5504,3.5504,3.5504,3.5504,3.6461,3.7399,3.7399,3.8367,3.9056,3.8335,3.6551,3.5275,3.5877,3.5379,3.4634,3.3905,0.0,0.0,0.0,3.1598,0.0,3.0588,3.0506,3.0506,3.0489,3.0489,0.0,0.0,0.0,3.083,2.919,0.0,0.0,3.0479,3.1451,0.0,3.1599,3.1812,3.227,3.298,3.2996,3.3695,3.5003,3.5594,3.5897,3.5913,3.5913,3.6212,3.6693,3.6693,3.6998,3.748,3.748,3.748,3.748,3.748,3.748,3.7405,3.7075,3.712,3.718,3.7375,3.7404,3.7554,3.8003,3.8058,3.8187,3.8686,3.8674,3.8603,3.8603,3.7573,3.6936,3.697,3.7005,3.7001,3.698,3.6965,3.6749,3.6193,3.6178,3.5968,3.5519,3.5504,3.5504,3.5504,0.0,0.0,0.0,3.5175,3.5295,3.5504,3.5504,3.5504,3.5504,3.5504,3.5504,3.5504,3.5504,3.5504,3.5504,3.5504,3.5878,3.6368,3.6196,3.6523,3.6981,3.6337,3.6101,3.6053,3.5619,3.5797,3.6101,3.6101,3.643,3.6708,3.6227,3.6101,3.6101,3.6101,3.6753,3.7517,3.7908,3.8689,3.91,3.8361,3.7659,3.6964,3.6166,3.581,3.5413,3.4667,3.4121,0.0,3.3176,0.0,3.2249,3.2017,3.2,3.2,3.2,3.2,0.0,0.0,0.0,0.0,0.0,0.0,0.0,0.0,3.2414,0.0,3.3023,3.3368,3.3642,3.3904,3.4844,3.581,3.6701,3.6889,3.6983,3.6983,3.6983,3.7089,3.7255,3.7255,3.7345,3.751,3.751,3.751,3.751,3.751,3.751,3.748,3.7734,3.7778,3.7853,3.8123,3.8167,3.8302,3.8721,3.8781,3.8931,3.9364,3.9388,3.9388,3.9388,3.8463,0.0,3.7851,3.7851,3.7783,3.767,3.7655,3.7406,3.6866,3.6836,3.6537,3.5893,3.5878,0.0,3.5504,3.5504,3.5504,3.5504,3.5504,3.5504,3.5504,3.5504,3.5504,3.5504,3.5504,3.5504,3.5534,3.5774,3.5878,3.5893,3.6133,3.6604,3.7152,3.7184,3.7608,3.8083,3.7685,3.7561,3.7452,3.6797,3.7049,3.7386,3.6616,3.6692,3.6981,3.6814,3.6784,3.6784,3.6784,3.7251,3.7908,3.8535,3.8996,3.9183,3.8709,3.8394,3.7822,3.6638,3.6191,3.576,3.5015,3.4502,3.4104,3.3822,3.3392,3.3017,0.0,3.2702,3.2702,3.2702,3.2702,3.2497,0.0,0.0,0.0,0.0,0.0,3.302,3.3209,3.3217,3.3517,3.4052,3.4217,3.4557,3.511,3.6263,3.7054,3.751,3.751,3.751,3.751,3.751,3.751,3.751,3.751,3.751,3.751,3.751,3.751,3.751,3.751,3.751,3.751,3.8347,3.8467,3.8661,3.9305,3.9388,3.9388,3.9388,3.9388,3.9388,3.9388,3.9388,3.9388,3.9388,3.9388,3.9388,3.9388,0.0,0.0,3.8497,3.8467,3.8167,3.7509,3.7479,3.718,3.6567,3.6552,3.6237,3.5579,3.5579,3.5549,3.5504,3.5504,3.5504,3.5504,3.5504,3.5534,3.5579,3.5579,3.5594,3.5684,3.6297,3.6552,3.6611,3.7195,3.7864,3.8479,3.8544,3.8981,3.9533,3.9563,3.9563,3.9452,3.8773,3.8926,3.8956,3.7093,3.6569,3.6723,3.731,3.7458,3.7442,3.7429,3.7851,3.8463,3.9148,3.9299,3.9299,3.9299,3.8742,3.8063,3.7317,3.6622,3.5893,3.5098,3.4982,3.4717,3.3972,3.3872,3.3607,3.2934,0.0,0.0,3.2868,3.2868,3.2834,0.0,0.0,0.0,0.0,0.0,3.3763,3.3505,3.3966,3.4387,3.476,3.4589,3.5154,3.6472,3.7164,3.751,3.751,3.751,3.751,3.751,3.751,3.751,3.751,3.751,3.751,3.751,3.751,3.751,3.751,3.751,3.751,3.751,0.0,0.0,3.923,3.9358,3.9388,3.9388,3.9388,3.9388,3.9388,3.9388,3.9388,3.9388,3.9388,3.9388,3.9388,3.9388,3.9388,3.9313,3.9185,3.917,3.8871,3.8182,3.8153,3.7853,3.721,3.7195,3.6881,3.6252,3.6252,3.5998,3.5504,3.5504,3.5504,3.5504,3.5504,3.5789,3.6252,3.6252,3.6522,3.6971,3.712,3.7195,3.721,3.736,3.8134,3.9156,3.9188,3.9934,4.086,4.0402,4.0252,4.016,3.9465,3.9007,3.8601,3.803,3.821,3.8523,3.8181,3.808,3.7966,3.7517,3.7851,3.8463,3.9148,3.9299,3.9299,3.9299,3.9166,3.8808,3.8079,3.7814,3.7268,3.5959,3.5744,3.5479,3.4733,3.4634,3.4568,0.0,3.4369,3.4369,3.4369,3.4369,3.4137,0.0,0.0,3.4386,3.3822,3.4319,3.461,3.4563,3.5005,3.5288,3.5391,3.5985,3.6616,3.7227,3.7431,3.751,3.751,3.751,3.751,3.751,3.751,3.751,3.751,3.751,3.751,3.751,3.751,3.751,3.751,3.751,3.751,3.751,4.0307,4.0307,4.0307,4.0307,4.0307,4.0307,4.0307,4.0307,4.0202,3.9903,3.9873,3.9753,3.9418,3.9388,3.9388,3.9388,3.9388,3.9388,3.9388,3.9388,3.9245,3.8871,3.8856,3.8542,3.7868,3.7853,3.7539,3.6911,3.6911,3.6731,3.6372,3.6372,3.6372,3.6372,3.6372,3.6567,3.6911,3.6911,3.7105,3.7434,3.7734,3.7853,3.7933,3.8564,3.9269,3.9983,4.061,4.1342,4.1963,4.1917,4.1933,4.1792,4.1105,4.0612,4.0251,3.9838,3.9308,3.8843,3.8772,3.8745,3.8689,3.8339,3.8507,3.8843,3.9218,3.9299,3.9299,3.9299,3.9299,3.9083,3.8344,3.8186,3.7847,3.6688,3.6224,3.586,3.5462,3.5114,3.4899,3.4899,3.4899,3.4899,3.4899,3.4899,3.4717,3.4319,3.4982,0.0,3.4816,3.5495,3.5744,3.5413,3.5531,3.5906,3.6544,3.7242,3.7709,3.7905,3.7743,3.7685,3.7685,3.7553,3.751,3.751,3.751,3.751,3.751,3.751,3.751,3.751,3.751,3.751,3.751,3.751,3.751,3.751,4.1422,4.1422,4.1422,4.1422,4.1422,4.1422,4.1422,4.1422,4.119,4.0621,4.0546,4.0337,3.9768,3.9709,3.9679,3.9574,3.9574,3.9493,3.9388,3.9388,3.9388,3.9388,3.9388,3.914,3.8556,3.8542,3.8212,3.7554,3.7554,3.7509,3.7404,3.7404,3.7404,3.7404,3.7507,3.7567,3.7554,3.7657,3.7717,3.7764,3.8317,3.8612,3.8833,4.0056,4.065,4.0974,4.2158,4.2679,4.2851,4.3402,4.3598,4.3482,4.2853,4.2589,4.2373,4.1728,4.0233,3.8856,3.9346,3.9381,3.9299,3.9299,3.9299,3.9299,3.9299,3.9299,3.9299,3.9299,3.9299,3.9116,3.8477,3.8377,3.8129,3.74,3.6738,3.629,3.6191,0.0,3.523,3.523,3.523,3.523,3.523,3.523,3.523,3.523,3.581,3.6174,3.6174,3.6771,3.687,3.6357,3.6099,3.6612,3.7855,3.8263,3.8448,3.8391,3.8103,3.7943,3.7886,3.7655,3.7524,3.751,3.751,3.751,3.751,3.751,3.751,3.751,3.751,3.751,3.751,3.751,3.751,3.751,4.1422,4.1422,4.1422,4.1422,4.1422,4.1422,4.1422,4.1422,4.1339,4.125,4.1235,4.1227,4.1085,4.107,4.0846,4.0292,4.0247,4.0008,3.9454,3.9388,3.9388,3.9388,3.9388,3.9328,3.926,3.926,3.8931,3.8242,3.8242,3.7943,3.7404,3.7404,3.7404,3.7439,3.8065,3.8318,3.8312,3.8918,3.915,3.911,3.9179,3.9622,4.0201,4.0413,4.1243,4.2285,4.2522,4.2974,4.3462,4.3552,4.3598,4.3582,4.3466,4.2986,4.2473,4.2357,4.1654,4.0833,4.0365,3.9779,3.9299,3.9299,3.9299,3.9299,3.9299,3.9299,3.9299,3.9299,3.9299,3.9265,3.9149,3.9133,3.8901,3.8162,3.7947,3.7649,3.7036,0.0,3.6771,3.6771,3.6771,3.6771,3.6771,3.6771,3.6771,3.6771,3.687,3.6936,3.6936,3.7052,3.7334,3.7847,3.7812,3.8061,3.8625,3.8701,3.8628,3.8391,3.8335,3.8177,3.7915,3.7857,3.7698,3.751,3.751,3.751,3.751,3.751,3.751,3.751,3.751,3.751,3.751,3.751,3.751,3.751,4.2432,4.2432,4.2432,4.2432,4.2432,4.2432,4.2432,4.2432,4.2312,4.1991,4.1946,4.1811,4.1452,4.1422,4.1265,4.095,4.0935,4.0651,3.9993,3.9619,3.9388,3.9388,3.9388,3.9388,3.9388,3.9388,3.926,3.8945,3.934,3.9188,3.8497,3.8871,3.8851,3.8517,3.9249,3.9554,3.9569,4.0272,4.0544,4.0531,4.0531,4.0737,4.1075,4.1492,4.2029,4.2648,4.3005,4.3342,4.3598,4.3598,4.3598,4.3598,4.3598,4.3367,4.3085,4.3085,4.2038,4.0779,4.0492,3.9862,3.9299,3.9299,3.9299,3.9299,3.9299,3.9299,3.9299,3.9299,3.9299,3.9299,3.9299,3.9299,3.9199,3.8841,3.846,3.8096,3.7748,3.7367,3.7102,3.7102,3.7102,3.7102,3.7102,3.7102,3.7102,3.7102,3.7483,3.7673,3.7673,3.8063,3.8427,3.8775,3.8775,3.8887,3.9067,3.9067,3.9013,3.8892,3.8711,3.8528,3.8371,3.8246,3.8091,3.7963,3.7801,3.7714,3.7698,3.7553,3.751,3.751,3.751,3.751,3.751,3.751,3.751,3.751,4.329,4.329,4.329,4.329,4.329,4.329,4.329,4.329,4.315,4.2656,4.262,4.2387,4.1893,4.1833,4.1773,4.1662,4.1647,4.1324,4.0666,4.0157,3.9738,3.9388,3.9388,3.9388,3.9388,3.9388,3.9388,3.9388,4.0146,4.0216,3.9681,4.0374,4.0339,3.9681,4.0409,4.065,4.0547,4.1227,4.1492,4.1492,4.1492,4.1591,4.1819,4.238,4.271,4.2912,4.3432,4.3598,4.3598,4.3598,4.3598,4.3598,4.3598,4.3598,4.3598,4.3598,4.2319,4.0812,4.0492,3.9995,3.9514,3.9348,3.9299,3.9299,3.9299,3.9299,3.9299,3.9299,3.9299,3.9299,3.9299,3.9299,3.9299,3.9299,0.0,3.846,3.846,3.7963,3.7615,3.7615,3.7615,3.7615,3.7615,3.7615,3.7615,3.7615,3.8146,3.846,3.846,3.9,3.9299,3.9299,3.9299,3.9299,3.9299,3.9299,3.9299,3.9299,3.904,3.8887,3.8805,3.86,3.8448,3.8408,3.8148,3.8017,3.7988,3.7714,3.7583,3.7583,3.7539,3.751,3.751,3.751,3.751,3.751,4.329,4.329,4.329,4.329,4.329,4.329,4.329,4.329,4.3275,4.323,4.3215,4.32,4.3155,4.314,4.294,4.2381,4.2336,4.2051,4.1354,4.1265,4.0696,3.9433,3.9388,3.9388,3.9388,3.9388,3.9388,3.9388,4.0146,4.0478,4.0443,4.1093,4.1075,4.0443,4.1127,4.1075,4.0547,4.1227,4.1492,4.1492,4.1492,4.1917,4.2506,4.2585,4.2974,4.3522,4.3582,4.3598,4.3598,4.3598,4.3598,4.3598,4.3598,4.3598,4.3598,4.3598,4.2986,4.2071,4.0746,4.0359,4.016,3.9481,3.9299,3.9299,3.9299,3.9299,3.9299,3.9299,3.9299,3.9299,3.9299,3.9299,3.9299,3.9299,0.0,0.0,3.9232,3.9183,3.9133,3.9133,3.9133,3.9133,3.9133,3.9133,3.9133,3.9133,3.9199,3.9232,3.9232,3.9265,3.9299,3.9299,3.9299,3.9299,3.9299,3.9299,3.9299,3.9299,3.9272,3.9094,3.8805,3.8777,3.8628,3.8391,3.8363,3.8363,3.8335,3.8017,3.7857,3.7857,3.7612,3.751,3.751,3.751,3.751,3.751,4.329,4.329,4.329,4.329,4.329,4.329,4.329,4.329,4.329,4.329,4.329,4.329,4.329,4.329,4.32,4.2985,4.297,4.2686,4.2066,4.2036,4.1399,4.0083,4.0023,3.9843,3.9388,3.9388,3.961,4.0076,4.0771,4.1127,4.1142,4.1852,4.1787,4.116,4.1852,4.2061,4.1868,4.2506,4.2803,4.2803,4.2803,4.2974,4.3235,4.3235,4.3372,4.3598,4.3598,4.3598,4.3598,4.3598,4.3598,4.3598,4.3598,4.3598,4.3598,4.3598,4.34,4.2953,4.1972,4.1044,4.0343,4.0061,3.9647,3.9299,3.9299,3.9299,3.9299,3.9299,3.9299,3.9299,3.9299,3.9299,3.9299,3.9299,0.0,3.9299,3.9299,3.9299,3.9299,3.9299,3.9299,3.9299,3.9299,3.9299,3.9299,3.9299,3.9299,3.9299,3.9299,3.9299,3.9299,3.9299,3.9299,3.9299,3.9299,3.9299,3.9299,3.9299,3.9299,3.9245,3.9094,3.9094,3.904,3.8947,3.8738,3.8655,3.8628,3.8347,3.8205,3.8205,3.8107,3.7934,3.7756,3.7756,3.7626,3.751,4.329,4.329,4.329,4.329,4.329,4.329,4.329,4.329,4.329,4.329,4.329,4.329,4.329,4.329,4.329,4.329,4.329,4.3135,4.2701,4.2671,4.2073,4.0771,4.0711,4.0502,4.0053,3.9828,4.0055,4.077,4.1254,4.1624,4.1852,4.2585,4.2522,4.1852,4.238,4.2617,4.2617,4.3096,4.3402,4.3598,4.3598,4.3598,4.3598,4.3598,4.3598,4.3598,4.3598,4.3598,4.3598,4.3598,4.3598,4.3598,4.3598,4.3598,4.3598,4.3598,4.3598,4.3482,4.2969,4.1972,4.0945,4.0525,4.0028,3.958,3.9348,3.9299,3.9299,3.9299,3.9299,3.9299,3.9299,3.9299,3.9299,3.9299,3.9299,3.9299,3.9299,3.9299,3.9299,3.9299,3.9299,3.9299,3.9299,3.9299,3.9299,3.9299,3.9299,3.9299,3.9299,3.9299,3.9299,3.9299,3.9299,3.9299,3.9299,3.9299,3.9299,3.9299,3.9299,3.9299,3.9299,3.9299,3.9299,3.9299,3.9067,3.8958,3.8914,3.8628,3.8532,3.8532,3.842,3.8205,3.7915,3.7915,3.7743,3.751,4.329,4.329,4.329,4.329,4.329,4.329,4.329,4.329,4.329,4.329,4.329,4.329,4.329,4.329,4.329,4.329,4.329,4.329,4.329,4.329,4.2746,4.1497,4.1422,4.1422,4.1422,4.0741,4.0734,4.1432,4.1489,4.19,4.2617,4.3312,4.3235,4.2617,4.2617,4.2617,4.2617,4.2617,4.3005,4.3598,4.3598,4.3598,4.3598,4.3598,4.3598,4.3598,4.3598,4.3598,4.3598,4.3598,4.3598,4.3598,4.3598,4.3598,4.3598,4.3598,4.3598,4.3598,4.3598,4.3069,4.2187,4.0774,4.0426,4.021,3.9481,3.9315,3.9315,3.9299,3.9299,3.9299,3.9299,3.9299,3.9299,3.9299,3.9299,3.9299,3.9299,3.9299,3.9299,3.9299,3.9299,3.9299,3.9299,3.9299,3.9299,3.9299,3.9299,3.9299,3.9299,3.9299,3.9299,3.9299,3.9299,3.9299,3.9299,3.9299,3.9299,3.9299,3.9299,3.9299,3.9299,3.9299,3.9299,3.9299,3.9299,3.9299,3.9272,3.8942,3.8805,3.8777,3.8504,3.8205,3.7915,3.7915,3.7743,3.751,4.329,4.329,4.329,4.329,4.329,4.329,4.329,4.329,4.329,4.329,4.329,4.329,4.329,4.329,4.329,4.329,4.329,4.3551,4.412,4.363,4.3371,4.3579,4.2643,4.1886,4.1384,4.119,4.1708,4.2934,4.2953,4.3327,4.4066,4.4266,4.4001,4.3295,4.3295,4.3295,4.3295,4.3295,4.3432,4.3598,4.3598,4.3598,4.3598,4.3598,4.3598,4.3598,4.3598,4.3598,4.3598,4.3598,4.3598,4.3598,4.3598,4.3598,4.3598,4.3598,4.3598,4.3598,4.3598,4.3433,4.3035,4.2121,4.1491,4.0928,4.0243,4.0078,3.9928,3.9415,3.9299,3.9299,3.9299,3.9299,3.9299,3.9299,3.9299,3.9299,3.9299,3.9299,3.9299,3.9299,3.9299,3.9299,3.9299,3.9299,3.9299,3.9299,3.9299,3.9299,3.9299,3.9299,3.9299,3.9299,3.9299,3.9299,3.9299,3.9299,3.9299,3.9299,3.9299,3.9299,3.9299,3.9299,3.9299,3.9299,3.9299,3.9299,3.9299,3.9175,3.9148,3.9148,3.9056,3.8821,3.8539,3.8539,3.8359,3.8135,4.3771,4.3771,4.3654,4.3369,4.329,4.329,4.329,4.329,4.3409,4.3732,4.3771,4.3771,4.3771,4.3771,4.3669,4.3329,4.3591,4.4105,4.4924,4.451,4.4472,4.4962,4.4163,4.3214,4.2162,4.2183,4.2821,4.3987,4.4063,4.4463,4.5135,4.5135,4.4903,4.4473,4.4473,4.4473,4.4473,4.4473,4.4473,4.4473,4.4473,4.4473,4.4473,4.4473,4.4473,4.4473,4.4473,4.4473,4.4473,4.4473,4.4291,4.3992,4.3681,4.3598,4.3598,4.3598,4.3598,4.3598,4.3598,4.3598,4.3482,4.3035,4.2373,4.1657,4.0945,4.0608,4.0276,3.9829,3.9497,3.9299,3.9299,3.9299,3.9299,3.9299,3.9299,3.9299,3.9299,3.9299,3.9299,3.9299,3.9299,3.9299,3.9299,3.9299,3.9299,3.9299,3.9299,3.9299,3.9299,3.9299,3.9299,3.9299,3.9299,3.9299,3.9299,3.9299,3.9299,3.9299,3.9299,3.9299,3.9299,3.9299,3.9299,3.9299,3.9299,3.9299,3.9299,3.9299,3.9299,3.9299,3.9299,3.9094,3.8805,3.8805,3.8628,3.8391,4.4586,4.4548,4.4259,4.3566,4.3329,4.329,4.329,4.3369,4.3669,4.4396,4.4548,4.4586,4.4586,4.4586,4.4297,4.3472,4.4066,4.4887,4.5733,4.5733,4.5733,4.5805,4.5733,4.5036,4.3551,4.3624,4.4065,4.4804,4.4923,4.5293,4.5897,4.5897,4.5847,4.5798,4.5798,4.5798,4.5798,4.5798,4.5798,4.5798,4.5798,4.5798,4.5798,4.5798,4.5798,4.5798,4.5798,4.5798,4.5798,4.5798,4.5334,4.4671,4.4026,4.3747,4.3698,4.3698,4.3648,4.3598,4.3598,4.3598,4.3598,4.3598,4.3085,4.2406,4.1662,4.1028,4.0575,4.0509,3.9962,3.9481,3.9415,3.9398,3.9381,3.9315,3.9299,3.9299,3.9299,3.9299,3.9299,3.9299,3.9299,3.9299,3.9299,3.9299,3.9299,3.9299,3.9299,3.9299,3.9299,3.9299,3.9299,3.9299,3.9299,3.9299,3.9299,3.9299,3.9299,3.9299,3.9299,3.9299,3.9299,3.9299,3.9299,3.9299,3.9299,3.9299,3.9299,3.9299,3.9299,3.9299,3.9299,3.9121,3.8832,3.8832,3.8683,3.8476,4.5442,4.4924,4.4434,4.4259,4.3732,4.329,4.329,4.3849,4.4297,4.4488,4.5036,4.5442,4.5442,4.5442,4.511,4.4297,4.4396,4.5095,4.6464,4.6005,4.5949,4.6534,4.602,4.5551,4.5184,4.5212,4.5568,4.6309,4.6336,4.6469,4.6659,4.6659,4.6344,4.5798,4.5798,4.5798,4.5798,4.5798,4.5798,4.5798,4.5798,4.5798,4.5798,4.5798,4.5798,4.5798,4.5798,4.5798,4.5798,4.5798,4.5682,4.5516,4.5367,4.492,4.4456,4.4456,4.4059,4.3598,4.3598,4.3598,4.3598,4.3598,4.3466,4.3168,4.2423,4.217,4.1889,4.1309,4.1061,4.0779,4.0276,4.016,3.9978,3.9398,3.9299,3.9299,3.9299,3.9299,3.9299,3.9299,3.9299,3.9299,3.9299,3.9299,3.9299,3.9299,3.9299,3.9299,3.9299,3.9299,3.9299,3.9299,3.9299,3.9299,3.9299,3.9299,3.9299,3.9299,3.9299,3.9299,3.9299,3.9299,3.9299,3.9299,3.9299,3.9299,3.9299,3.9299,3.9299,3.9299,3.9299,3.9272,3.9175,3.9175,3.9164,3.9083,4.6218,4.5897,4.5483,4.5132,4.4737,4.4434,4.4434,4.4812,4.5206,4.5556,4.5953,4.6218,4.6218,4.6218,4.6076,4.5629,4.5593,4.6095,4.7287,4.7015,4.6981,4.7371,4.6981,4.6809,4.6809,4.6809,4.6809,4.6811,4.7186,4.7391,4.7421,4.7421,4.7222,4.6841,4.6841,4.6841,4.6841,4.6841,4.6841,4.6841,4.6841,4.6841,4.6841,4.6841,4.6841,4.6841,4.6841,4.6841,4.6792,4.6444,4.6311,4.6245,4.5897,4.5533,4.5152,4.4787,4.4423,4.4059,4.3698,4.3598,4.3598,4.3598,4.3598,4.3499,4.3102,4.2738,4.2373,4.1993,4.1629,4.1309,4.0945,4.0878,4.0746,4.0348,4.0044,3.9829,3.9829,3.9514,3.9299,3.9299,3.9299,3.9299,3.9299,3.9299,3.9299,3.9299,3.9299,3.9299,3.9299,3.9299,3.9299,3.9299,3.9299,3.9299,3.9299,3.9299,3.9299,3.9299,3.9299,3.9299,3.9299,3.9299,3.9299,3.9299,3.9299,3.9299,3.9299,3.9299,3.9299,3.9299,3.9299,3.9299,3.9299,3.9299,3.9514,3.9802,4.721,4.7075,4.6749,4.6001,4.5769,4.5697,4.5697,4.5805,4.6127,4.6708,4.6931,4.6999,4.6999,4.688,4.6862,4.6999,4.688,4.7152,4.7968,4.8001,4.8001,4.8001,4.8001,4.8001,4.8001,4.8001,4.7671,4.6999,4.7671,4.8001,4.8001,4.8001,4.8001,4.8001,4.8001,4.8001,4.8001,4.8001,4.8001,4.8001,4.8001,4.8001,4.8001,4.8001,4.8001,4.8001,4.8001,4.8001,4.7918,4.7289,4.709,4.6974,4.6361,4.6079,4.5864,4.5251,4.497,4.4721,4.3992,4.378,4.3747,4.3631,4.3598,4.3598,4.3598,4.3118,4.2688,4.2688,4.2191,4.1756,4.1624,4.1579,4.1558,4.1425,4.0928,4.0591,4.0591,4.0044,3.9663,3.9663,3.9564,3.9448,3.9315,3.9299,3.9299,3.9299,3.9299,3.9299,3.9299,3.9299,3.9299,3.9299,3.9299,3.9299,3.9299,3.9431,3.9497,3.9497,3.9613,3.9531,3.9299,3.9299,3.9299,3.9299,3.9299,3.9299,3.9299,3.9299,3.9381,3.9497,3.9497,3.9564,3.9663,3.9663,4.0061,4.0591,4.8893,4.8235,4.7521,4.6786,4.6111,4.5697,4.5697,4.6253,4.6673,4.6777,4.7404,4.7853,4.7853,4.722,4.7084,4.7787,4.7186,4.7152,4.7968,4.8001,4.8001,4.8001,4.8001,4.8001,4.8001,4.8001,4.7968,4.7853,4.7968,4.8001,4.8001,4.8001,4.8001,4.8001,4.8001,4.8001,4.8001,4.8001,4.8001,4.8001,4.8001,4.8001,4.8001,4.8001,4.8001,4.8001,4.8001,4.8001,4.7984,4.7885,4.7852,4.7835,4.7736,4.7255,4.6725,4.6626,4.6146,4.5483,4.4738,4.4539,4.439,4.3747,4.3598,4.3598,4.3598,4.3515,4.3449,4.3449,4.3367,4.3102,4.2456,4.234,4.2125,4.1496,4.1326,4.1276,4.1276,4.1193,4.1127,4.1127,4.0597,4.0011,3.9365,3.9299,3.9299,3.9299,3.9299,3.9299,3.9299,3.9299,3.9299,3.9299,3.9299,3.9299,3.9299,3.9928,4.026,4.026,4.0845,4.0481,3.9299,3.9299,3.9299,3.9299,3.9299,3.9299,3.9299,3.9299,3.968,4.026,4.026,4.0597,4.1127,4.1127,4.1193,4.1276,4.979,4.9417,4.8948,4.8226,4.7822,4.7468,4.7062,4.727,4.7488,4.7488,4.777,4.8001,4.8001,4.7671,4.7588,4.7968,4.7671,4.7638,4.7968,4.8001,4.8001,4.8001,4.8001,4.8001,4.8001,4.8001,4.8001,4.8001,4.8001,4.8001,4.8001,4.8001,4.8001,4.8001,4.8001,4.8001,4.8001,4.8001,4.8001,4.8001,4.8001,4.8001,4.8001,4.8001,4.8001,4.8001,4.8001,4.8001,4.8001,4.8001,4.8001,4.8001,4.8001,4.7785,4.7438,4.7023,4.6659,4.6245,4.55,4.5301,4.5135,4.439,4.4224,4.4125,4.3681,4.3598,4.3598,4.3598,4.3598,4.3499,4.3168,4.3102,4.3002,4.2671,4.2274,4.1993,4.1993,4.1645,4.1409,4.1409,4.1143,4.0829,4.0498,4.0464,4.0464,4.0464,4.0464,4.0464,4.0464,4.0464,4.0464,4.0464,4.0464,4.0464,4.0464,4.0796,4.0961,4.0961,4.1276,4.1077,4.0464,4.0464,4.0464,4.0464,4.0464,4.0464,4.0464,4.0464,4.0663,4.0961,4.0961,4.1143,4.1409,4.1409,4.1645,4.1993]}]]